GFSSE_sfc_thetae_003.txt.gz
Theta_e
349 355 359 359 359 359 359 359 362 363 363 365 366 367 365 365 365 365 365 364 365 364 363 363 363 362 361 361 360 360 359 358 358 357 358 357 358 356 356 354 355 351 356
353 355 359 360 359 360 359 358 361 362 364 365 366 366 364 363 364 365 364 364 365 363 362 363 363 361 360 358 358 358 355 357 358 359 359 358 356 355 355 355 351 352 355
352 356 358 362 360 360 360 359 361 362 364 366 366 366 364 362 363 363 364 365 364 363 363 362 361 361 360 360 359 357 356 354 355 357 359 355 354 355 355 356 356 355 355
352 356 356 360 361 360 360 360 361 364 364 365 367 366 363 364 363 363 364 363 363 363 362 361 360 360 359 359 359 358 357 355 355 355 356 354 353 356 356 356 355 356 355
354 357 359 360 360 361 361 361 362 366 364 364 365 364 364 364 364 364 363 362 362 362 361 360 359 359 359 359 360 359 357 357 355 353 357 358 358 358 357 354 354 355 352
355 357 360 362 363 362 362 361 364 366 365 366 366 366 365 365 363 362 361 361 362 361 360 359 359 359 360 360 360 360 360 357 356 356 359 358 358 358 357 352 354 353 355
355 358 361 364 362 363 364 364 367 367 365 367 366 365 365 363 362 361 362 362 361 360 359 359 359 360 360 361 361 361 360 357 356 359 358 359 359 357 355 353 353 352 353
354 359 361 364 364 364 364 364 365 368 366 367 366 365 364 363 363 362 361 360 359 359 359 360 360 361 361 362 363 359 359 359 356 357 359 359 357 357 356 356 355 355 355
358 358 363 364 365 365 367 367 367 368 367 366 365 365 365 364 363 362 361 360 359 359 360 361 361 360 360 360 361 358 359 358 358 359 357 361 356 358 359 357 355 355 354
358 359 362 364 364 366 363 368 365 366 365 364 364 364 364 362 362 361 360 361 362 362 361 362 361 359 359 360 360 359 359 358 357 359 359 359 354 358 358 358 356 355 355
356 359 362 361 364 366 365 364 366 364 364 364 363 362 361 364 362 360 359 360 360 359 360 361 360 360 359 357 357 357 355 356 358 359 359 357 356 356 358 356 356 357 355
351 356 361 362 362 362 362 363 365 361 359 360 362 363 363 364 364 360 357 359 358 357 359 360 359 358 355 356 355 354 355 356 356 357 357 356 357 356 358 357 356 356 356
352 354 358 361 363 362 364 364 364 362 362 361 364 363 364 363 361 358 360 357 356 358 359 357 357 357 357 354 353 352 354 355 356 356 356 353 356 357 357 359 357 357 355
350 354 356 360 363 364 367 361 366 361 362 358 360 365 363 359 359 360 359 361 364 360 359 358 356 356 354 353 351 350 351 352 351 354 357 355 357 359 358 357 358 356 356
350 354 358 361 362 363 363 360 359 363 358 358 361 362 360 357 359 359 359 361 362 361 359 358 356 354 353 350 351 350 349 350 351 351 353 355 355 357 359 359 359 358 356
352 354 358 361 364 364 362 364 362 363 363 361 361 360 363 361 360 364 359 361 359 360 358 358 355 352 350 350 348 349 348 348 350 351 350 354 352 355 358 360 360 359 358
354 355 355 359 362 363 364 365 363 362 361 357 358 362 363 363 363 363 363 361 359 359 357 356 354 353 349 348 347 347 348 348 347 350 350 351 354 354 356 358 362 362 358
356 356 356 355 358 361 362 364 361 361 361 360 360 363 362 363 364 364 364 363 358 357 355 354 352 349 350 348 346 347 346 346 349 350 350 351 350 351 355 356 357 361 362
358 358 358 360 360 363 365 365 363 365 363 363 363 362 363 362 362 364 364 362 358 355 357 354 352 350 347 346 345 345 344 345 348 346 349 351 352 352 350 358 357 356 357
357 360 360 360 362 365 365 365 366 366 367 362 362 361 363 362 360 360 359 358 356 356 355 353 351 352 348 347 343 342 344 346 344 345 345 344 342 349 352 355 357 356 356
357 358 359 360 362 362 359 357 358 354 359 359 361 362 362 362 361 361 361 357 356 352 353 352 351 348 346 349 342 338 343 344 340 342 341 336 334 338 343 348 352 354 356
355 357 359 360 363 363 361 362 360 360 359 359 361 363 362 360 361 360 358 354 354 350 351 350 349 345 346 349 340 339 330 335 341 338 335 329 333 333 335 341 344 348 350
352 356 358 361 364 364 364 362 361 361 361 358 359 359 360 361 360 359 357 354 353 350 344 348 347 345 340 346 345 338 329 326 330 338 337 331 332 331 333 337 341 343 342
351 354 359 361 363 364 366 361 360 355 352 356 359 360 360 361 358 357 356 352 352 348 349 348 347 348 347 340 343 344 342 338 327 325 333 332 330 328 332 331 334 337 336
351 351 355 361 363 366 365 365 359 358 357 359 357 357 360 359 357 353 352 350 350 347 349 346 348 347 345 341 339 340 339 338 338 329 321 324 330 332 330 330 332 333 333
349 350 353 359 362 362 363 363 361 361 359 356 355 350 351 353 350 350 348 350 351 349 346 344 346 345 344 343 342 340 334 329 329 327 324 326 325 328 330 331 330 331 331

GFSSE_sfc_thetae_006.txt.gz
Theta_e
351 356 358 359 360 360 360 360 364 364 366 366 367 367 366 366 365 366 365 365 364 364 364 363 362 360 360 360 360 359 358 359 357 359 358 358 357 356 354 353 354 349 356
356 357 358 361 359 359 360 360 362 365 365 365 367 364 364 364 365 365 365 365 363 363 363 363 362 362 361 360 358 358 356 356 355 356 357 355 356 356 354 351 355 352 355
355 357 358 360 359 359 359 361 362 364 363 366 365 362 361 363 364 365 365 364 363 363 363 361 360 360 360 359 359 358 357 355 353 356 355 351 351 354 355 355 355 354 355
353 355 356 361 360 359 359 361 362 362 362 363 363 361 361 363 363 365 364 363 363 362 361 361 361 360 359 359 359 357 357 356 354 352 355 349 349 357 356 355 357 356 355
354 354 359 360 360 359 360 361 364 363 363 364 362 362 362 362 364 365 363 363 362 361 360 360 359 359 360 360 360 359 358 355 354 355 356 354 353 356 354 355 356 354 353
355 356 357 358 360 360 361 362 363 364 363 364 363 362 363 364 363 362 362 363 361 360 360 359 359 359 360 360 361 359 359 356 356 356 357 355 355 358 355 354 354 355 355
354 358 356 362 362 361 362 363 364 363 364 364 365 364 364 362 361 361 362 362 360 358 358 358 359 360 361 361 361 358 358 357 357 357 358 359 357 356 354 356 351 353 355
355 356 360 362 364 363 364 365 366 364 365 365 364 364 363 362 361 361 361 359 358 358 358 359 360 360 360 360 360 357 358 358 357 359 357 358 357 358 357 357 354 353 354
356 357 360 361 364 365 365 365 365 365 364 363 364 364 363 362 361 360 359 357 359 360 360 360 360 358 359 359 358 358 357 356 360 360 357 357 357 358 359 358 356 356 355
357 359 360 363 364 364 364 365 365 364 361 361 363 362 363 362 360 360 360 360 360 358 359 361 358 358 359 358 358 358 356 360 355 358 358 357 357 358 359 358 356 355 355
355 357 360 360 363 365 361 361 363 362 362 362 363 362 360 359 362 358 359 359 360 358 358 359 358 359 357 357 356 357 359 356 355 355 357 357 355 357 359 359 357 357 356
352 355 356 360 360 361 358 363 364 360 358 358 358 360 357 362 364 357 360 357 358 357 357 358 356 357 359 354 354 357 352 354 356 358 357 357 355 356 358 359 356 359 355
354 355 357 359 362 362 361 360 359 358 358 358 363 362 360 360 361 362 362 360 360 357 359 360 359 357 357 355 353 352 352 352 350 354 357 354 354 356 357 359 358 358 356
352 354 357 359 361 361 370 359 358 356 357 356 357 363 361 358 359 362 360 364 361 361 359 361 357 358 357 355 354 352 350 350 349 349 355 356 354 357 358 358 359 359 356
351 354 356 359 363 363 364 359 358 357 356 356 357 361 359 356 364 360 362 361 359 362 361 358 358 357 356 353 352 349 346 346 348 348 349 357 353 354 358 359 358 359 357
352 353 356 358 362 363 363 364 359 359 357 357 356 357 362 358 366 357 358 357 357 359 360 358 358 356 354 352 348 348 346 344 347 349 347 352 354 352 355 359 360 359 358
353 354 356 359 361 364 365 364 362 359 358 356 356 362 363 365 364 361 358 356 356 364 361 359 360 356 352 350 347 344 346 346 346 348 348 347 352 356 355 356 360 362 361
355 356 358 356 359 363 363 362 360 359 358 358 357 360 364 364 364 362 358 355 358 357 357 356 355 351 348 345 343 343 344 345 346 347 348 349 347 345 356 357 355 359 361
356 358 358 359 358 361 364 362 362 363 370 369 362 361 362 364 362 361 358 357 360 355 359 357 351 350 344 341 340 340 344 344 346 343 348 353 351 350 346 357 354 354 355
357 360 361 359 362 364 370 369 364 363 360 360 359 366 366 367 362 362 358 358 358 358 353 353 352 348 346 342 338 337 344 347 347 346 346 344 344 349 350 355 354 353 354
357 360 362 361 365 367 361 355 355 353 356 358 360 365 365 363 363 363 357 359 359 356 354 352 347 345 338 347 337 339 341 344 344 346 343 336 337 340 345 351 352 353 355
356 360 363 363 365 366 360 360 358 358 356 358 360 363 364 363 364 361 361 358 359 350 353 347 347 340 341 345 337 335 329 335 338 339 338 332 334 334 337 342 347 352 352
354 359 362 365 366 368 367 362 362 362 362 358 359 361 364 364 364 364 362 358 356 347 340 347 346 343 336 345 344 335 328 327 329 336 337 334 334 332 334 336 340 341 342
353 358 363 365 367 367 369 365 366 356 351 351 355 355 360 364 363 363 360 356 350 344 348 346 346 344 343 337 341 341 342 339 327 326 332 333 337 334 334 332 334 337 338
353 356 360 366 368 369 368 371 363 361 354 353 354 361 363 363 363 357 360 352 348 345 349 349 347 346 343 338 336 338 341 336 339 328 322 329 334 335 336 336 333 334 336
352 355 357 364 369 369 368 368 367 364 360 352 356 353 350 351 355 359 358 353 349 347 348 346 346 345 343 342 339 340 333 330 330 328 324 327 327 331 335 334 334 332 334

GFSSE_sfc_thetae_009.txt.gz
Theta_e
352 354 358 359 359 361 361 364 364 367 367 367 368 368 368 368 367 367 368 366 364 366 363 362 362 361 360 360 360 359 359 358 358 357 358 357 357 356 353 352 351 351 356
353 353 358 359 360 360 361 364 365 365 366 367 367 368 367 366 365 367 366 364 364 363 363 362 361 361 360 360 359 358 357 356 355 356 356 356 357 355 354 354 354 352 355
351 353 357 359 360 361 361 364 365 364 364 364 365 365 364 364 366 365 364 364 363 363 362 361 361 360 360 360 359 358 357 355 351 353 355 354 352 356 354 356 355 356 356
351 352 355 361 359 360 362 361 364 362 362 362 363 362 363 363 365 364 363 363 362 362 361 360 360 360 360 361 360 358 356 354 352 355 355 351 350 357 356 357 356 356 355
350 352 358 361 360 360 362 362 364 363 362 362 362 362 362 363 364 363 362 362 362 361 360 359 360 360 360 361 360 359 356 353 353 356 355 353 353 355 356 356 355 355 353
350 354 359 360 360 360 362 364 364 364 364 363 361 362 363 363 362 361 362 362 361 360 359 360 360 360 361 360 360 358 356 355 357 357 355 349 354 357 356 354 356 356 355
354 354 355 362 360 361 363 364 364 363 363 363 362 362 364 362 361 361 361 360 358 358 359 359 360 360 360 359 360 357 357 357 358 357 357 358 353 357 354 355 354 355 356
352 354 356 361 361 361 363 364 363 364 363 364 363 363 362 361 360 361 359 358 358 358 359 360 358 358 358 358 357 356 357 359 355 356 360 357 358 358 356 356 352 355 356
355 355 358 359 363 364 364 364 364 363 364 363 363 363 361 360 360 358 356 356 358 359 360 360 358 357 358 357 357 357 359 360 358 356 355 359 360 358 358 358 357 356 355
355 356 357 359 360 363 364 364 363 363 362 360 362 362 361 362 361 359 357 359 358 357 358 358 357 357 357 358 357 357 359 360 358 355 357 356 360 359 359 358 358 357 356
352 356 356 357 360 364 364 364 364 362 359 360 361 361 360 357 358 361 362 358 358 358 357 357 357 359 358 359 359 359 361 355 351 354 355 358 358 359 360 359 357 356 356
350 352 354 357 358 358 355 362 361 356 356 357 357 359 358 362 362 357 359 360 359 359 359 360 360 361 361 357 356 361 351 352 352 352 355 361 359 359 359 360 357 358 356
350 352 356 358 363 358 359 356 357 356 356 356 361 361 359 358 361 356 357 358 361 361 358 359 357 356 355 353 352 351 351 350 347 349 356 359 356 356 359 361 357 359 357
350 352 354 360 361 362 360 355 356 354 354 354 357 364 362 358 358 357 358 358 361 359 359 361 357 356 355 355 353 352 348 345 345 345 358 359 356 355 359 359 360 359 358
350 352 354 357 362 364 365 356 357 356 353 353 355 360 359 356 364 361 363 357 360 361 357 357 359 356 355 355 352 349 346 343 342 342 347 360 357 355 359 360 359 359 359
350 351 354 357 362 363 364 366 362 359 360 354 354 357 363 359 364 358 365 358 358 358 363 359 360 355 356 354 350 347 344 344 345 346 344 354 359 357 357 360 360 359 358
351 353 354 356 360 362 363 365 360 356 355 355 354 360 361 363 363 364 360 358 355 363 361 361 359 361 352 346 344 343 343 344 344 346 345 343 354 359 358 358 363 363 362
352 354 355 354 356 360 363 364 359 357 360 358 357 359 363 364 366 365 357 356 360 359 361 359 356 347 344 342 341 341 341 343 345 345 346 345 344 345 359 361 357 359 359
354 355 356 357 356 361 369 363 363 366 358 362 362 358 362 368 367 362 358 359 362 360 356 355 353 352 342 341 339 338 342 343 343 342 343 346 348 347 345 359 360 357 356
354 357 358 357 364 368 366 375 359 357 360 360 359 357 364 363 365 363 359 361 361 356 354 354 353 347 344 342 337 334 342 344 343 342 343 341 342 345 348 351 354 353 357
353 356 361 363 371 364 358 362 356 353 357 355 355 367 366 364 366 363 359 360 359 358 357 351 346 346 339 344 337 338 339 342 342 342 338 336 338 338 343 347 349 351 356
353 357 365 366 372 369 361 363 361 356 354 354 357 367 364 364 365 363 364 358 359 351 352 348 347 340 339 342 336 334 330 336 344 337 336 334 335 335 338 342 347 350 352
352 358 364 370 372 372 370 367 365 367 360 359 356 359 361 363 363 365 362 362 358 351 337 348 346 343 336 342 345 335 328 327 333 338 338 334 335 333 335 338 340 341 342
353 357 366 371 373 372 374 365 368 356 350 349 352 353 358 365 362 363 363 357 355 345 353 347 344 345 344 338 338 338 340 338 328 326 335 335 335 333 336 334 334 338 338
352 354 362 372 374 375 373 370 361 360 352 352 350 365 368 369 360 357 357 355 351 342 350 350 346 347 345 338 336 335 342 334 337 327 324 328 333 334 335 334 334 333 335
351 354 360 371 374 375 375 369 370 369 362 352 353 352 353 353 355 358 355 356 352 348 349 347 348 347 345 344 340 340 334 330 330 329 325 329 327 331 334 336 335 336 333

GFSSE_sfc_thetae_012.txt.gz
Theta_e
349 353 357 358 358 360 363 366 367 367 368 368 369 369 369 369 369 368 367 367 367 366 365 365 365 362 360 360 359 359 358 359 358 358 356 357 356 354 355 352 350 351 357
351 354 358 362 359 362 365 366 367 367 368 368 368 368 368 368 368 367 367 367 366 365 364 364 363 361 360 359 359 358 356 353 357 357 356 356 354 356 356 356 357 352 356
350 352 355 362 362 362 364 366 367 366 367 367 368 368 368 368 368 367 366 365 365 364 363 362 361 361 361 360 358 357 355 353 353 352 355 354 351 357 356 356 358 357 356
350 351 353 363 363 364 365 366 365 365 365 366 367 367 368 368 367 365 363 362 362 362 361 360 361 360 361 361 359 357 355 354 354 353 355 351 346 357 357 358 357 356 356
349 353 356 363 364 364 365 365 365 365 365 366 366 366 367 367 366 363 362 361 361 361 360 361 361 360 360 361 358 357 355 353 358 358 355 352 347 355 357 358 355 356 358
352 353 360 364 363 364 365 365 365 366 365 365 365 366 366 365 362 362 361 359 359 359 360 361 361 361 360 360 359 357 356 356 357 358 355 356 349 357 358 358 357 355 356
351 352 356 364 364 365 366 366 365 365 364 365 365 365 363 363 361 362 359 358 358 359 360 361 359 359 358 358 358 357 356 357 357 356 354 352 353 360 357 358 356 356 356
350 350 354 363 365 365 366 366 366 364 364 364 363 364 362 361 361 360 357 357 357 359 361 361 358 358 357 355 357 359 359 359 354 350 355 352 358 359 357 354 356 356 356
350 353 355 356 361 364 367 365 364 364 364 363 363 363 361 360 360 360 359 356 358 359 359 359 356 356 356 356 358 359 363 365 357 354 355 354 360 359 358 354 353 357 354
353 353 357 359 358 360 360 365 363 363 362 362 362 361 361 361 362 362 362 362 358 356 357 357 357 357 356 358 359 360 363 363 351 343 354 354 360 360 359 358 358 356 355
351 352 355 355 362 363 362 361 363 362 361 361 360 362 364 358 360 361 364 362 361 359 356 359 361 361 361 362 364 366 365 356 352 346 353 357 359 361 359 358 358 358 357
346 351 352 358 359 360 355 363 364 359 355 357 358 362 359 355 360 360 362 360 363 362 344 357 363 360 360 358 358 364 354 351 353 352 351 348 360 360 360 359 360 358 357
349 350 355 358 361 358 361 360 358 356 357 358 366 360 363 356 366 352 354 357 356 354 345 354 361 356 356 354 352 351 349 349 349 354 353 358 362 360 360 361 360 359 356
350 354 356 358 362 365 358 355 357 356 357 356 360 368 370 364 360 353 351 356 350 353 355 360 356 357 358 355 348 346 348 344 342 349 356 360 360 359 360 361 359 359 359
349 353 356 360 365 368 366 361 355 361 354 353 362 364 361 366 360 352 364 365 360 354 360 363 358 360 360 356 353 351 344 345 345 343 355 360 360 359 361 361 360 359 360
348 353 358 360 366 366 366 373 373 362 361 361 353 362 369 369 368 365 367 361 357 359 365 360 360 360 360 356 354 349 345 345 347 347 346 357 362 360 363 361 362 361 359
351 354 356 359 361 364 371 370 372 362 357 354 360 363 366 369 370 370 364 365 362 359 362 360 356 361 349 352 350 346 346 345 347 346 346 347 356 362 362 363 361 361 361
350 355 358 353 359 360 365 370 365 359 359 357 366 355 367 371 369 372 364 353 361 356 361 356 356 356 345 346 345 346 343 346 346 346 346 343 350 352 360 362 361 360 359
354 358 359 360 360 361 367 364 366 363 361 358 362 367 358 359 370 363 362 357 364 364 359 358 354 354 349 345 340 343 344 345 344 341 345 344 345 350 352 357 359 360 359
354 359 359 360 368 364 364 364 364 359 358 359 372 356 361 365 366 364 363 366 366 363 351 358 349 348 347 344 340 338 344 345 344 346 340 341 342 345 351 350 354 354 357
354 358 359 360 368 367 364 357 358 359 358 359 361 367 364 368 369 370 365 363 359 360 346 351 352 347 346 347 342 339 342 344 344 344 337 337 338 340 344 345 348 352 353
352 356 361 361 368 367 365 363 361 360 360 356 361 364 367 367 369 363 363 363 359 358 355 351 349 345 344 348 339 338 330 335 338 335 337 334 335 337 340 343 346 346 351
351 357 360 363 366 365 367 364 364 363 366 360 361 364 365 367 365 358 364 364 362 356 351 352 350 348 340 346 345 339 331 327 334 339 338 335 335 335 337 341 340 340 339
351 358 362 364 365 367 366 363 360 354 355 357 356 359 363 366 366 367 366 363 360 355 355 352 350 346 348 339 343 342 341 338 330 328 337 336 337 335 336 335 338 339 336
353 356 360 366 366 366 366 364 361 360 356 358 358 367 363 365 365 362 365 362 357 351 357 351 349 347 348 344 340 342 342 340 338 328 325 331 335 336 337 337 333 335 338
352 356 357 365 366 367 368 364 366 358 356 356 357 359 359 361 361 365 360 359 357 351 354 352 352 351 347 348 344 344 340 336 331 333 330 329 328 333 336 335 337 338 335

GFSSE_sfc_thetae_015.txt.gz
Theta_e
347 351 358 359 360 361 364 368 368 368 369 369 369 369 369 368 367 368 367 367 366 366 363 361 360 360 360 359 358 358 359 359 358 357 357 355 354 355 355 355 358 353 355
348 353 359 359 361 364 365 368 368 368 369 369 368 369 368 367 366 367 367 365 365 365 362 361 361 360 359 358 357 357 357 358 358 357 356 354 354 356 355 355 357 352 353
350 353 356 362 364 364 366 367 367 368 368 368 368 368 369 366 366 367 365 365 365 364 361 361 361 361 360 358 356 354 356 355 354 355 355 351 351 357 358 357 358 355 356
350 351 355 363 364 366 366 367 367 366 365 367 368 368 368 366 366 365 363 362 362 363 361 360 360 360 361 359 357 355 356 355 354 354 353 352 350 356 358 358 358 355 354
348 351 356 365 365 366 365 366 366 366 365 367 367 368 368 367 365 363 362 361 361 363 361 360 360 360 360 359 357 357 358 358 357 356 351 346 346 355 358 357 357 357 357
349 354 362 365 364 365 366 366 365 365 365 366 366 367 367 366 364 362 361 360 359 360 361 361 360 359 358 358 357 358 358 359 358 354 349 350 347 356 356 355 357 357 356
349 354 359 366 367 367 366 366 367 365 364 366 367 367 367 366 363 362 360 359 359 359 360 360 358 358 356 357 357 357 358 359 351 352 352 349 352 360 359 357 356 356 357
349 352 356 364 367 368 366 365 367 366 364 366 367 366 366 366 365 364 361 359 358 358 360 359 359 358 357 357 360 361 359 354 340 341 350 351 357 359 357 356 356 356 357
349 350 354 356 361 366 368 366 366 366 366 366 367 366 365 364 363 362 362 360 358 357 358 359 359 361 361 361 362 362 358 351 339 345 339 347 357 359 353 356 356 356 357
348 351 351 354 356 359 359 365 364 364 365 365 366 364 363 361 360 361 364 363 357 356 358 360 363 362 362 364 362 360 360 356 347 338 337 340 356 360 355 354 357 355 355
349 350 352 353 354 354 355 359 363 364 364 364 363 365 362 356 354 357 353 361 359 360 360 358 365 364 364 366 364 362 360 343 342 342 340 349 359 360 359 358 357 356 356
346 349 352 353 354 354 357 355 355 356 353 353 354 353 355 350 351 360 356 358 360 359 355 352 359 366 361 353 354 360 351 347 345 341 350 358 360 361 360 358 358 357 357
345 349 351 354 355 353 352 355 355 353 350 350 351 353 352 356 354 352 348 352 351 347 341 352 353 356 352 348 343 342 341 347 351 350 348 354 360 362 361 359 359 356 358
344 349 350 353 353 353 354 354 354 351 350 349 353 354 355 351 348 348 349 351 349 346 345 352 349 350 350 346 344 343 337 335 346 349 351 357 360 362 362 361 360 358 357
345 348 349 353 353 354 352 350 350 350 351 351 353 354 351 352 347 347 347 349 347 343 349 351 349 351 348 347 347 344 334 335 337 349 350 362 360 362 363 361 360 360 359
347 348 350 352 355 357 354 354 353 354 351 351 355 355 352 352 352 350 351 350 352 352 354 352 349 348 351 347 348 347 335 340 338 339 350 352 359 359 361 362 361 360 360
347 349 351 352 357 354 355 353 354 348 346 343 349 356 354 355 353 352 350 351 349 353 353 346 350 347 343 346 342 339 337 337 337 336 338 349 353 358 363 361 361 360 361
347 349 352 354 355 354 354 356 353 349 349 349 354 356 356 356 354 354 352 346 350 347 350 348 350 344 342 340 332 334 329 336 338 337 340 345 350 350 357 359 359 359 359
347 350 351 351 351 353 353 355 353 351 354 350 353 353 356 357 358 352 353 350 350 350 346 345 342 343 336 332 332 331 333 334 339 340 339 338 341 347 350 356 357 358 356
349 351 350 352 350 350 356 352 352 352 352 354 354 350 356 356 358 353 350 351 351 348 345 343 342 339 334 333 337 332 332 332 331 336 337 334 334 348 347 347 349 351 357
350 349 349 349 352 352 353 350 349 350 351 347 351 352 355 355 356 354 352 350 353 348 343 345 339 331 333 334 328 330 332 336 331 327 328 327 329 335 343 345 347 349 350
347 348 348 348 357 354 354 352 351 350 352 350 351 356 354 356 356 352 351 350 350 346 341 336 333 331 333 335 325 326 324 330 333 329 326 325 327 332 336 338 337 344 346
345 348 349 349 357 357 356 353 352 353 352 351 350 357 357 358 357 352 353 351 346 340 338 335 334 333 328 335 331 327 320 319 329 329 329 324 327 324 329 333 332 332 343
345 350 351 352 357 355 356 352 348 345 343 347 352 353 357 358 355 353 352 352 346 342 339 336 337 332 334 327 334 332 328 325 320 322 330 326 329 325 325 328 331 329 338
346 348 354 353 354 356 356 352 351 347 347 350 349 350 354 355 355 356 354 350 341 336 340 338 334 332 335 333 330 332 332 328 326 318 316 324 330 330 330 324 329 329 329
346 350 354 354 354 357 354 354 353 350 348 345 344 351 353 352 352 355 353 345 340 337 339 337 336 335 333 333 330 331 330 323 323 321 319 317 320 326 328 332 327 325 329

GFSSE_sfc_thetae_018.txt.gz
Theta_e
346 350 358 359 361 366 368 367 369 369 369 369 368 368 366 366 365 365 365 363 362 362 361 361 360 360 358 358 359 358 358 358 357 357 354 354 355 356 356 357 357 350 352
348 351 360 360 362 367 367 367 368 369 368 369 368 367 365 364 364 363 364 362 362 361 361 361 360 359 358 358 358 357 357 356 358 356 354 353 354 355 356 357 355 348 352
348 352 355 362 365 366 366 368 368 368 367 368 368 366 364 364 364 363 362 362 362 361 361 360 361 360 358 357 357 356 355 354 355 356 355 350 352 356 358 356 353 355 355
351 351 356 364 365 365 366 367 367 366 365 368 367 366 364 364 363 362 362 361 361 361 361 360 359 360 359 358 358 357 356 355 353 354 350 350 348 357 357 357 355 354 354
349 352 356 365 366 365 366 366 367 366 364 366 366 364 363 363 362 361 361 361 360 361 360 360 359 358 358 358 358 357 357 360 358 355 350 345 346 356 357 357 353 355 356
349 353 361 365 363 364 365 365 364 364 364 365 366 364 363 363 362 361 360 359 360 360 360 358 357 356 357 359 358 359 361 359 355 350 345 351 347 356 355 357 356 356 356
350 354 357 364 365 365 365 364 364 363 362 365 366 364 363 363 361 360 359 359 359 360 359 357 356 357 356 358 357 360 358 356 349 349 352 348 350 359 357 358 356 356 352
351 355 357 364 366 366 364 363 364 362 362 364 365 364 363 363 362 360 358 359 359 360 360 358 357 358 359 358 359 359 353 353 349 347 348 346 353 360 358 357 356 357 352
353 354 356 358 359 363 366 364 364 362 362 363 364 364 364 362 361 357 358 358 358 359 359 359 358 360 360 358 359 361 354 347 342 344 344 342 358 359 356 356 356 356 354
350 352 353 354 356 359 359 365 365 364 363 363 364 362 361 360 360 359 362 359 358 356 359 360 360 361 359 360 355 359 355 351 345 340 342 346 357 355 356 356 356 356 356
347 350 352 353 354 356 355 359 364 365 364 364 362 363 363 354 353 357 355 358 357 358 354 351 358 364 362 362 363 358 361 347 343 340 338 345 356 357 355 356 357 354 356
344 346 351 352 354 354 357 354 354 356 355 355 355 353 355 350 350 358 357 356 358 356 353 357 360 362 357 349 350 354 347 339 341 341 342 349 356 360 357 357 356 356 356
345 348 349 351 353 353 352 352 352 352 350 349 351 350 350 352 352 351 348 350 348 345 336 348 351 350 350 349 342 338 344 339 342 343 349 356 360 359 360 358 358 356 356
345 348 350 351 352 351 350 353 353 352 348 346 347 349 348 348 347 347 345 349 347 343 343 347 347 347 348 346 341 340 336 346 346 347 346 355 359 359 359 359 358 357 358
345 347 350 351 352 350 350 350 349 350 348 347 347 351 351 348 344 345 346 348 347 344 346 347 348 348 348 347 348 343 335 338 346 347 345 357 357 361 361 360 359 357 357
345 347 350 351 351 351 351 347 348 349 348 347 350 353 351 349 345 344 344 347 346 345 343 349 346 345 346 342 343 345 342 335 342 346 346 350 359 360 362 361 359 359 359
345 348 348 350 351 351 350 348 348 350 351 350 350 352 351 351 349 349 349 347 347 349 350 345 346 346 339 341 334 334 334 335 338 341 346 346 351 360 360 362 361 360 358
346 346 348 352 351 350 352 349 351 350 344 346 350 351 352 352 353 349 350 345 347 348 348 345 345 341 337 332 327 329 329 334 336 334 338 343 347 349 356 358 359 359 358
347 347 347 349 350 349 351 353 349 346 349 348 350 351 352 353 354 350 349 348 346 350 345 344 341 340 333 329 331 328 331 330 337 339 336 343 344 347 347 355 357 358 355
347 348 349 348 350 350 351 351 348 347 349 348 349 350 355 354 354 348 348 348 347 345 343 341 338 336 331 331 337 330 329 328 333 333 329 335 345 346 345 345 349 349 356
346 347 349 347 348 349 350 346 344 343 346 347 350 348 352 353 355 350 348 349 349 345 341 340 336 329 329 331 323 326 330 331 326 326 325 330 336 339 344 343 346 349 351
345 347 348 347 347 347 350 349 346 346 348 348 346 348 352 352 352 351 349 347 347 341 338 333 330 328 330 330 323 323 321 328 328 326 322 330 331 336 338 340 342 344 342
344 346 346 348 348 347 349 349 347 349 350 347 346 349 352 352 353 352 349 348 346 343 337 332 331 329 325 330 327 324 318 318 327 328 323 323 324 325 330 331 338 341 340
343 346 347 350 350 350 351 349 346 345 344 345 345 350 352 353 353 350 350 348 339 340 334 333 335 332 328 325 330 329 325 323 319 318 325 322 323 322 325 329 328 336 338
344 345 346 347 352 353 352 350 348 344 345 344 346 347 350 353 353 352 350 348 339 338 336 334 332 330 332 328 327 328 326 325 319 316 316 320 325 325 323 323 328 328 337
342 345 346 345 351 353 352 350 347 345 343 342 343 344 349 352 352 351 351 347 338 336 337 334 331 330 332 332 329 329 327 320 320 318 316 315 317 323 325 326 324 326 329

GFSSE_sfc_thetae_021.txt.gz
Theta_e
346 350 356 360 362 365 367 367 368 367 368 367 366 365 363 362 362 363 362 361 361 360 360 360 360 359 358 358 357 358 357 356 355 353 353 355 356 357 355 356 353 348 356
347 351 358 360 364 366 366 366 367 367 367 365 365 364 362 362 362 362 361 361 361 361 360 360 360 359 359 358 357 358 357 356 355 354 353 355 355 356 356 356 351 347 353
346 351 355 361 364 364 365 366 365 366 365 365 364 363 362 363 362 362 361 361 360 360 359 361 360 359 358 358 357 356 354 355 357 354 355 350 349 357 356 352 353 354 355
349 350 354 361 365 363 365 365 366 364 364 364 363 363 363 363 361 361 360 359 359 359 359 359 359 360 358 357 356 356 355 355 357 355 349 347 350 357 356 353 355 354 354
349 352 355 363 365 363 364 365 365 366 363 363 363 363 363 362 361 360 359 359 359 359 359 359 359 359 359 357 355 355 356 357 357 353 346 344 348 355 356 353 353 355 355
349 353 359 364 363 362 363 363 363 363 364 363 362 362 362 361 360 359 359 358 359 359 359 358 358 358 358 357 357 357 358 354 354 349 344 351 348 356 356 353 355 356 356
349 352 356 364 365 363 362 362 361 361 363 364 362 362 362 361 360 358 357 357 357 359 360 358 358 358 357 357 358 357 358 358 347 348 349 347 348 357 356 357 357 355 355
350 352 356 362 363 363 362 362 361 361 362 363 362 362 362 361 360 359 357 357 358 359 359 358 358 358 356 357 359 356 355 356 348 344 348 349 354 357 357 357 355 352 354
352 353 353 354 357 362 362 362 362 361 362 363 362 362 362 361 359 358 356 357 356 357 358 358 358 357 357 358 359 357 354 356 345 346 346 346 359 358 357 355 356 353 352
352 353 353 353 352 354 356 362 362 361 361 362 362 361 361 360 359 358 360 358 357 355 357 359 358 358 357 358 359 360 355 351 342 341 341 342 359 357 356 355 356 355 351
349 351 351 352 353 355 356 358 362 363 361 362 361 362 362 353 352 356 356 356 357 357 355 354 354 361 358 357 363 362 358 347 342 339 339 348 358 354 355 356 355 356 354
344 348 351 351 354 354 358 354 354 356 355 355 355 354 354 350 349 356 356 357 357 358 349 356 359 359 355 346 344 355 351 345 340 338 337 347 355 356 355 356 355 354 356
344 347 350 351 354 353 354 351 351 351 351 351 351 350 350 350 347 352 348 348 347 345 334 344 347 347 348 346 340 337 343 338 340 339 342 352 355 358 357 356 356 355 356
342 345 349 351 352 351 349 351 351 350 348 346 347 347 346 347 346 347 344 345 346 343 338 345 345 348 346 345 340 337 340 338 341 342 344 354 358 358 357 357 358 356 356
342 345 347 350 350 351 346 351 348 348 347 345 344 347 348 346 344 345 344 345 345 344 344 343 345 346 346 345 344 340 334 343 344 344 343 354 357 359 357 356 358 356 356
344 345 348 348 349 349 347 346 347 348 347 345 345 347 350 346 344 343 343 344 345 345 342 344 346 344 345 340 342 340 340 333 343 344 344 346 358 359 361 357 357 357 356
344 347 347 348 350 348 347 347 346 347 348 345 347 350 350 348 345 344 343 346 346 346 346 346 343 343 339 335 333 331 333 334 343 343 344 344 348 358 361 361 359 358 356
344 345 347 351 350 348 348 347 347 346 346 348 349 348 350 350 348 345 346 345 344 347 346 343 343 340 334 332 329 328 327 334 334 338 342 344 345 346 353 359 359 359 356
344 345 346 349 349 349 349 348 347 348 346 345 346 348 350 350 351 347 348 344 345 344 344 343 339 338 331 328 330 326 330 329 336 337 335 343 344 346 345 355 355 357 355
344 346 346 348 349 349 349 349 346 344 346 346 347 349 350 351 352 348 347 346 344 344 342 339 337 334 329 329 334 328 329 327 331 330 328 340 341 345 344 343 346 348 355
344 344 345 346 348 348 347 346 343 344 344 345 346 348 350 351 352 347 345 347 345 342 341 338 335 328 326 328 321 322 328 326 325 323 327 338 339 341 341 341 344 347 350
342 344 345 345 346 347 347 349 346 343 343 345 347 346 350 352 352 348 346 346 346 343 338 336 329 326 328 327 321 320 319 325 324 323 323 334 336 339 340 342 342 343 342
340 344 345 345 346 346 347 347 344 345 346 344 343 344 347 350 351 352 347 346 345 340 336 331 329 327 324 328 325 323 318 317 321 324 321 327 329 331 331 336 340 340 337
341 344 346 346 346 346 347 346 345 343 341 343 344 346 347 349 351 350 348 346 344 343 336 332 332 328 326 326 328 327 322 322 317 314 322 321 321 322 326 327 334 339 338
341 343 346 346 346 346 346 346 345 342 342 343 344 345 347 348 349 350 348 346 338 338 336 333 331 330 328 324 325 325 323 323 316 316 313 318 323 322 321 326 326 328 338
341 344 345 345 345 346 346 346 345 343 341 340 341 342 344 348 349 349 348 346 339 336 334 333 331 329 331 329 328 328 325 318 319 316 315 315 316 320 323 323 322 326 330

GFSSE_sfc_thetae_024.txt.gz
Theta_e
345 350 357 358 362 363 365 364 366 367 366 366 366 365 362 362 362 361 361 360 361 360 360 360 358 358 358 357 359 356 356 354 353 353 355 357 357 356 356 354 355 354 358
347 351 357 357 361 365 366 366 367 366 365 366 365 364 362 363 362 361 361 361 361 361 360 359 358 359 357 357 357 357 356 355 352 353 356 356 356 356 357 352 353 353 357
346 351 354 360 364 365 366 366 365 364 363 364 364 363 362 361 361 361 361 360 359 359 360 359 359 358 357 357 355 355 355 355 354 355 356 352 353 356 353 352 352 353 355
348 350 353 359 365 364 365 366 366 363 362 363 363 363 363 361 361 360 360 359 360 360 359 358 358 358 356 356 355 355 355 356 354 355 351 351 352 357 353 357 355 356 356
348 351 353 363 365 364 364 365 366 364 363 362 362 363 361 361 360 359 359 359 359 360 359 359 358 356 357 354 354 355 356 357 357 352 349 351 354 355 355 355 355 355 355
349 352 359 363 363 363 364 364 364 362 362 362 362 362 361 361 359 358 359 359 360 360 359 358 358 358 356 355 355 357 356 355 357 350 349 355 354 357 353 355 357 357 355
349 352 355 364 364 363 362 363 363 363 362 362 362 362 361 360 359 358 357 358 360 360 359 358 358 357 356 356 355 357 357 357 350 350 352 351 353 358 355 356 356 356 356
350 352 356 362 363 362 362 361 361 362 363 362 362 362 361 360 359 358 357 358 359 360 359 358 357 357 356 357 357 357 356 354 346 350 351 351 356 357 356 356 355 355 356
352 352 354 355 359 362 361 361 360 361 362 362 362 361 361 360 358 356 356 358 358 359 359 358 357 357 357 356 358 355 356 357 348 349 348 352 357 358 357 354 353 352 355
351 352 351 351 353 354 355 362 361 360 361 362 361 361 359 359 357 357 358 358 358 358 356 357 357 358 358 357 356 359 354 354 347 347 345 348 359 357 356 353 355 350 355
350 350 351 350 350 353 354 356 361 361 360 361 360 360 359 356 355 356 356 356 357 357 355 353 355 361 358 357 360 358 357 349 344 342 341 345 356 356 355 354 354 352 352
345 349 350 350 351 354 357 356 355 356 355 355 357 357 357 355 354 358 358 357 357 357 347 356 359 357 354 349 346 356 355 349 343 342 341 347 356 355 354 356 354 355 354
344 349 350 351 352 353 355 353 353 354 354 354 355 354 354 353 350 355 352 351 352 350 339 348 349 350 351 347 343 344 349 347 343 342 340 348 354 356 355 355 355 354 354
343 347 350 351 353 352 351 352 352 351 351 350 351 352 349 350 349 352 349 348 350 348 345 350 350 351 350 347 343 344 344 342 344 344 345 352 354 356 355 356 355 355 355
341 345 348 351 352 352 348 350 350 350 350 348 347 349 349 347 347 349 348 348 350 350 348 348 350 350 352 349 348 342 342 345 346 346 348 351 355 357 355 355 358 356 355
341 343 347 349 351 352 348 348 349 348 348 348 346 346 350 349 348 347 347 348 349 349 348 349 351 349 348 343 344 346 345 340 346 347 348 347 356 357 357 356 355 357 356
342 343 345 348 350 349 348 345 347 348 349 347 346 348 351 350 349 348 346 347 349 351 351 350 348 349 343 338 336 337 339 340 342 348 349 348 350 354 357 356 356 354 355
343 344 346 348 348 348 347 346 346 346 347 347 348 350 351 351 351 348 347 349 350 351 351 348 348 346 340 335 336 335 336 340 341 347 347 349 349 350 353 356 357 358 354
343 345 346 347 347 347 347 346 347 346 346 347 348 349 351 352 352 349 349 350 349 349 348 348 344 343 336 335 337 334 336 336 339 339 341 345 347 351 349 354 356 356 353
344 345 346 347 348 348 347 347 347 347 347 348 346 348 351 351 353 351 350 350 348 348 346 345 344 339 336 335 333 333 334 334 338 337 337 344 347 350 350 350 353 353 354
343 344 345 346 348 347 345 345 344 344 345 347 348 350 351 352 353 352 350 350 348 348 347 345 340 337 333 333 330 331 334 331 330 330 340 345 347 348 347 347 349 351 352
341 343 345 345 347 348 348 347 347 347 345 348 349 350 351 352 353 351 349 349 348 348 345 342 338 333 332 331 329 327 327 330 331 329 334 339 342 345 345 347 349 350 349
339 342 344 345 347 348 348 348 345 346 346 345 346 348 348 353 353 353 349 350 349 348 344 341 336 334 331 335 331 330 324 324 327 330 330 332 337 339 339 343 346 346 344
338 343 345 345 346 347 348 346 346 344 342 344 345 347 348 351 352 353 352 350 349 347 342 340 336 334 333 333 333 330 329 330 324 323 329 329 329 331 334 336 342 345 343
340 341 344 345 345 346 347 347 346 345 345 344 346 346 347 349 351 352 352 350 348 347 345 340 336 336 333 333 332 330 329 326 324 323 321 325 329 330 329 334 334 337 344
340 341 343 344 344 346 346 346 345 344 342 342 344 344 346 349 350 351 351 350 348 344 344 340 338 337 336 334 333 333 331 327 325 323 322 323 324 329 331 330 331 333 335

GFSSE_sfc_thetae_027.txt.gz
Theta_e
348 353 357 358 360 361 363 365 366 367 366 366 366 365 363 361 362 361 361 360 361 360 360 359 359 359 357 358 356 356 355 353 354 355 357 357 356 355 356 357 357 354 358
351 354 358 360 361 363 364 365 365 367 366 366 364 363 362 362 361 361 361 361 362 360 360 359 359 357 357 357 358 357 356 353 353 355 356 357 356 357 353 355 355 357 358
349 352 354 361 363 364 364 365 366 366 364 364 364 363 362 362 362 361 360 360 360 360 359 359 358 358 357 356 357 355 356 355 354 356 354 353 354 356 352 352 356 357 357
349 351 354 361 364 363 365 366 366 363 363 363 363 362 362 362 361 360 360 360 361 360 359 358 358 357 356 355 355 355 356 355 355 356 353 353 353 353 355 355 356 356 355
350 353 356 363 366 365 366 365 365 364 363 363 363 362 361 361 360 360 360 360 361 361 360 359 357 356 355 353 354 355 357 357 355 350 355 356 354 353 356 356 356 357 355
350 353 360 364 363 365 365 365 363 363 363 363 363 362 361 360 359 360 360 361 361 360 358 358 358 357 355 354 353 353 354 356 356 351 354 355 355 355 355 356 356 356 355
349 354 359 364 365 365 365 364 362 362 362 363 362 361 361 360 359 359 360 360 360 359 358 358 358 356 356 357 354 357 355 356 355 353 354 356 356 355 356 358 357 356 357
350 354 358 363 364 364 364 363 363 362 362 362 362 362 361 360 359 359 359 360 360 359 358 358 357 356 356 358 357 357 357 353 352 353 353 355 355 356 357 356 356 357 356
352 354 355 358 361 363 362 362 362 363 362 362 361 361 361 359 358 357 359 358 359 358 358 358 357 356 356 357 357 357 357 352 352 354 350 354 355 356 357 354 355 356 354
352 353 355 356 357 359 359 361 361 362 362 362 361 360 359 358 357 358 356 359 357 357 357 357 356 355 355 355 358 357 358 355 351 351 353 353 356 356 355 356 351 354 352
351 353 354 354 359 361 360 359 360 360 361 361 360 359 359 362 361 359 358 356 357 357 357 356 357 358 356 357 357 357 357 355 349 348 350 349 355 357 355 356 354 354 351
347 351 353 353 356 358 356 361 361 359 356 358 358 361 362 362 362 360 361 358 359 353 352 357 358 357 356 353 350 358 359 356 350 349 349 347 354 355 354 354 356 351 352
346 348 352 354 357 356 355 357 358 358 358 358 361 361 361 361 361 361 362 359 361 352 352 356 357 359 355 351 349 348 356 357 353 351 346 348 354 354 355 355 354 355 354
345 347 350 353 356 357 356 356 357 357 357 356 357 362 360 357 360 362 361 360 361 359 357 360 359 360 359 357 352 348 350 351 351 352 349 348 352 352 354 356 356 354 355
344 346 350 354 356 358 358 356 357 358 356 356 357 358 357 354 357 360 362 359 359 360 357 358 363 359 357 353 351 352 351 352 353 354 353 351 354 355 353 354 356 357 355
345 347 350 353 356 358 357 359 357 359 357 357 355 355 358 356 359 360 361 358 357 361 360 358 360 358 348 347 348 354 353 351 354 354 353 352 351 355 354 353 355 356 355
346 349 350 353 356 358 358 357 357 357 355 354 354 357 356 358 360 361 359 357 358 363 361 358 358 361 350 343 342 349 349 347 349 352 355 355 352 352 354 354 354 354 356
348 349 352 352 354 357 358 358 356 355 354 353 353 354 356 357 361 361 359 357 362 362 363 360 362 359 354 341 342 345 348 348 348 353 355 355 356 352 352 355 355 353 353
349 350 350 353 352 355 357 357 356 355 354 353 353 354 357 358 361 360 359 359 363 361 360 360 358 355 348 345 345 345 346 346 344 346 350 353 355 355 354 351 356 355 353
350 351 352 352 354 356 355 356 354 352 351 352 352 353 359 360 361 361 359 361 361 358 357 358 358 352 347 346 341 342 343 347 349 347 348 351 355 355 356 356 355 353 354
349 351 353 353 356 354 352 349 349 347 349 352 356 359 359 361 362 363 359 361 360 356 358 358 353 349 345 347 341 341 341 343 341 344 351 349 352 352 352 355 355 355 353
348 351 354 355 357 356 354 354 352 351 350 355 359 361 361 361 363 362 362 360 360 356 358 356 353 346 344 346 339 339 332 336 339 339 349 347 349 348 345 347 354 356 353
347 351 354 357 359 359 359 356 354 355 355 355 356 357 359 362 363 364 363 361 361 359 355 357 352 348 341 345 342 338 330 328 336 339 343 346 348 347 345 346 349 351 352
349 351 355 357 359 358 361 357 357 350 347 351 355 357 358 362 362 363 363 362 362 359 359 357 352 349 344 339 341 342 342 341 331 329 336 342 344 342 345 345 346 347 351
348 348 353 358 359 360 361 360 355 355 352 354 354 360 364 363 362 362 363 362 362 359 360 357 352 349 344 341 341 338 340 339 340 334 328 332 339 340 341 341 343 345 347
347 347 350 356 357 360 360 360 360 359 357 352 353 352 353 356 357 361 362 363 363 361 360 358 355 352 348 344 343 342 337 335 332 333 332 333 332 336 337 338 340 341 342

GFSSE_sfc_thetae_030.txt.gz
Theta_e
340 352 357 357 359 362 365 365 368 368 365 364 364 363 362 362 362 361 361 361 359 359 360 360 359 358 359 357 357 356 354 354 355 358 358 357 357 357 357 357 358 354 359
351 354 357 358 360 362 362 367 367 366 365 365 363 362 362 362 362 362 360 360 361 360 360 360 358 357 358 358 358 357 354 353 355 357 357 357 357 355 356 356 362 358 359
349 355 358 361 362 362 365 366 366 365 364 363 363 363 362 362 361 361 360 361 361 361 360 359 359 357 357 357 356 357 356 354 356 355 356 353 355 353 352 357 359 358 358
353 352 358 361 363 364 364 367 366 363 363 363 363 363 362 362 361 361 360 361 359 360 359 359 358 357 356 355 355 357 356 354 356 354 353 351 347 352 352 356 356 357 358
348 354 360 362 364 364 365 366 366 364 363 363 363 362 362 361 361 360 360 362 360 360 360 359 357 357 356 354 354 355 356 354 354 354 353 357 349 355 356 355 357 355 354
352 355 361 363 364 365 365 365 363 363 363 363 362 362 361 360 360 360 362 361 361 359 359 359 358 358 356 354 354 353 355 355 355 349 355 353 352 356 356 355 356 355 354
352 355 360 365 366 366 365 364 363 363 363 363 362 361 360 360 360 360 361 360 360 359 359 358 358 358 358 357 358 357 355 354 354 351 353 355 351 355 355 356 356 356 356
352 353 357 364 366 367 365 363 363 363 363 363 362 362 361 360 360 360 360 361 360 359 358 358 357 357 359 359 358 358 356 352 354 350 351 354 355 356 357 357 357 357 356
352 351 354 356 362 364 364 363 363 363 363 363 363 362 361 360 359 359 359 358 359 358 358 357 357 357 357 358 358 358 354 350 355 352 349 350 355 355 356 357 357 357 357
351 350 353 355 357 360 361 363 363 363 362 362 361 361 360 359 359 359 358 359 358 357 357 358 357 356 356 357 359 358 358 354 353 353 350 355 356 356 355 352 356 354 353
348 349 351 352 356 359 358 360 361 362 361 361 361 360 360 362 361 361 359 358 358 356 355 358 358 358 356 360 359 360 360 351 350 350 352 355 355 355 356 355 351 353 350
347 348 349 352 353 356 353 359 359 356 354 356 357 360 362 363 363 360 360 358 360 349 354 356 355 357 358 347 349 359 354 352 351 352 349 354 354 356 354 357 353 355 350
350 348 349 352 356 355 354 356 355 354 355 357 361 362 364 365 364 364 360 357 358 352 356 357 357 355 350 347 343 343 348 349 347 347 348 350 354 353 354 354 356 353 352
350 349 350 352 356 355 354 353 354 353 354 352 354 362 364 359 362 365 360 359 359 359 360 360 354 356 355 353 348 345 344 348 347 347 350 352 353 351 354 356 355 356 355
348 350 351 354 357 357 357 353 352 353 353 352 354 358 360 360 363 363 363 362 362 363 358 359 356 355 358 354 354 349 346 347 348 349 350 354 354 354 353 355 357 355 356
348 349 351 353 357 358 357 360 356 356 354 354 352 353 360 359 365 364 361 361 362 363 362 361 358 356 356 351 351 351 344 346 347 349 348 352 354 355 353 354 355 357 356
348 349 350 353 356 358 359 360 359 356 355 353 352 357 359 362 364 366 366 358 362 365 362 362 360 359 349 349 349 345 346 347 346 346 351 350 351 354 354 353 355 356 357
349 350 352 352 354 357 359 359 356 355 355 352 350 353 359 360 365 366 364 359 363 365 362 359 356 353 349 348 346 348 346 346 348 348 348 353 352 349 352 352 352 354 354
350 352 354 356 355 357 361 360 359 359 355 351 351 353 359 361 363 365 362 361 367 363 360 360 356 356 348 347 344 346 345 344 347 342 345 351 351 350 349 352 352 352 351
353 354 356 356 358 361 360 361 357 354 353 352 352 353 358 361 363 365 361 363 360 361 359 358 356 356 352 348 340 339 345 345 346 345 343 344 350 350 350 354 353 351 352
352 354 356 356 361 359 357 354 352 348 349 350 352 358 361 364 366 368 362 363 363 360 361 359 356 354 348 351 338 339 341 343 343 345 345 342 344 346 346 348 350 351 351
350 353 356 358 361 361 358 358 353 351 349 351 353 359 364 365 368 367 368 365 365 360 363 361 359 352 350 343 339 339 331 335 339 343 344 342 342 341 341 345 352 353 352
349 352 357 360 362 363 363 359 356 354 352 350 353 358 364 366 367 369 368 362 366 363 358 361 359 354 345 343 347 340 331 330 333 339 344 342 344 341 341 344 345 349 351
349 353 357 361 363 363 364 362 363 350 346 349 354 357 360 366 366 367 368 366 368 362 363 367 359 356 353 339 342 343 347 345 332 330 338 341 342 341 343 343 343 344 346
350 352 355 362 366 367 368 367 358 358 351 351 352 366 370 367 366 364 368 368 368 364 364 365 361 359 353 342 339 340 342 339 342 334 331 334 340 340 342 342 343 343 345
350 352 354 363 366 367 365 364 367 366 362 352 357 354 355 357 361 365 366 368 369 367 366 364 364 361 358 350 343 344 338 335 335 335 332 336 335 339 341 341 342 342 343

GFSSE_sfc_thetae_033.txt.gz
Theta_e
345 350 354 358 361 362 365 365 365 365 363 363 364 362 362 362 361 362 360 361 361 360 360 360 359 360 357 358 357 354 354 355 358 358 358 359 358 357 356 356 359 354 359
343 350 357 359 361 363 365 367 366 364 363 364 362 363 362 362 362 362 361 362 360 360 360 359 358 359 359 359 358 355 354 356 357 357 357 358 356 356 357 357 362 358 359
345 353 356 362 363 363 365 366 364 363 364 363 363 362 362 362 361 361 361 361 361 360 360 359 358 358 358 357 358 357 355 357 355 355 355 352 350 352 357 359 360 359 359
349 353 354 363 364 365 365 365 365 363 363 364 363 363 363 362 361 361 361 360 361 360 359 358 358 357 356 355 357 357 355 355 353 351 355 348 343 351 356 358 359 359 358
351 355 359 363 364 365 365 365 364 363 363 363 362 362 362 361 360 360 360 361 360 360 359 358 358 357 355 354 355 357 355 353 353 353 353 354 353 355 354 356 355 356 356
353 354 360 363 363 364 364 364 363 362 363 363 361 361 361 361 361 362 360 361 359 360 359 359 358 358 357 356 355 355 354 354 355 353 354 353 354 355 355 354 356 354 355
353 356 360 364 365 365 364 363 363 363 363 362 361 360 361 361 360 362 361 360 359 359 359 358 358 358 359 358 358 355 354 354 352 351 353 350 352 356 357 357 356 356 355
351 352 360 364 365 365 363 363 363 363 362 362 362 361 361 360 360 361 361 361 360 359 358 358 358 359 359 359 358 356 353 353 350 350 355 352 357 357 357 357 357 356 356
349 351 356 358 363 364 364 363 362 362 362 363 362 361 360 360 359 359 360 360 359 359 358 358 357 357 359 359 359 356 351 353 356 348 348 352 358 356 357 357 357 356 357
348 349 351 354 357 359 359 362 362 362 362 362 362 361 361 361 360 359 360 360 358 357 356 357 356 356 358 360 359 359 357 355 352 348 351 354 357 357 355 357 356 355 356
346 347 348 350 355 359 358 361 362 362 362 361 361 362 361 365 362 361 361 358 357 355 356 357 359 359 359 360 362 361 360 352 348 351 352 358 358 357 355 351 357 352 355
343 345 348 350 352 354 351 359 359 356 355 357 357 360 357 362 361 359 360 360 360 352 358 359 357 360 361 353 354 362 356 350 347 349 352 359 358 356 357 353 356 351 351
346 346 348 351 354 352 356 352 353 351 353 356 361 363 358 359 360 353 355 354 357 356 353 356 357 357 349 349 343 352 350 349 345 348 351 356 356 357 355 358 354 354 350
347 346 348 351 354 353 353 351 351 350 352 351 356 364 366 358 359 355 356 357 358 357 357 358 355 356 354 353 349 343 343 344 343 348 350 354 353 354 355 356 356 355 354
346 347 348 352 359 359 358 352 352 351 350 350 354 361 360 360 361 358 359 358 358 358 359 359 356 357 355 353 352 352 344 342 344 347 348 354 354 354 356 357 357 356 356
348 348 349 351 356 357 359 361 354 353 352 352 351 355 362 361 361 359 359 358 360 359 356 357 357 354 352 352 349 349 344 345 346 349 348 352 357 355 354 355 357 358 356
349 350 350 352 355 357 358 358 356 354 352 351 351 357 360 362 364 367 359 356 361 364 361 360 358 357 350 347 347 342 344 346 344 346 349 348 352 358 355 355 356 357 358
349 351 352 351 353 356 358 359 356 354 353 352 351 353 360 363 366 367 359 358 360 362 357 359 353 350 349 344 343 342 345 344 346 344 347 351 351 347 356 356 355 356 355
350 352 352 353 353 356 362 359 358 363 354 352 350 351 363 362 363 365 355 355 366 359 356 353 352 353 343 342 342 342 343 342 349 342 344 345 349 349 348 357 357 355 354
350 352 356 353 362 365 361 364 357 354 354 353 350 350 364 361 363 365 362 362 361 360 357 354 357 349 348 343 339 338 342 344 344 344 342 347 345 345 349 354 351 351 356
349 352 357 359 366 361 356 354 353 350 352 350 350 359 361 361 365 367 362 365 361 362 359 358 355 353 348 345 338 338 340 342 342 341 342 342 343 343 345 346 352 350 349
349 356 361 363 369 366 359 361 357 357 350 349 350 361 360 362 366 366 369 363 364 357 361 361 357 350 344 341 341 336 331 334 337 340 340 339 342 340 340 343 346 354 351
350 356 360 366 368 367 367 363 362 359 356 349 350 352 359 364 365 371 367 364 366 364 365 362 358 355 343 340 350 342 333 330 332 338 341 341 343 339 340 343 345 347 349
349 353 363 367 369 368 370 362 363 351 346 347 351 351 358 367 365 366 367 364 368 362 364 362 359 358 355 341 340 343 350 347 335 332 339 340 342 340 342 341 343 344 346
348 351 358 368 369 369 369 368 359 358 349 349 350 362 366 373 367 363 370 368 369 364 371 364 364 362 353 347 340 339 343 338 343 337 332 339 339 340 343 342 343 344 345
347 350 357 366 370 372 371 369 370 363 360 350 351 351 353 355 362 370 367 373 373 370 366 365 367 364 360 355 345 344 339 337 336 336 334 339 338 342 340 342 342 342 344

GFSSE_sfc_thetae_036.txt.gz
Theta_e
347 352 356 361 364 365 366 365 365 365 365 366 365 365 364 365 365 364 364 364 363 362 363 361 360 359 360 359 355 354 355 358 359 359 359 359 358 358 358 356 361 355 361
348 353 357 361 363 365 366 366 365 365 366 365 365 365 364 363 362 365 364 362 362 362 360 359 360 360 360 359 356 355 356 357 357 357 357 358 358 358 359 362 361 357 359
348 352 356 363 362 365 366 366 366 366 365 365 365 364 365 363 364 364 362 362 362 361 360 359 359 359 359 359 357 354 357 356 355 355 354 351 350 358 358 359 360 360 359
348 350 353 363 365 365 366 366 366 364 364 365 363 366 365 363 364 362 361 362 361 360 360 359 358 357 357 358 358 355 355 355 354 351 352 350 344 357 357 359 359 359 359
347 350 359 365 364 364 365 366 365 365 364 363 363 364 363 363 362 361 362 361 361 361 359 359 358 357 356 356 356 356 353 352 352 354 353 352 345 353 356 357 357 357 358
348 352 361 364 364 365 366 365 365 364 363 364 362 361 362 362 362 361 362 361 361 360 360 360 360 359 358 356 356 354 353 352 353 353 352 354 351 356 356 358 356 357 357
351 356 357 366 367 366 365 365 364 363 362 362 362 361 361 361 362 362 362 361 361 361 360 360 360 360 359 358 356 355 354 353 350 350 347 352 355 359 358 356 355 355 357
351 354 357 364 366 366 364 364 365 363 362 362 361 361 361 361 362 363 362 361 361 360 360 359 359 359 359 358 357 355 353 355 352 354 350 352 359 360 358 357 357 356 356
350 353 356 360 362 364 365 363 363 362 362 362 361 361 360 360 361 361 363 363 361 360 359 357 357 358 359 359 358 357 354 354 352 353 351 354 360 359 359 358 357 357 356
348 350 356 358 356 358 358 362 362 362 362 362 361 360 359 358 358 360 365 364 360 360 357 357 355 356 360 361 360 357 353 356 353 351 352 355 360 357 358 357 357 357 357
347 348 351 350 356 360 359 359 362 362 362 362 360 360 360 364 362 358 364 363 358 357 355 356 356 359 364 363 362 361 359 352 350 349 350 358 360 355 354 357 353 357 357
340 344 347 350 353 356 352 360 362 358 357 359 356 348 352 361 360 359 361 365 360 355 355 359 357 360 362 354 357 363 355 356 351 350 352 360 360 358 354 354 353 352 355
343 343 347 352 356 353 354 356 356 355 356 355 351 347 347 355 356 362 355 356 360 358 353 344 349 354 357 354 351 352 352 355 348 347 356 360 361 357 358 355 355 351 350
342 344 346 352 356 355 354 351 353 352 352 356 357 353 353 353 353 355 360 361 360 354 351 352 353 358 351 350 351 351 347 343 346 347 355 359 360 360 357 358 355 354 352
343 345 347 353 358 363 361 352 352 356 354 355 361 368 351 357 356 355 358 352 360 356 353 355 358 353 359 352 352 350 344 341 346 344 349 359 358 360 359 358 356 356 355
347 345 351 353 358 365 365 374 360 366 354 359 354 361 368 359 360 361 365 357 358 356 353 358 364 359 348 353 353 352 344 348 345 345 348 354 359 359 360 359 358 357 356
348 348 351 353 356 363 364 368 368 364 351 356 359 365 366 369 368 355 364 362 363 367 366 364 352 356 350 347 350 351 347 342 348 344 346 347 354 360 360 359 360 360 358
348 350 351 348 353 356 360 364 363 357 361 360 360 360 364 368 374 373 362 357 354 358 364 352 359 351 352 350 346 344 345 347 347 348 347 348 350 350 357 360 360 359 356
350 353 353 353 353 355 362 361 359 362 363 362 364 360 365 367 369 371 362 354 364 365 360 359 357 350 350 348 340 347 348 338 342 341 347 348 350 347 348 358 359 359 356
353 355 356 354 359 359 359 361 359 357 361 361 363 362 365 366 368 369 363 365 367 364 357 358 360 355 352 348 337 341 340 346 342 347 344 345 350 349 347 349 354 353 358
352 354 354 356 362 358 356 355 355 352 357 359 362 365 367 367 369 372 366 354 364 363 363 362 359 352 348 348 346 343 344 343 342 340 342 341 345 345 346 351 351 349 353
349 353 355 356 361 360 358 358 357 359 356 356 359 366 366 365 372 370 368 365 368 354 364 362 360 353 350 347 345 338 334 338 337 338 344 340 343 342 341 350 348 352 349
349 352 355 357 362 363 361 362 364 364 364 356 354 358 361 366 367 369 368 366 366 364 359 361 361 361 347 346 354 346 332 327 337 341 341 340 342 340 341 346 348 352 349
348 352 357 359 361 363 364 359 360 352 349 352 353 356 358 362 366 366 366 369 368 365 363 364 365 363 357 342 345 348 351 348 335 328 341 341 343 339 344 342 344 346 349
349 353 357 360 361 364 360 364 358 356 353 353 356 359 361 364 367 367 366 370 370 368 365 363 366 364 362 355 345 344 346 347 346 340 332 337 341 343 344 344 343 343 347
349 354 357 360 361 364 363 360 365 357 357 351 352 355 358 363 363 369 367 367 369 368 367 365 368 367 363 361 354 349 344 340 340 339 337 336 337 342 344 343 344 345 346

GFSSE_sfc_thetae_039.txt.gz
Theta_e
344 350 363 365 365 365 363 363 364 364 365 366 365 366 364 363 364 364 366 363 363 364 363 360 360 361 359 355 354 356 358 359 360 360 360 360 360 359 359 360 360 356 360
347 352 364 366 365 364 366 365 364 366 366 365 366 366 364 363 364 364 364 362 362 363 360 361 360 360 359 356 358 358 358 358 358 357 360 360 360 359 362 359 360 357 359
347 353 360 365 366 365 366 366 365 365 365 365 366 365 364 363 364 362 362 362 362 361 360 360 360 360 359 358 356 358 357 356 356 358 357 351 354 358 358 360 361 359 359
348 351 358 364 365 366 366 367 365 364 362 364 366 365 364 364 364 362 362 361 361 361 360 360 359 358 359 358 356 356 356 356 354 354 349 346 351 357 359 358 359 359 358
346 352 357 365 366 366 366 366 366 366 363 366 366 364 364 365 363 362 362 362 361 361 360 359 358 358 357 356 357 355 355 355 355 354 347 340 346 354 357 358 358 358 358
347 355 363 365 364 366 365 365 364 363 363 364 364 364 364 365 362 362 361 361 361 361 361 360 360 358 357 356 355 355 354 353 355 350 349 352 349 359 359 359 358 358 358
352 356 359 367 366 367 365 364 365 363 362 364 364 363 363 363 362 362 362 362 362 361 361 361 360 360 359 356 355 355 354 354 349 351 351 351 352 360 356 356 356 358 357
351 354 358 365 366 367 363 363 365 362 362 364 364 362 361 363 365 363 362 362 361 360 360 360 360 359 358 356 355 357 356 358 351 349 350 352 359 360 358 357 356 357 358
352 353 357 358 360 364 366 363 364 362 363 363 363 362 361 361 361 363 363 364 361 360 359 359 360 360 358 357 355 357 357 360 349 351 353 354 360 360 359 358 358 357 356
351 353 355 356 355 355 357 363 363 362 363 362 362 361 360 358 359 360 363 366 361 360 359 359 361 362 361 357 357 356 354 359 348 348 351 354 360 359 359 358 358 357 357
348 350 353 353 351 351 354 358 361 362 363 363 362 358 348 350 353 356 361 364 358 358 358 363 362 361 363 361 360 360 355 348 348 348 351 358 359 358 358 356 358 357 357
343 346 350 349 349 351 354 353 354 356 356 355 350 346 345 344 348 356 359 363 361 358 360 359 356 356 354 354 353 358 353 350 347 347 351 360 358 354 356 354 354 357 357
342 344 344 348 349 349 351 351 352 351 351 353 348 342 341 346 348 351 350 353 352 354 350 343 347 350 352 350 350 350 349 353 346 347 356 361 361 356 355 355 351 353 354
339 340 343 347 349 347 349 350 350 350 350 350 348 342 344 343 348 348 351 351 352 348 348 348 347 349 346 347 345 349 348 346 346 351 357 361 361 360 357 357 353 351 351
336 338 342 347 347 349 346 345 345 346 347 352 350 343 349 345 350 351 353 347 349 350 350 352 349 349 346 346 342 341 342 342 345 349 350 361 360 361 360 357 356 354 353
338 338 345 346 349 348 348 345 344 350 346 355 354 351 350 349 353 350 353 352 352 349 347 347 350 348 344 344 340 344 341 341 342 346 348 351 360 361 359 359 357 357 356
341 340 344 345 350 348 349 348 352 349 346 345 353 354 354 355 351 350 348 351 351 351 348 351 342 349 344 344 338 340 336 341 342 345 347 348 354 361 361 361 361 360 357
341 343 345 346 350 350 349 349 351 348 350 349 353 352 352 353 356 351 350 351 350 352 353 350 350 344 343 343 338 339 338 338 340 343 344 346 349 351 359 361 361 359 357
341 344 344 345 346 349 349 351 348 349 349 351 353 351 351 353 357 354 350 351 350 353 349 347 348 344 342 342 338 339 338 337 341 344 341 344 346 347 348 358 359 358 356
343 345 344 345 345 347 350 351 347 347 350 349 349 351 353 354 356 355 351 350 353 349 348 345 342 341 340 336 336 339 334 335 337 341 343 346 344 344 346 348 350 351 356
345 344 343 346 347 346 350 347 347 344 346 346 347 354 355 356 356 355 354 352 352 348 349 348 343 343 338 332 330 332 331 331 335 338 340 343 344 342 343 344 346 347 351
344 346 345 348 349 348 350 347 347 348 347 347 346 354 357 356 357 356 354 351 353 349 350 348 345 342 341 333 334 331 323 326 332 335 336 341 339 340 342 345 344 345 347
344 345 346 347 351 349 350 350 349 349 347 345 344 344 354 354 358 356 355 354 353 348 348 349 346 345 331 335 339 335 324 321 325 333 330 331 334 332 339 345 344 343 344
344 347 346 348 353 351 352 351 348 345 343 344 342 343 349 354 356 358 356 354 353 353 349 349 351 346 336 327 332 338 338 336 321 320 332 330 332 331 335 341 344 343 342
345 347 347 348 352 353 353 351 350 346 345 343 343 343 347 349 353 360 356 356 353 354 351 350 352 346 344 339 329 331 333 334 333 326 322 328 332 331 335 334 339 343 337
345 347 349 348 349 353 352 353 349 347 343 344 340 341 349 351 355 357 358 357 355 355 353 352 353 350 346 347 339 335 328 327 328 327 328 329 326 331 333 334 334 336 338

GFSSE_sfc_thetae_042.txt.gz
Theta_e
345 352 363 365 363 363 362 364 363 365 364 365 364 364 364 363 365 364 365 364 363 363 360 361 361 357 354 355 358 358 359 360 360 360 360 360 360 360 362 361 360 356 359
347 354 364 364 364 362 362 364 364 365 363 364 364 363 364 363 363 363 364 362 361 363 361 361 360 359 357 358 357 358 359 358 360 360 360 360 360 359 360 360 360 356 360
349 356 360 365 366 364 363 364 365 363 362 364 363 364 365 362 363 363 363 361 360 360 361 361 360 360 357 358 358 357 358 358 357 357 359 352 352 359 359 360 360 359 359
351 355 358 365 365 365 364 365 365 363 364 363 363 365 364 362 364 362 362 361 361 360 360 359 359 360 358 356 357 357 357 356 357 356 347 348 350 359 359 360 359 358 358
350 356 358 366 366 365 364 364 363 363 362 363 362 363 364 363 362 362 361 361 361 360 360 359 358 358 358 357 354 355 356 356 357 351 341 345 348 355 359 359 358 358 357
352 355 363 366 364 364 363 364 362 362 361 363 362 363 364 363 361 362 361 361 361 361 360 359 357 357 357 356 356 355 355 358 354 348 349 353 349 359 360 358 358 358 357
352 357 360 366 366 364 363 362 362 361 361 362 363 363 364 362 362 362 362 361 361 361 360 360 359 358 357 357 356 356 356 358 350 349 349 349 353 360 358 356 358 357 357
353 357 359 365 366 364 362 363 361 361 361 362 362 362 363 363 362 362 362 361 361 360 360 360 359 358 357 357 356 357 357 358 351 350 351 352 358 358 356 355 358 358 357
354 356 357 359 359 362 363 363 362 362 362 362 362 362 362 362 361 362 362 362 361 360 359 358 359 358 357 356 356 359 360 357 348 349 352 353 359 358 357 356 357 357 357
353 355 354 353 354 356 356 363 362 362 362 362 361 360 360 360 360 360 363 363 361 360 359 358 358 359 357 355 355 357 360 358 348 350 352 355 360 358 358 357 356 357 356
351 353 353 352 352 353 354 357 361 363 362 362 361 361 351 346 351 356 358 361 359 358 358 359 360 361 358 357 358 358 356 346 347 349 350 358 360 358 358 358 358 357 356
346 350 352 351 350 351 356 353 352 356 356 354 345 343 343 344 347 355 358 360 358 355 357 355 355 359 355 353 352 356 349 347 348 347 351 359 360 357 355 357 357 357 356
346 350 349 348 349 349 350 350 350 351 352 351 345 341 341 345 347 349 349 352 350 352 347 343 345 348 349 350 348 351 350 349 346 347 355 358 358 355 354 353 356 357 356
344 347 347 347 348 345 350 350 350 350 349 348 343 338 342 340 346 346 346 348 351 346 345 345 346 347 346 345 347 347 345 347 344 350 355 361 359 356 356 352 351 353 354
341 343 344 346 347 346 345 346 347 347 347 348 346 341 343 343 345 347 349 349 348 348 346 346 346 347 346 341 339 344 345 342 347 351 351 360 361 359 357 355 352 350 351
340 341 343 346 346 347 344 341 343 345 345 349 347 342 347 343 347 348 347 346 346 346 346 345 347 346 341 340 337 343 340 341 344 348 349 354 361 362 360 356 355 354 354
338 340 342 345 346 345 342 341 342 345 346 350 349 348 348 345 349 348 349 348 347 347 345 344 342 343 338 339 337 338 339 339 343 346 349 347 355 362 361 359 358 357 356
336 338 343 346 347 344 347 345 347 344 343 347 352 351 350 351 350 349 349 349 349 351 349 347 345 339 340 340 336 334 337 339 340 342 345 347 349 352 360 360 358 359 356
338 339 342 343 347 343 346 344 345 346 346 347 349 350 351 354 354 349 347 350 349 348 348 343 346 341 339 342 337 333 335 337 339 342 341 343 345 348 349 357 355 358 356
341 341 341 342 347 345 346 343 343 343 345 347 348 348 349 351 355 352 348 346 349 347 345 344 339 340 340 337 335 335 331 334 339 339 341 344 343 343 344 348 348 351 355
342 341 341 341 345 346 344 343 340 338 341 344 345 348 349 351 353 352 351 352 350 348 347 342 341 339 334 331 329 328 327 332 334 338 341 341 341 341 343 344 346 346 349
341 341 341 341 343 346 345 345 344 341 342 344 344 349 351 352 353 352 350 348 349 348 346 345 342 338 334 330 332 325 319 323 329 333 338 340 339 340 340 342 343 343 346
340 341 341 342 342 344 346 344 344 346 343 342 342 346 351 353 354 353 352 350 349 347 346 345 344 339 327 333 334 329 320 317 321 329 330 336 337 336 338 341 342 343 344
341 342 342 344 344 344 347 344 343 343 343 343 341 340 350 352 354 354 352 351 351 348 345 346 346 343 327 327 330 337 334 330 318 318 327 327 332 332 333 341 341 341 342
343 343 342 346 345 346 348 346 343 341 343 342 341 340 345 350 352 354 353 351 350 350 347 347 348 344 336 328 325 330 330 331 328 321 319 323 329 328 334 340 342 340 340
343 343 343 346 346 346 348 347 345 343 342 341 339 339 341 346 349 353 354 352 352 351 349 347 349 344 345 336 335 331 326 325 325 325 323 323 323 326 330 332 338 340 338

GFSSE_sfc_thetae_045.txt.gz
Theta_e
344 349 362 363 362 363 363 363 363 364 363 363 363 362 361 361 361 361 362 360 359 359 360 358 355 353 356 358 356 357 358 360 360 360 360 360 361 361 360 360 359 355 359
348 353 363 365 362 363 362 363 362 364 362 363 362 361 361 361 362 362 361 361 359 360 361 359 356 356 354 356 357 358 359 359 359 359 359 359 359 361 359 360 360 356 359
350 355 359 363 362 362 362 363 363 364 363 363 363 362 362 362 362 362 360 360 361 361 361 360 358 356 358 357 357 357 358 358 358 358 358 351 353 359 360 360 359 358 358
353 354 358 363 364 362 363 363 363 362 362 362 363 362 362 362 362 361 361 360 360 361 360 360 359 356 356 356 356 356 357 358 357 356 347 348 351 360 360 360 359 358 358
352 354 358 364 364 362 362 362 364 363 361 362 362 363 362 363 361 361 361 361 360 359 357 358 357 357 355 356 356 356 356 357 356 349 345 346 349 357 359 358 357 357 357
353 354 362 362 363 361 362 363 363 361 361 362 364 362 362 362 362 362 361 361 360 360 359 358 357 357 356 355 355 355 357 358 353 345 347 351 348 358 358 358 358 357 357
351 356 357 364 364 363 361 362 362 361 362 363 364 362 362 362 362 362 362 362 361 361 360 359 358 357 356 355 356 357 358 355 348 348 348 350 353 360 357 358 358 357 357
353 356 357 363 362 363 361 361 361 361 362 362 362 363 362 362 362 362 362 361 360 360 360 359 358 356 356 356 356 357 358 356 351 349 350 350 357 357 355 358 357 357 357
355 355 356 357 357 362 363 361 361 362 362 362 362 363 362 362 361 362 362 361 360 360 359 359 357 357 356 355 356 357 359 356 347 349 351 351 358 355 355 358 357 357 356
353 354 353 353 352 353 356 361 361 362 362 362 361 361 361 360 361 360 363 364 360 359 358 358 358 359 358 357 357 359 358 356 348 350 350 351 358 356 354 356 357 356 356
352 351 350 350 351 352 353 356 361 362 362 361 360 361 355 348 351 354 358 361 358 358 359 360 359 359 360 360 359 360 358 346 347 349 350 357 358 357 356 356 356 356 355
346 350 348 349 349 351 356 352 352 355 354 353 349 344 344 344 348 354 356 359 357 356 359 351 356 356 355 349 349 357 345 347 348 348 350 358 359 355 357 357 356 355 356
346 350 349 348 348 349 351 350 350 352 352 351 341 340 342 343 346 348 349 351 348 352 346 345 345 347 347 348 348 349 346 346 346 348 353 359 358 354 355 355 356 356 355
345 348 348 347 346 346 347 348 349 349 349 348 344 338 339 343 345 346 345 346 347 344 344 343 344 347 343 345 345 346 347 345 344 347 352 358 358 355 352 355 356 355 354
343 346 347 346 346 345 345 346 347 347 348 348 342 338 340 341 343 345 346 346 346 346 344 345 343 344 342 338 341 346 344 343 346 349 351 358 358 358 353 351 351 352 352
344 344 345 344 345 344 343 342 344 345 346 348 346 341 343 343 345 345 345 344 344 345 344 343 345 344 340 338 337 344 340 343 346 349 350 353 360 359 357 354 352 350 351
342 343 342 343 345 342 342 340 342 344 345 346 347 344 343 343 347 347 345 345 344 345 344 341 339 341 336 336 336 338 339 340 344 347 348 348 354 358 357 356 355 354 355
340 340 341 345 344 342 341 339 341 342 343 344 347 347 346 346 348 347 347 346 346 346 346 346 343 337 337 335 333 335 336 338 340 344 345 346 349 353 358 358 357 356 356
338 338 339 343 343 342 342 341 343 343 342 344 348 348 348 349 351 347 348 348 347 346 345 348 343 339 339 337 333 332 334 336 337 342 342 344 345 347 350 355 357 357 356
337 337 339 342 343 342 343 341 342 343 344 344 346 347 349 351 352 346 346 346 346 346 344 342 341 337 336 335 335 332 332 335 337 338 338 342 342 344 345 347 347 349 354
337 335 338 340 342 342 342 339 337 337 339 343 345 347 348 350 352 349 346 346 348 343 344 340 339 333 330 329 328 326 326 329 333 336 338 339 340 340 341 344 345 345 346
337 335 338 339 341 343 343 343 339 338 339 342 343 346 348 349 351 350 348 347 347 345 344 343 339 336 330 329 326 320 318 322 328 331 337 340 338 339 340 342 342 342 343
338 337 337 339 340 344 344 341 342 342 340 340 340 344 346 349 352 351 349 347 347 345 344 343 341 336 325 330 331 325 318 316 321 327 330 336 337 336 337 339 340 341 342
338 340 340 339 340 344 343 342 340 338 336 336 338 340 346 349 351 352 350 347 347 345 342 344 344 340 326 327 328 336 330 324 318 320 324 327 331 334 334 337 339 340 342
339 340 340 340 339 343 343 342 341 337 336 340 339 339 344 347 350 352 350 348 348 347 345 345 343 341 327 326 324 329 328 329 323 318 316 322 328 329 329 334 339 339 339
340 340 341 340 340 341 342 342 340 339 338 339 338 337 339 345 348 350 351 348 347 348 347 345 345 343 338 331 327 328 326 326 325 322 320 320 322 325 328 333 336 339 338

GFSSE_sfc_thetae_048.txt.gz
Theta_e
342 349 361 361 362 361 363 363 363 362 362 361 361 360 360 361 361 361 361 359 358 359 357 355 353 355 357 358 359 359 360 361 361 361 362 362 361 361 361 360 358 354 359
346 353 362 362 362 362 362 363 363 362 363 363 362 361 360 361 361 361 360 359 359 360 357 356 354 355 356 356 357 358 359 359 360 360 361 361 361 360 360 359 359 356 359
348 354 357 363 363 362 361 364 362 362 362 362 362 361 361 361 360 361 360 359 360 361 359 357 357 357 355 356 357 359 358 358 358 358 360 356 357 360 360 360 359 359 358
351 354 356 361 363 362 362 363 362 362 362 362 360 360 360 360 361 359 360 360 358 358 359 358 356 357 356 356 357 358 357 357 358 356 351 353 355 360 360 360 358 358 358
351 355 356 362 364 361 362 363 361 362 362 362 361 361 361 361 361 361 361 360 358 358 356 357 357 356 354 355 355 356 357 356 356 352 351 354 357 357 359 358 358 358 358
352 355 360 362 361 361 363 363 361 361 361 361 362 361 361 362 361 361 361 359 360 360 359 357 357 356 356 355 355 355 357 357 353 350 353 356 355 359 358 357 356 358 357
350 354 356 364 363 361 363 362 361 361 360 362 362 362 362 361 361 361 361 361 360 360 359 357 357 355 355 355 357 357 358 357 350 351 352 355 357 360 359 358 357 357 357
352 354 356 361 363 361 361 361 361 362 360 362 363 363 362 362 361 362 360 360 360 359 358 357 356 355 356 355 357 357 356 354 352 353 354 355 358 357 358 357 356 356 356
355 354 354 353 360 360 360 360 361 362 362 362 363 363 362 362 362 361 360 360 359 358 358 356 356 356 356 355 356 358 357 356 351 353 352 354 357 356 358 357 357 356 356
353 353 353 351 352 354 354 360 360 361 361 362 362 362 362 362 361 360 357 360 359 359 358 356 357 358 357 357 359 359 357 357 352 353 354 353 356 355 357 357 356 356 356
351 351 351 350 351 352 354 356 360 362 361 361 360 360 355 352 355 357 359 359 358 359 359 359 359 361 360 358 359 358 356 351 352 352 354 356 357 355 355 356 356 356 355
347 350 349 349 350 351 357 354 354 357 355 355 353 348 348 349 352 355 357 357 357 358 355 357 358 358 354 353 359 358 350 351 353 352 354 357 359 357 355 356 355 355 354
344 350 348 349 350 351 353 351 352 353 354 352 347 345 347 347 350 351 352 353 352 352 348 348 349 351 351 351 352 349 350 350 352 353 355 357 357 355 352 355 355 355 355
344 347 348 348 348 348 350 350 350 351 352 350 345 341 343 345 348 350 350 350 351 348 347 348 349 350 346 351 349 351 350 349 349 352 355 358 358 353 354 356 356 354 353
343 347 348 347 347 347 346 349 349 349 350 350 347 340 343 344 347 350 349 348 350 350 348 349 350 349 346 343 348 349 349 347 349 351 354 355 358 355 350 352 353 352 352
344 346 347 346 346 345 344 346 347 347 349 349 344 341 343 344 347 348 347 349 348 350 348 349 351 347 344 342 345 349 347 347 350 352 354 358 358 358 352 350 350 350 350
343 345 345 344 345 343 343 343 345 347 348 348 349 346 343 346 347 350 350 349 348 350 349 348 344 345 342 341 344 346 345 348 349 351 354 355 357 356 356 355 354 352 351
343 343 344 346 344 342 342 342 343 345 346 346 349 349 346 348 347 351 351 351 349 350 350 350 349 343 342 341 341 342 343 345 348 350 351 352 355 357 357 355 354 355 355
342 342 341 342 341 342 342 341 341 344 344 345 348 349 348 349 351 351 351 352 352 352 351 351 348 345 343 341 338 339 340 341 343 346 348 349 351 353 354 355 357 356 355
342 341 340 341 341 341 341 342 343 344 345 345 347 349 350 350 353 350 351 351 351 352 350 347 346 341 343 339 336 335 338 341 342 344 343 346 348 350 351 352 354 353 355
340 338 338 340 340 340 340 339 340 341 344 346 347 351 351 352 354 349 350 349 352 350 350 347 344 339 336 337 335 333 333 335 340 343 343 343 344 347 347 349 350 351 351
337 336 337 340 340 342 342 342 342 340 342 346 347 349 351 352 355 352 350 350 352 350 347 347 346 342 335 336 332 330 327 332 334 337 342 343 343 345 345 346 348 348 349
335 335 337 339 340 343 343 342 342 342 342 343 344 346 348 351 354 354 352 351 351 349 347 348 346 343 333 337 338 332 326 325 328 333 337 341 343 343 344 345 345 346 347
337 337 337 339 339 343 344 342 341 339 337 339 342 345 348 351 352 354 353 351 351 349 349 350 348 344 336 336 336 340 335 332 328 330 333 335 339 341 342 343 344 345 347
339 338 337 338 339 342 343 343 342 341 339 340 341 343 346 349 351 354 353 352 351 351 350 350 349 346 336 335 335 337 336 334 329 328 328 331 335 338 340 341 343 345 346
340 339 339 338 338 341 343 343 341 341 338 339 339 340 342 347 349 352 354 352 352 353 351 349 350 347 342 337 335 337 336 336 333 329 327 328 330 335 336 337 340 343 346

GFSSE_sfc_thetae_051.txt.gz
Theta_e
349 357 362 362 363 364 362 363 363 362 362 363 363 361 360 359 359 361 361 359 358 358 356 355 356 357 359 359 359 360 360 361 363 363 362 361 361 361 360 360 361 356 360
350 357 362 363 363 364 364 364 363 363 362 361 361 361 361 361 362 361 359 358 360 358 356 355 356 357 356 357 359 359 361 361 361 362 361 361 361 360 361 360 360 358 359
353 355 360 364 364 363 363 364 363 363 363 362 362 361 362 361 361 360 358 359 360 358 357 358 356 355 358 359 359 359 360 359 360 360 359 358 358 360 359 360 360 358 358
353 354 358 363 364 362 363 364 364 362 362 362 361 361 361 360 361 360 359 358 358 359 358 357 357 357 357 357 358 357 358 360 359 359 357 356 356 359 359 359 358 358 358
354 355 359 364 362 363 362 363 364 363 362 360 360 361 360 361 359 359 358 357 358 356 358 358 356 356 356 356 358 358 358 357 357 356 358 359 358 359 359 359 358 358 359
354 354 360 363 361 363 363 363 363 362 361 361 361 360 361 361 360 360 359 359 359 359 357 357 357 357 355 354 356 357 357 356 355 356 357 357 357 358 358 356 358 358 357
351 355 359 364 363 362 363 361 363 361 361 361 361 361 362 362 362 360 361 360 360 359 357 357 357 356 355 356 355 357 358 355 355 356 356 358 358 358 359 359 358 357 357
350 354 358 362 362 361 363 361 362 362 361 362 362 364 364 361 362 362 361 359 359 357 356 355 356 357 355 356 358 358 356 352 352 355 357 357 357 360 358 357 357 357 355
351 355 356 360 360 362 362 361 363 362 362 361 363 364 363 363 362 362 360 359 358 357 356 356 356 357 356 357 359 358 357 355 356 356 352 353 358 358 358 357 357 357 357
350 355 355 361 355 357 358 361 362 362 363 363 363 363 363 362 361 360 361 359 359 357 356 357 357 357 358 359 359 359 357 355 353 353 353 353 358 357 357 357 356 355 356
349 354 353 357 357 360 359 359 359 362 362 362 363 363 361 360 359 357 359 359 358 358 358 357 357 359 359 359 359 358 355 352 350 352 352 355 356 355 357 357 356 355 356
346 352 352 355 356 357 355 361 362 360 359 360 361 361 360 360 360 357 358 359 358 357 357 359 358 358 356 354 356 356 353 354 351 351 354 357 358 356 355 356 355 355 355
346 351 353 354 358 356 357 358 358 359 359 361 359 357 358 360 361 358 358 359 358 354 355 355 356 354 353 353 355 354 355 355 353 351 354 358 356 356 358 355 354 355 354
347 350 354 354 357 358 358 357 358 357 358 356 356 356 358 357 359 362 356 357 358 357 358 358 356 357 355 356 354 355 355 355 354 351 354 355 354 352 353 355 356 355 355
344 347 353 355 356 358 359 357 358 358 357 356 354 351 356 356 358 358 358 357 359 361 359 359 359 355 356 355 354 355 355 356 354 352 353 355 354 351 351 354 354 353 353
345 348 353 355 355 357 356 359 357 357 357 357 357 352 352 356 358 359 360 359 359 360 359 361 359 353 353 352 355 355 355 355 354 353 353 354 353 354 350 348 349 349 350
347 350 352 354 354 355 356 357 356 356 355 355 354 353 352 356 358 361 359 358 357 359 360 359 356 353 350 351 356 355 355 355 352 353 355 357 356 354 354 351 350 350 350
347 350 352 351 351 353 353 354 353 353 354 357 358 359 356 356 359 362 359 358 359 359 360 357 353 349 349 349 351 352 354 354 352 353 355 357 359 356 355 354 353 355 354
348 349 351 352 350 351 353 352 352 353 353 355 357 357 360 358 358 362 363 361 361 360 358 358 356 352 348 347 348 350 351 349 350 350 353 355 356 355 357 356 356 355 354
349 350 351 351 352 353 352 353 351 349 352 355 355 356 359 359 359 361 364 362 360 361 358 356 357 348 353 350 343 346 349 351 351 353 352 351 354 355 356 357 357 355 353
350 350 350 350 352 350 348 347 347 346 350 353 356 359 361 360 361 362 361 362 360 365 363 356 352 350 344 347 343 343 339 342 349 351 354 353 351 353 354 355 355 354 353
348 350 350 350 352 351 349 352 351 352 353 357 358 359 361 361 363 362 361 359 362 361 359 358 356 345 345 346 343 341 336 339 345 347 351 351 353 354 354 352 354 355 354
345 348 349 351 352 352 354 352 352 354 354 352 355 356 359 361 363 365 363 360 363 367 356 359 356 352 341 347 347 342 333 331 339 345 346 349 352 351 353 353 351 353 355
345 347 349 352 352 353 355 352 354 348 346 350 354 356 359 362 362 364 365 363 362 362 362 359 358 355 349 344 346 349 345 343 335 333 343 345 349 349 350 351 350 351 353
345 345 347 352 354 355 355 356 351 352 350 352 352 357 361 362 362 361 364 363 361 360 363 361 361 359 350 346 344 347 349 344 343 338 334 339 344 346 349 349 348 349 353
346 345 346 351 353 355 355 355 357 356 354 350 351 350 352 355 357 361 362 363 363 362 362 361 362 361 355 348 346 348 345 344 340 338 336 340 338 344 346 348 348 348 350

GFSSE_sfc_thetae_054.txt.gz
Theta_e
353 355 362 362 362 361 361 361 362 363 363 365 363 362 360 359 360 362 360 359 358 356 356 357 358 360 360 360 361 361 361 362 363 362 361 361 361 360 360 359 360 355 360
353 355 364 365 363 363 363 362 362 362 362 362 361 360 360 362 362 361 359 361 359 358 356 357 358 356 359 360 361 358 359 362 360 361 362 362 361 359 361 359 361 358 359
349 357 360 363 364 363 364 364 363 362 362 361 361 361 362 362 361 359 360 361 359 358 359 356 356 358 359 358 359 360 360 361 361 360 359 358 358 359 361 360 359 359 358
349 355 356 362 363 363 364 364 364 364 363 362 362 362 362 362 361 359 358 358 360 359 358 359 358 357 359 359 358 359 360 360 360 358 357 356 355 359 360 359 359 358 358
349 354 360 363 365 363 364 363 363 363 362 362 362 361 361 361 360 359 358 359 358 360 359 357 357 358 356 358 358 358 359 358 356 357 358 359 361 359 359 359 358 358 359
349 353 362 362 363 363 364 363 363 363 362 361 361 360 361 361 360 359 359 360 359 357 358 358 358 356 355 357 358 357 357 355 358 356 357 357 356 359 358 359 359 358 357
348 354 360 364 363 363 363 363 363 362 361 362 362 362 361 361 361 361 360 360 359 358 358 357 357 357 356 356 357 358 355 353 354 356 356 357 358 360 359 359 359 358 357
348 352 356 362 363 364 363 363 362 361 362 362 362 361 362 362 362 361 360 359 357 357 356 357 357 357 357 358 360 358 354 352 353 354 356 352 359 360 358 358 358 356 354
350 351 354 359 362 362 362 363 363 362 362 362 363 363 364 363 362 360 360 358 357 357 356 357 357 357 358 360 359 357 354 354 354 353 351 352 359 359 358 358 358 357 357
349 350 354 355 360 358 359 363 363 362 361 361 362 364 363 362 359 357 360 359 357 357 356 356 357 358 358 360 360 357 357 356 349 350 351 353 359 358 358 357 356 357 357
347 350 354 351 355 358 359 361 363 363 363 364 363 363 362 355 355 358 360 359 358 357 357 356 357 359 360 360 359 357 358 348 347 349 349 355 359 358 357 357 357 356 355
344 347 352 352 354 356 355 360 361 360 359 359 359 361 356 358 358 356 359 359 359 358 359 357 358 358 360 355 355 357 352 351 348 351 351 355 357 356 356 357 356 356 356
344 346 349 352 356 354 357 357 357 357 358 360 363 361 359 357 355 357 357 358 357 359 355 356 357 354 352 352 355 353 353 353 348 350 354 357 356 356 356 356 356 354 355
343 347 348 353 356 356 357 355 355 354 356 355 356 362 360 356 356 358 357 357 359 357 358 358 355 356 358 358 355 354 353 352 349 348 354 354 355 353 355 356 356 356 355
343 347 348 353 358 358 359 356 355 355 354 353 356 359 358 356 358 356 359 361 359 359 356 357 356 356 358 355 355 355 353 353 351 350 352 355 353 351 354 355 354 354 353
343 346 350 352 356 358 358 361 358 357 357 356 354 355 361 358 360 358 361 360 359 358 357 357 357 353 351 351 355 355 354 353 353 355 352 353 355 351 349 349 349 350 350
345 347 350 352 354 357 359 360 358 357 356 356 356 359 358 361 364 364 359 364 359 362 362 359 356 355 347 348 354 355 354 353 353 354 356 354 354 356 353 350 349 349 349
346 347 351 349 351 355 357 358 355 355 355 354 355 357 360 362 365 364 362 357 360 357 353 352 350 347 346 347 349 351 352 351 353 354 355 354 354 354 354 354 353 354 353
347 349 351 351 350 353 357 356 356 358 357 358 358 359 364 362 363 360 357 358 364 354 353 349 348 347 345 343 346 349 351 349 352 349 352 356 354 354 352 356 355 354 353
348 351 352 351 353 355 354 356 354 355 357 358 358 359 365 363 363 360 360 360 360 353 351 351 352 354 348 347 341 345 348 350 353 351 349 349 350 354 353 356 355 354 355
348 350 352 352 355 353 350 349 351 350 353 355 357 362 364 363 364 363 359 359 357 356 358 360 354 354 347 350 342 343 347 350 349 352 353 351 349 352 353 354 353 352 353
348 350 352 353 355 355 349 351 352 353 353 355 359 363 365 364 366 364 365 360 358 353 358 358 357 348 347 348 342 340 335 337 343 346 350 351 351 353 352 350 352 355 352
347 350 352 355 356 356 356 351 354 356 357 356 358 358 363 365 365 367 366 365 361 359 352 356 359 354 343 348 352 341 332 332 338 344 347 348 352 349 353 352 352 352 354
346 352 354 356 357 357 358 354 360 352 349 350 354 355 359 365 365 366 367 366 363 361 361 356 358 356 353 344 347 346 351 347 334 335 342 345 348 347 350 350 349 350 352
346 348 353 358 360 361 360 360 352 356 349 351 352 362 366 367 366 364 367 367 366 359 361 362 362 360 352 348 343 345 349 343 347 337 335 339 344 346 347 348 348 349 352
347 348 351 357 360 360 359 355 361 360 358 350 355 353 354 356 361 366 365 367 367 362 361 361 362 362 359 355 348 349 343 341 341 340 337 341 339 345 347 347 348 348 349

GFSSE_sfc_thetae_057.txt.gz
Theta_e
353 357 359 361 362 362 361 362 363 364 364 364 363 361 360 360 362 361 360 359 356 356 358 358 361 360 361 361 361 361 362 362 362 361 362 362 361 361 359 358 363 355 359
353 356 361 362 362 361 361 362 363 364 364 364 362 360 361 363 362 359 360 359 358 357 359 359 357 360 360 360 358 359 360 361 362 362 361 361 360 360 360 363 363 358 360
350 357 360 363 363 363 362 362 362 362 362 361 361 361 362 362 359 360 360 360 359 359 357 358 358 357 359 360 360 359 360 361 360 360 357 356 357 360 360 360 360 360 358
349 350 355 364 364 364 364 364 362 362 361 361 362 363 362 361 360 359 358 359 359 360 360 359 358 360 359 359 360 361 361 360 359 357 357 356 353 359 360 359 359 358 359
348 352 361 363 364 364 363 364 363 363 363 362 363 361 362 360 360 359 359 359 361 359 358 359 357 357 359 359 359 360 358 358 356 356 355 361 354 357 358 359 357 358 360
347 353 362 364 363 363 363 363 363 362 363 363 361 362 361 361 360 359 360 359 358 359 359 358 357 357 357 358 357 357 356 356 361 356 356 356 355 359 359 360 359 359 357
348 354 358 364 364 364 364 363 363 363 362 361 361 362 362 361 361 361 361 360 358 358 358 357 357 357 356 357 358 354 353 354 357 356 355 355 357 359 359 358 358 357 355
347 350 358 363 363 364 364 363 362 362 362 363 362 362 361 361 361 360 359 358 358 357 358 358 357 358 359 358 358 353 353 355 354 355 354 354 357 358 358 358 356 354 356
348 350 357 360 362 364 362 363 362 362 362 362 362 362 362 362 361 359 359 358 357 357 357 357 357 358 359 359 357 354 352 358 355 354 350 354 358 358 358 358 357 357 357
347 348 354 358 357 358 361 363 363 362 362 362 363 363 362 359 357 357 361 360 357 357 357 357 358 358 360 359 356 355 358 358 347 349 352 355 358 358 358 357 358 357 356
344 346 349 352 354 357 361 363 363 362 362 364 363 363 362 354 356 356 360 359 357 357 356 357 358 359 360 360 358 358 358 349 347 347 349 357 359 358 358 358 357 356 355
342 345 345 349 351 354 353 362 362 360 359 357 354 362 359 358 360 355 359 359 358 358 357 357 358 359 360 355 356 359 352 347 348 347 352 360 359 358 358 357 356 356 356
343 344 346 349 353 352 355 356 355 355 357 358 359 359 357 354 354 355 356 357 357 359 354 354 355 356 355 354 354 349 348 346 347 349 356 360 358 358 356 357 355 356 354
343 343 346 351 353 356 353 352 360 354 354 352 355 359 357 360 357 357 354 358 356 357 356 355 351 355 356 352 352 353 349 346 345 349 354 359 358 356 357 357 357 357 355
342 343 346 352 356 358 367 360 357 353 351 352 356 358 356 355 355 358 359 354 353 354 351 352 357 357 352 352 354 354 348 349 347 350 350 354 353 355 357 357 354 354 353
344 344 348 351 356 357 361 366 359 356 356 351 352 355 359 362 359 360 358 356 361 360 359 358 360 354 354 350 353 354 351 350 353 353 350 354 354 351 351 351 351 350 350
343 346 348 351 354 357 360 358 358 358 352 356 352 360 359 362 362 363 356 357 360 359 360 356 352 349 345 350 352 355 349 354 351 354 355 353 355 355 353 352 351 350 350
344 346 349 349 352 355 358 358 356 357 355 357 355 357 360 362 364 364 359 357 355 359 354 349 351 352 345 351 349 351 351 350 351 352 353 356 355 355 355 356 355 354 353
345 347 349 351 351 354 359 358 357 360 359 358 356 359 363 363 362 361 358 358 362 356 353 354 357 351 343 345 346 348 352 347 353 345 349 353 352 353 356 358 357 355 354
346 348 350 350 357 361 358 359 354 354 356 361 356 360 365 363 361 362 361 359 360 357 350 357 352 355 348 346 340 344 349 347 347 347 345 346 347 349 354 356 355 353 357
346 347 351 354 363 356 353 351 351 350 355 356 359 363 365 364 362 364 361 359 360 359 350 356 348 351 343 345 340 341 342 344 346 345 345 346 346 347 347 349 352 355 354
345 348 355 356 364 359 354 357 356 357 352 353 355 363 363 362 364 362 361 359 361 358 359 357 357 347 346 347 344 342 336 338 341 344 344 344 346 348 347 347 349 350 349
345 348 355 360 363 361 362 357 358 359 357 352 357 356 361 363 363 365 363 365 362 363 354 358 357 363 347 344 352 347 334 332 338 341 344 345 348 348 348 349 348 349 351
345 349 357 359 363 361 364 356 362 351 348 350 355 355 359 364 363 363 365 363 366 362 366 360 358 360 359 345 343 343 354 346 339 338 342 343 346 346 349 348 349 349 351
346 349 351 361 364 364 362 362 355 357 351 351 351 368 373 371 365 361 366 364 364 359 363 361 361 363 354 353 343 342 349 341 350 343 336 338 343 345 346 349 347 348 353
346 348 353 361 365 366 364 362 364 358 359 348 352 355 352 358 360 365 364 369 366 364 363 362 364 362 365 358 353 349 343 342 341 338 335 341 338 342 344 346 347 347 348

GFSSE_sfc_thetae_060.txt.gz
Theta_e
352 354 360 360 361 361 362 363 364 365 364 364 364 361 361 363 361 361 361 358 357 359 359 362 361 362 363 362 362 363 364 365 365 364 363 362 363 362 362 362 362 354 360
352 355 362 364 363 361 363 364 364 366 363 364 363 362 362 362 360 360 360 359 358 360 359 358 361 361 361 359 360 361 363 365 364 362 361 362 359 360 363 362 361 356 360
352 357 360 364 362 362 362 363 363 364 364 364 363 363 363 360 362 360 360 360 358 359 359 359 359 361 361 360 360 361 362 362 360 359 364 353 356 360 361 361 360 360 358
353 356 357 364 366 363 363 363 363 362 362 363 364 363 363 361 360 360 360 360 361 361 361 360 360 359 360 361 362 362 361 361 358 360 356 351 353 360 360 359 359 358 357
347 352 359 365 366 364 364 365 364 363 363 363 363 363 362 362 362 360 360 361 359 360 359 357 359 359 360 360 359 359 359 358 358 360 353 353 352 357 358 358 358 359 359
349 354 362 366 365 365 363 363 363 363 363 363 363 362 362 362 361 360 359 359 360 360 359 358 357 358 358 357 357 358 358 361 358 353 351 356 354 358 359 359 359 359 358
351 355 358 366 364 365 363 365 364 363 363 362 363 363 363 361 361 361 361 359 360 359 358 358 358 357 357 357 355 355 357 360 356 354 353 353 355 361 358 358 356 357 358
348 351 357 363 363 363 364 364 363 363 363 364 363 363 362 364 363 361 359 359 359 359 359 358 359 359 358 357 353 354 354 359 355 353 352 352 357 360 359 356 356 357 354
347 352 354 356 362 363 363 364 364 364 364 365 365 364 365 364 361 361 361 360 359 359 358 359 358 359 359 357 353 354 356 362 352 350 351 353 358 359 357 358 358 357 357
347 349 354 354 357 358 359 363 363 364 365 363 363 365 364 363 359 359 363 362 359 358 358 359 360 360 359 358 355 356 358 358 349 351 352 355 359 359 358 358 358 356 357
344 348 350 350 356 361 361 361 363 363 363 364 362 363 361 354 356 356 362 363 358 358 358 358 359 361 359 357 357 357 358 353 345 350 352 359 360 358 358 357 355 356 355
339 343 346 350 353 357 353 362 362 360 359 359 358 356 360 363 359 354 359 364 360 359 358 358 359 357 357 355 355 358 355 346 347 350 354 360 361 358 357 356 356 356 355
340 340 347 353 354 355 356 360 358 358 360 359 362 356 359 360 358 351 358 355 357 360 353 356 356 358 354 356 352 354 352 348 349 351 357 361 360 356 358 355 357 355 354
341 339 346 350 360 354 356 358 351 359 358 355 357 361 367 358 352 347 354 362 352 358 356 349 355 354 347 349 355 348 347 346 347 350 357 361 361 357 356 356 357 355 355
339 341 346 351 358 357 361 361 355 351 355 357 358 365 351 357 353 352 354 352 352 356 351 351 352 355 349 351 354 351 348 350 345 347 352 360 361 360 358 355 355 354 354
340 345 350 351 358 359 359 359 351 357 354 355 355 357 352 359 356 356 354 354 348 353 359 358 352 354 345 351 347 352 348 352 349 348 348 352 357 358 359 354 353 351 351
342 346 349 351 355 362 360 365 366 360 358 355 359 363 365 358 361 365 355 363 362 347 363 354 357 353 351 350 351 350 355 353 351 353 348 350 353 357 356 355 353 352 351
344 348 348 346 351 357 356 368 355 364 359 361 362 361 365 367 367 355 353 348 356 364 346 346 354 347 349 346 349 345 348 352 353 354 355 352 353 351 356 357 356 355 352
348 351 349 354 353 355 363 363 350 361 361 353 361 360 369 366 369 352 348 352 366 353 358 350 356 354 340 349 343 346 349 350 346 349 354 356 356 351 352 358 359 359 355
348 351 351 354 358 360 362 366 360 357 358 367 363 360 368 367 367 365 362 367 368 350 355 358 348 353 350 343 340 342 342 350 349 351 347 351 353 355 354 352 354 353 358
347 348 354 357 359 357 357 355 351 353 349 362 358 359 369 368 368 371 367 364 360 346 354 359 356 349 346 348 344 346 346 346 345 350 348 347 347 351 353 355 353 353 351
346 348 354 357 359 357 357 359 361 352 351 348 360 362 366 366 368 368 367 366 356 354 359 359 347 347 354 351 346 342 336 339 345 337 348 346 347 346 347 349 352 353 354
345 348 351 357 358 357 362 359 365 366 359 351 360 361 365 368 366 370 369 369 367 363 361 360 353 358 351 347 352 345 337 329 339 345 344 347 348 343 349 350 350 350 350
346 350 352 357 360 357 363 357 362 356 356 354 358 356 362 368 367 368 369 370 370 356 364 363 362 359 345 349 351 349 349 345 336 333 346 347 347 346 348 352 348 349 352
348 348 352 356 360 357 358 362 357 358 355 359 355 355 364 370 369 365 367 369 365 366 367 366 363 363 361 349 352 348 350 349 350 340 334 341 346 349 351 350 350 349 352
346 348 352 354 357 359 357 358 361 355 360 358 358 354 359 362 365 369 367 369 371 366 363 366 367 366 364 363 354 355 346 343 343 343 339 340 341 344 348 350 348 348 352

GFSSE_sfc_thetae_063.txt.gz
Theta_e
349 356 363 360 360 360 361 363 364 365 363 364 361 361 363 361 362 359 358 358 359 361 362 362 363 362 362 363 364 363 363 365 366 364 363 360 362 362 362 361 359 355 359
350 355 363 363 362 362 363 363 364 364 363 363 362 363 362 362 360 360 360 358 361 361 360 362 362 360 360 362 362 363 363 364 365 364 361 361 361 362 363 360 359 356 359
351 357 360 363 362 362 364 363 363 364 362 364 364 364 361 362 361 361 361 359 359 360 359 360 361 361 360 361 362 362 361 361 362 362 361 354 354 361 360 360 359 358 358
354 356 357 363 363 362 363 365 366 363 362 364 363 364 363 361 361 360 361 361 361 362 360 359 360 361 361 363 362 361 359 360 361 363 351 351 352 360 359 359 356 356 358
353 354 357 366 365 363 362 364 364 364 363 363 363 363 361 361 361 362 360 359 361 359 359 360 359 360 360 360 360 360 360 361 362 355 350 349 350 356 359 359 358 358 357
353 357 363 366 364 364 364 364 363 363 364 363 363 362 362 362 360 359 361 360 360 359 358 358 359 358 359 359 360 360 361 361 360 352 352 355 351 360 359 358 359 358 357
352 357 360 367 366 364 363 364 363 364 363 362 364 362 362 361 361 360 359 360 359 358 358 357 357 358 358 357 358 358 360 362 350 350 351 351 353 359 358 355 359 358 353
352 356 358 364 364 364 364 363 364 362 363 363 364 361 362 363 361 360 359 360 359 359 359 358 358 357 357 355 356 357 362 363 352 350 350 351 358 360 358 358 357 353 354
351 353 356 357 361 363 365 364 363 364 362 363 362 362 362 361 360 360 360 360 359 359 358 358 358 357 357 356 355 358 359 361 349 350 351 352 359 356 358 356 357 357 357
350 351 352 355 356 355 357 363 364 364 364 363 363 362 361 361 360 360 363 363 359 358 358 358 357 357 355 355 355 358 361 358 350 350 352 353 359 359 358 358 356 357 357
346 346 351 353 352 354 355 359 364 364 363 363 362 361 357 349 351 355 360 362 359 358 358 358 359 358 358 358 357 355 358 349 348 350 351 357 360 358 358 355 357 353 354
343 345 347 350 352 353 356 355 355 356 356 355 354 353 352 351 348 354 359 363 358 359 358 359 360 359 356 351 350 354 352 347 349 350 352 360 361 357 358 357 356 356 354
343 345 344 350 351 349 353 354 354 353 353 350 351 352 350 353 348 351 352 351 350 357 351 356 353 349 351 351 351 350 348 346 348 351 357 361 360 356 356 357 356 353 354
338 343 346 347 350 348 353 353 352 352 352 349 349 350 351 348 342 342 348 353 349 350 348 345 350 352 351 347 346 349 347 349 348 350 357 361 359 358 357 355 355 355 354
339 343 343 348 347 352 350 347 347 348 350 349 348 348 349 349 344 347 350 347 347 350 349 345 347 347 344 345 347 345 343 344 347 350 350 360 361 359 357 357 355 356 354
340 340 345 345 346 349 344 348 347 347 348 350 347 345 346 348 346 348 348 349 347 346 348 344 347 350 346 345 343 346 342 342 344 347 349 354 361 361 358 354 355 353 352
339 342 345 343 346 350 347 348 346 351 350 346 349 348 349 351 345 350 350 348 347 350 353 345 349 345 343 344 344 344 346 343 343 345 345 346 352 360 358 355 355 354 351
341 341 343 348 350 349 347 352 346 347 350 351 351 351 353 354 350 349 344 348 348 350 344 340 346 342 345 342 343 345 345 346 346 345 346 347 347 347 356 357 357 356 353
341 341 340 342 346 345 348 349 344 346 348 344 350 351 353 355 352 346 342 346 352 344 343 345 342 344 337 338 340 339 340 345 347 347 347 348 347 347 347 356 357 357 354
341 340 341 345 346 346 348 348 347 347 350 354 353 352 357 353 353 350 348 342 349 345 344 348 338 341 340 339 341 340 339 341 342 343 346 351 349 347 347 348 352 353 359
341 340 342 345 346 349 349 346 346 344 342 350 351 356 357 355 357 351 352 351 349 341 342 349 343 342 338 340 336 338 337 339 341 341 341 343 346 348 348 345 348 347 350
341 339 343 347 347 349 347 348 346 347 345 346 352 350 358 356 356 354 349 351 350 345 344 343 343 336 343 338 335 334 329 329 336 334 339 339 338 347 348 349 348 347 344
339 342 344 349 347 349 347 347 351 348 345 343 350 352 355 358 356 357 353 352 347 350 348 345 345 347 339 340 336 336 330 325 332 336 332 336 335 340 339 341 348 345 346
339 343 347 349 348 348 350 345 345 346 341 344 349 351 355 357 356 357 356 354 351 347 349 347 350 346 339 335 340 338 338 334 329 324 334 337 336 339 339 340 341 340 342
341 341 347 350 349 347 349 346 345 345 349 346 350 352 353 356 356 356 355 356 353 349 350 350 347 350 348 345 340 336 336 333 338 330 325 332 336 337 339 341 340 341 341
342 341 345 350 347 347 348 350 345 346 345 347 347 349 353 355 355 359 356 355 353 353 351 351 353 349 347 349 347 344 333 331 332 332 330 330 330 334 339 340 338 342 343

GFSSE_sfc_thetae_066.txt.gz
Theta_e
346 351 361 359 360 361 363 364 362 363 360 359 362 361 361 361 357 357 358 358 362 362 363 363 362 363 364 363 362 363 363 364 364 362 360 360 359 360 361 359 358 353 355
352 357 363 362 361 361 363 363 363 363 360 360 364 360 363 360 358 358 360 361 358 361 362 361 361 362 362 364 364 363 363 365 365 363 362 361 360 359 360 357 358 355 353
352 355 359 364 363 363 364 364 363 362 361 362 363 361 362 361 361 361 358 359 360 358 360 360 361 361 361 363 362 361 361 363 364 361 360 353 353 359 359 358 359 357 356
354 356 358 363 364 363 362 364 364 362 362 363 361 362 362 361 361 362 360 361 360 360 360 361 360 361 362 361 360 360 360 362 363 358 350 350 351 358 356 355 358 355 356
354 355 357 364 365 363 364 364 364 362 362 362 362 362 361 360 361 359 360 360 360 360 360 361 360 360 360 359 359 359 362 362 360 353 349 348 350 356 359 359 357 356 351
353 355 363 364 362 362 363 363 363 363 363 363 362 362 361 360 361 360 359 359 358 358 360 359 359 360 360 360 360 360 362 360 358 351 351 354 352 358 358 358 357 354 351
353 357 360 366 366 364 363 363 363 362 363 362 362 361 361 360 359 361 360 359 358 357 357 357 358 358 359 359 359 360 364 359 350 350 350 350 353 358 358 358 357 352 351
354 357 359 364 365 365 364 364 363 363 362 363 362 361 362 361 360 359 359 359 358 359 358 357 357 357 358 358 359 363 360 358 351 349 350 351 358 358 357 357 352 355 356
356 355 356 357 361 364 365 363 363 363 363 363 362 363 361 360 359 359 360 359 359 358 357 357 356 356 356 357 357 363 359 357 348 349 351 351 357 355 355 354 356 356 354
353 354 353 354 354 355 358 363 364 363 363 363 362 361 361 361 360 360 361 361 359 358 358 357 358 357 357 356 356 361 360 357 348 349 350 353 359 358 357 355 356 355 355
351 351 352 352 352 353 355 359 364 364 363 362 361 360 359 350 351 353 359 361 359 359 358 358 358 358 358 358 356 357 356 347 349 349 350 357 359 357 357 357 354 353 353
343 348 350 350 351 352 357 355 353 356 354 354 353 352 349 348 349 353 357 360 359 358 359 359 358 358 355 349 349 353 350 347 348 349 351 360 359 357 355 354 353 354 354
342 347 349 350 351 350 353 352 352 352 353 351 350 349 348 348 349 349 350 350 349 355 350 353 348 348 346 349 348 347 346 348 347 350 356 360 360 356 355 355 355 353 354
341 344 347 350 349 348 352 352 351 351 351 348 347 349 347 345 342 346 347 349 347 349 346 347 347 349 349 348 344 345 344 347 346 349 354 360 359 356 354 356 353 353 353
341 341 346 348 346 347 351 349 350 348 349 347 347 349 348 343 342 347 347 345 346 348 345 340 343 345 345 343 345 345 347 347 348 351 350 357 359 359 356 355 355 354 353
341 341 345 346 346 348 347 346 344 346 348 347 345 346 346 347 344 347 345 345 345 345 346 344 345 346 345 344 341 342 342 346 348 348 349 352 360 360 357 355 354 354 352
341 342 344 345 348 347 344 346 343 344 347 345 344 341 347 347 346 348 343 344 344 344 346 342 345 346 342 342 344 340 339 340 345 347 348 349 355 359 357 354 354 353 352
340 342 344 348 347 344 345 345 348 347 347 345 347 346 351 348 347 347 345 345 347 347 344 340 344 340 340 341 341 342 341 341 340 343 344 345 346 350 357 358 357 354 352
342 342 341 344 346 344 349 344 346 347 347 347 347 348 352 351 351 343 343 344 348 344 340 339 341 341 338 338 338 339 340 343 341 343 343 343 343 344 344 354 357 357 353
341 341 342 346 343 343 346 344 341 344 345 346 346 348 352 351 347 346 341 344 344 341 342 344 335 339 338 337 339 338 337 340 343 341 344 346 344 346 344 345 349 351 357
340 338 340 342 340 344 342 342 340 341 345 348 348 351 352 352 352 349 348 347 345 340 342 342 339 341 336 337 334 334 335 338 338 339 342 344 346 347 345 345 346 348 349
337 339 340 342 341 346 343 344 343 343 344 348 349 352 353 352 353 350 348 347 345 339 344 339 336 336 339 335 331 330 324 325 332 336 338 340 340 346 346 346 344 345 343
336 338 341 342 342 346 345 346 347 345 342 343 346 346 353 353 354 351 350 349 345 343 343 341 340 340 335 337 333 334 324 321 327 331 332 334 336 340 344 345 346 345 344
336 339 343 344 342 345 344 343 344 341 337 338 345 348 350 354 353 354 352 349 347 345 345 344 349 341 335 332 336 335 334 330 322 322 329 334 333 338 338 338 343 345 344
338 338 345 344 344 345 344 342 343 341 341 341 345 346 349 352 352 353 353 351 346 345 346 346 344 346 344 341 337 336 332 331 332 326 323 329 333 334 336 336 337 338 338
340 340 346 344 343 345 345 342 342 343 343 342 342 345 347 351 351 352 352 351 349 347 347 348 347 346 345 345 343 341 334 330 328 330 326 327 328 330 335 337 337 338 339

GFSSE_sfc_thetae_069.txt.gz
Theta_e
342 349 359 359 361 362 361 361 360 358 360 362 359 361 358 357 356 357 359 362 361 362 362 362 362 362 361 362 361 362 362 361 360 361 360 359 359 359 359 359 355 350 357
344 353 361 361 361 362 363 361 361 358 360 362 360 362 358 357 358 361 358 358 361 361 361 362 362 362 362 361 362 363 361 361 360 361 360 359 359 357 356 358 355 349 356
348 355 358 363 362 362 363 362 361 359 361 361 360 360 359 360 358 359 358 358 359 360 360 360 361 362 362 362 362 361 361 361 361 361 360 352 352 359 358 358 355 353 351
352 354 357 363 364 363 363 362 360 360 363 360 361 361 360 361 359 358 360 359 358 359 360 360 360 361 361 360 360 360 361 361 359 358 349 350 350 354 357 357 354 358 357
352 354 356 363 364 363 362 362 361 361 362 360 362 359 360 360 360 360 360 359 359 359 359 359 360 361 360 359 359 358 360 359 358 353 349 349 347 355 357 358 351 353 356
353 354 360 362 362 363 363 362 362 361 361 360 361 360 360 360 358 359 358 358 359 358 359 359 359 359 360 359 359 360 361 359 357 351 351 355 351 356 356 356 351 351 352
351 355 357 364 362 363 363 362 362 361 361 361 359 360 359 360 359 359 359 357 357 357 357 357 358 359 359 359 359 360 360 358 349 349 349 350 351 359 357 356 351 349 350
354 356 358 362 362 362 362 363 362 361 361 361 360 360 359 359 359 358 358 358 357 356 356 357 358 358 359 359 362 360 360 357 351 348 349 350 355 357 359 352 355 355 355
355 354 355 357 360 362 362 362 362 361 362 361 360 360 359 359 359 359 358 358 357 357 356 356 357 357 358 358 359 360 357 356 347 348 351 349 359 358 353 354 355 353 352
353 353 352 353 355 355 356 362 362 362 362 360 361 359 359 358 359 360 361 360 358 357 357 357 357 357 356 358 359 359 357 356 347 348 349 350 358 355 357 357 356 355 352
350 349 350 351 352 353 354 357 360 362 361 360 359 360 356 348 351 353 358 359 358 358 357 357 357 357 357 357 359 360 356 347 347 348 349 357 359 357 355 356 354 353 353
346 348 349 349 350 352 357 354 353 355 354 353 351 348 347 347 347 352 356 359 358 358 358 358 357 358 353 347 349 355 345 347 347 348 349 358 359 355 356 352 352 354 353
346 350 348 348 350 351 352 351 350 351 351 350 349 347 347 347 349 349 349 348 348 354 350 350 350 347 346 348 345 347 345 346 346 348 353 359 359 355 355 355 354 352 353
343 346 348 349 348 348 351 350 348 350 350 347 346 346 345 344 344 345 346 346 346 347 345 345 344 346 347 345 343 343 345 346 345 348 352 358 359 355 355 355 351 353 352
341 344 347 349 346 347 349 348 348 348 349 347 345 347 345 342 341 344 345 346 344 346 344 342 341 343 343 343 343 342 344 345 346 348 349 355 359 356 354 354 353 353 353
340 342 346 346 344 346 346 346 347 347 348 345 345 347 346 342 343 345 344 343 343 343 346 342 341 343 344 343 341 343 344 345 347 348 348 349 356 357 356 356 354 354 352
340 341 344 344 345 346 347 346 345 345 347 344 344 344 346 344 343 344 343 341 342 342 344 343 342 344 344 341 340 340 341 344 346 347 348 348 351 357 356 354 354 353 352
340 340 343 347 345 346 344 345 343 344 345 344 343 341 348 347 346 346 341 342 344 344 344 342 340 341 339 338 337 336 337 339 342 344 345 345 347 351 355 358 356 354 351
340 341 342 344 344 344 344 344 345 343 344 343 344 345 348 347 348 346 343 344 345 344 342 337 340 338 337 337 338 339 338 338 337 341 341 342 342 344 343 350 358 357 352
340 341 342 344 344 343 345 341 342 346 342 344 345 346 350 348 348 341 342 344 344 340 339 340 336 337 336 337 339 338 337 340 341 339 339 342 342 342 342 342 343 349 355
340 340 341 342 340 343 340 338 338 340 342 343 344 348 349 349 347 343 341 343 342 340 341 339 336 336 334 334 332 332 333 335 337 340 340 342 344 344 344 343 342 344 346
339 339 341 342 339 342 342 342 341 341 343 345 346 348 348 350 350 347 346 346 339 339 339 337 334 336 335 334 329 327 323 324 329 335 337 339 341 344 345 345 344 344 343
337 337 341 341 339 342 341 343 342 341 341 344 344 346 350 349 351 349 347 347 344 340 339 335 337 336 331 334 332 330 323 319 325 328 330 333 336 337 342 344 344 344 342
336 338 341 341 339 342 342 342 341 339 336 339 344 343 349 352 352 348 349 346 344 343 342 342 345 338 332 330 333 333 331 328 322 320 326 331 332 332 335 339 342 344 344
337 338 339 340 339 342 342 342 342 339 338 338 343 343 346 349 351 353 350 347 345 343 343 343 343 342 340 336 334 335 330 329 329 324 321 326 331 333 334 336 337 337 340
336 338 340 340 339 342 342 340 341 341 340 339 339 341 344 347 349 349 351 349 346 344 344 344 343 344 343 342 340 338 332 327 326 328 324 325 326 330 332 335 335 336 337

GFSSE_sfc_thetae_072.txt.gz
Theta_e
340 348 359 359 361 360 360 358 358 361 361 359 359 358 357 357 358 361 361 361 362 363 362 363 364 361 361 361 361 360 360 361 361 359 359 359 359 359 355 355 357 348 356
343 351 360 361 362 361 361 360 358 361 361 360 362 357 356 356 357 357 360 361 361 361 362 362 361 360 359 360 362 361 361 361 360 360 359 359 356 357 358 353 356 354 355
347 353 357 362 362 363 360 360 358 361 361 361 361 359 359 358 361 360 357 360 361 360 360 361 361 361 361 361 361 361 360 360 361 359 359 353 354 358 356 354 351 350 350
351 353 357 363 364 363 361 361 359 361 361 361 361 360 361 359 358 360 359 358 359 360 360 359 360 361 361 361 360 361 361 360 359 357 352 349 351 357 355 357 356 355 354
352 353 356 362 364 362 361 360 360 361 360 360 360 360 361 360 360 359 359 358 357 358 359 360 359 360 359 358 359 360 360 359 358 354 351 351 352 356 355 351 355 357 355
352 353 361 362 362 362 362 361 361 361 359 359 359 359 359 358 359 358 359 358 358 358 359 359 360 358 359 360 360 360 359 358 356 354 355 357 354 355 357 350 352 356 356
350 354 357 363 363 363 362 361 360 360 360 360 359 359 358 358 359 358 357 358 358 357 358 358 359 359 360 359 361 361 359 358 352 353 352 353 356 358 354 352 350 351 351
352 354 356 361 363 362 362 362 360 360 359 359 358 359 358 359 358 357 357 356 356 357 358 359 358 359 360 360 361 361 358 357 352 352 352 352 357 357 352 356 355 356 355
355 355 355 355 358 361 361 360 360 360 359 359 360 359 358 358 358 358 358 357 356 356 357 357 358 359 360 360 360 359 357 356 351 353 353 354 358 354 354 356 353 352 352
353 353 353 354 354 354 356 361 361 361 361 359 359 358 358 357 356 358 358 360 356 356 357 358 358 357 359 360 358 358 356 356 351 352 351 352 357 357 357 356 356 352 352
350 350 351 352 353 354 355 357 360 362 359 359 358 358 354 352 354 355 358 358 357 357 357 358 357 357 359 358 360 359 355 350 350 351 354 357 358 354 357 356 354 353 353
345 349 349 351 351 353 358 353 353 355 354 354 352 349 350 351 351 354 356 358 357 356 356 355 356 357 353 351 355 357 349 350 351 351 354 357 359 356 354 351 353 354 353
345 350 348 349 351 352 353 352 352 352 352 352 349 348 349 349 351 352 351 351 352 356 355 352 351 350 349 351 349 350 349 349 350 352 354 359 358 354 353 354 352 352 352
343 348 348 349 349 350 352 351 351 350 350 348 349 349 348 347 348 349 349 350 350 350 349 349 348 350 350 348 347 348 348 349 349 352 355 358 358 353 353 353 351 351 351
343 345 347 348 348 349 350 349 350 350 350 348 348 349 348 346 346 347 348 349 348 350 348 345 348 347 347 347 347 347 347 348 349 352 354 354 355 353 352 352 351 352 351
342 343 346 347 346 348 348 348 348 349 350 349 348 349 348 346 345 347 348 348 349 347 349 347 347 346 348 346 346 347 347 348 350 351 353 354 355 356 355 354 353 353 352
341 343 345 345 345 346 347 347 347 348 350 348 347 348 349 346 346 348 347 347 347 347 349 348 346 348 347 345 345 346 347 348 349 351 352 353 354 356 356 355 353 353 352
339 341 345 349 345 345 346 347 347 347 348 347 347 346 348 349 348 348 347 347 347 348 348 348 344 346 344 343 342 342 343 345 348 349 349 350 351 354 355 358 357 354 352
339 341 343 345 344 345 346 346 345 346 346 347 346 345 348 350 350 348 346 348 350 350 347 345 345 344 343 343 343 343 342 342 343 343 346 347 348 350 349 350 354 357 354
339 341 344 344 344 343 345 344 345 346 345 345 346 346 350 350 349 348 347 349 350 347 344 344 344 342 343 343 341 343 343 344 345 343 343 344 345 346 346 347 347 348 353
339 340 341 342 342 343 342 339 341 342 343 345 346 349 352 351 350 345 346 347 347 346 346 346 343 344 341 341 340 339 340 341 342 345 346 345 346 348 348 349 348 348 348
338 340 340 342 341 344 345 342 343 343 345 347 347 350 352 352 349 347 346 350 346 345 345 345 344 342 340 340 337 334 331 333 334 338 342 344 345 347 349 350 350 350 350
338 338 339 342 341 344 343 343 343 343 345 346 347 348 351 352 352 350 351 350 345 346 343 343 343 343 338 339 340 338 331 328 330 336 338 338 341 342 345 348 350 351 351
338 340 341 342 341 343 343 343 342 340 340 344 346 348 351 353 353 354 350 350 348 346 346 345 347 345 342 339 340 338 339 336 332 330 335 337 340 339 341 343 345 348 351
339 339 341 342 341 343 343 344 342 340 342 343 346 347 349 353 353 352 352 351 349 347 349 350 349 347 346 341 341 342 338 336 335 332 331 334 339 341 342 342 344 345 347
338 339 340 340 340 342 342 342 342 341 340 340 342 344 346 349 352 353 354 353 351 349 349 349 350 350 350 349 345 344 341 338 336 336 332 333 333 340 340 342 343 344 345

GFSSE_sfc_thetae_075.txt.gz
Theta_e
348 356 360 362 361 359 359 360 361 360 360 359 359 359 359 359 362 361 361 363 362 363 364 365 364 363 362 362 361 361 360 361 362 360 359 358 357 356 357 354 357 354 358
351 356 362 364 361 361 359 359 362 361 361 360 357 357 357 357 359 361 361 361 361 362 362 361 360 358 362 361 362 361 361 360 363 360 357 358 358 354 358 357 356 356 356
351 355 358 364 362 361 359 359 362 360 362 360 359 358 359 362 358 358 360 360 361 361 360 361 360 362 363 361 360 361 361 361 361 359 358 354 356 356 352 351 351 350 350
352 355 358 363 365 361 361 359 362 361 362 361 361 361 359 358 359 358 359 360 359 360 360 361 360 362 360 360 361 361 361 359 358 356 350 354 351 358 357 358 357 356 357
353 356 359 362 364 362 362 360 362 361 361 360 359 359 359 359 359 360 359 359 360 360 361 361 361 360 359 360 361 360 359 359 357 352 351 356 355 351 355 357 355 357 352
353 355 361 363 362 362 362 361 362 361 361 360 360 359 359 359 360 360 359 359 359 360 361 360 359 358 358 359 361 360 359 359 356 357 356 356 355 352 352 355 358 353 353
353 357 360 365 363 362 361 361 362 360 360 360 359 359 359 360 358 359 359 359 358 358 358 359 359 360 360 362 361 359 358 358 357 356 354 356 356 354 351 352 352 355 356
352 355 358 363 363 363 362 361 361 360 360 359 359 359 359 359 357 358 356 357 357 359 359 359 359 359 361 361 361 359 358 357 354 353 354 355 356 356 357 356 357 356 355
354 355 357 359 363 363 362 361 360 360 359 360 359 359 359 358 358 358 357 358 357 359 359 359 360 360 361 361 360 358 358 355 354 354 352 355 356 356 356 353 352 352 352
354 354 354 357 359 360 359 361 360 360 360 360 359 359 359 358 357 357 358 360 358 359 359 359 359 361 361 360 359 357 357 354 353 350 350 352 358 357 357 356 353 353 354
351 354 357 357 359 362 361 360 361 361 360 359 359 360 359 358 356 356 359 359 358 359 359 358 358 360 359 359 359 357 352 351 350 352 354 356 358 356 356 356 354 355 351
349 352 356 357 358 359 357 362 362 358 360 361 360 360 359 359 358 356 359 358 357 357 357 357 358 357 353 356 362 357 353 352 352 353 353 356 357 356 351 352 355 353 354
349 352 354 357 359 357 359 357 357 358 358 358 359 359 359 357 358 357 357 356 357 357 356 356 356 354 355 355 355 356 355 353 352 353 354 355 355 353 353 355 352 354 353
346 351 354 357 358 359 358 354 357 356 357 355 356 359 358 355 357 359 356 357 357 356 356 357 355 356 356 355 356 358 356 353 351 353 355 355 355 352 353 353 352 352 352
343 350 354 357 359 361 360 357 356 356 355 355 357 358 358 355 355 356 356 356 357 358 356 354 356 355 356 355 355 355 355 352 351 353 355 354 354 353 353 352 352 352 352
346 349 352 354 358 360 358 359 356 356 356 356 357 359 358 355 356 354 355 356 359 359 357 357 356 355 356 354 354 354 353 351 353 354 354 355 354 356 355 355 353 353 353
347 351 351 353 356 358 358 357 355 355 355 357 359 359 359 357 357 360 358 357 358 359 360 360 358 359 354 353 353 354 355 354 352 353 354 355 356 355 356 356 354 354 353
347 350 352 351 354 356 356 356 354 356 358 359 359 359 359 359 357 359 358 357 358 359 359 359 357 355 352 351 352 352 355 353 352 353 354 353 353 353 355 357 358 356 354
347 349 350 353 352 354 357 355 356 357 357 360 360 358 358 358 358 359 359 357 361 360 358 355 355 356 350 351 351 354 353 353 353 350 352 352 353 353 353 355 352 354 356
345 350 351 353 353 355 355 355 354 355 356 359 358 358 357 360 358 360 358 359 360 358 357 353 357 354 353 352 348 350 354 354 355 354 353 352 353 353 354 356 355 355 351
344 348 351 351 354 353 351 350 352 351 354 355 357 359 358 361 358 358 357 358 359 357 357 356 354 354 352 354 351 349 349 351 351 351 353 353 353 354 355 356 358 356 356
343 346 351 352 354 354 352 354 354 354 355 355 357 359 359 361 361 357 356 357 358 355 359 357 355 351 351 352 347 347 338 342 346 348 350 351 352 353 353 355 357 359 359
343 346 349 352 354 354 355 354 355 355 356 353 354 355 357 361 361 361 358 360 358 358 354 355 354 354 347 351 349 345 339 334 340 348 349 350 351 351 352 353 354 357 359
344 348 349 352 354 355 356 354 354 350 349 351 355 356 357 361 362 361 362 361 360 357 356 353 355 355 353 347 349 350 351 347 337 336 347 348 351 349 352 352 351 353 356
344 347 348 352 354 356 355 357 353 354 352 354 355 358 359 363 362 362 362 362 360 357 359 360 358 357 354 349 348 351 351 348 348 342 338 343 350 352 354 352 352 353 354
344 345 347 350 354 354 355 355 355 355 354 352 354 353 354 356 360 363 363 363 361 359 358 359 361 359 360 358 355 355 352 346 344 344 343 346 344 350 351 353 354 354 355

GFSSE_sfc_thetae_078.txt.gz
Theta_e
353 355 362 362 360 361 361 361 361 360 360 360 359 359 361 363 362 362 364 362 364 365 365 366 365 366 363 362 362 361 362 360 359 360 358 358 358 358 357 358 361 356 357
354 356 363 364 360 360 361 362 361 361 359 358 358 358 358 361 363 361 362 362 363 363 361 362 363 363 363 362 361 361 360 360 362 359 359 355 358 358 358 359 359 354 353
352 356 361 364 362 359 361 363 361 363 360 358 358 360 361 358 360 362 361 362 362 362 363 361 362 362 362 361 361 361 361 361 358 359 360 350 351 352 352 352 351 353 354
352 355 358 364 364 360 361 363 361 363 361 362 361 359 360 360 358 361 360 360 361 362 362 362 362 361 362 362 362 361 360 359 358 356 350 347 356 358 358 357 357 357 354
353 355 362 365 363 361 361 363 361 362 362 360 360 360 359 359 360 360 359 360 361 360 361 362 361 360 361 362 361 360 359 357 358 355 356 354 346 356 357 357 353 353 357
352 355 362 364 363 363 361 363 361 362 361 360 361 361 360 360 360 360 360 360 361 361 362 360 359 359 360 361 360 360 359 356 363 353 354 355 347 354 358 356 353 356 357
352 356 360 366 364 363 362 362 361 362 361 360 360 360 359 360 360 360 360 360 360 361 360 360 360 361 363 362 360 359 358 355 351 352 354 353 350 354 352 354 357 357 355
353 356 359 364 363 363 362 362 361 361 360 360 360 360 359 359 359 358 359 359 360 360 360 360 361 362 362 361 359 359 357 356 351 355 355 350 357 358 358 358 357 354 355
354 355 358 360 364 363 362 361 361 361 361 359 360 360 359 360 359 358 357 359 360 360 360 361 362 362 362 361 359 358 356 352 351 352 350 349 358 357 355 352 353 354 355
354 354 357 358 360 360 360 360 361 360 360 359 360 359 360 358 358 357 361 361 360 360 360 361 361 361 361 359 358 357 355 356 348 349 349 355 356 357 357 354 353 352 355
352 353 352 353 357 361 359 361 361 361 359 360 359 358 359 354 355 355 360 359 361 360 360 360 360 360 361 361 358 355 357 348 348 351 352 358 357 356 357 354 357 353 352
348 350 353 356 358 358 355 360 361 358 360 358 357 359 354 356 358 355 359 359 359 359 359 360 359 355 359 354 357 356 347 350 349 349 355 359 357 353 353 356 353 353 352
348 349 353 357 359 357 358 356 354 355 357 358 360 358 356 354 355 352 355 356 357 359 356 358 357 355 357 355 352 348 348 348 349 348 353 357 356 355 356 353 353 354 354
347 349 352 357 358 357 354 354 353 352 353 353 357 359 357 351 353 354 353 356 357 355 357 358 355 359 359 358 356 352 347 345 347 349 353 356 355 354 355 352 352 352 352
346 350 352 356 359 358 356 355 354 353 351 353 354 358 355 352 355 355 357 356 357 359 355 356 357 358 360 357 356 355 350 347 348 349 351 354 354 353 353 353 351 353 351
346 349 353 355 359 358 358 360 357 355 356 354 354 356 359 354 356 355 357 356 358 358 357 358 359 357 355 356 356 356 352 351 352 355 354 354 355 356 354 354 354 352 353
347 351 353 354 356 358 359 360 357 356 356 356 357 362 362 359 361 362 357 359 357 360 362 361 361 358 353 352 355 354 353 352 353 353 355 353 355 354 356 355 354 353 353
347 351 353 351 353 356 358 359 357 356 358 358 358 359 362 363 362 362 359 359 358 360 360 357 358 351 351 350 350 351 351 352 354 354 355 355 354 353 355 356 358 358 355
348 352 353 354 352 354 359 358 359 361 358 359 359 359 363 362 363 365 362 358 361 359 357 357 354 354 350 348 347 349 351 353 354 351 355 358 356 355 352 356 353 353 354
347 351 353 354 355 356 356 358 355 355 357 358 360 358 361 362 363 363 358 361 361 357 354 355 358 355 353 351 346 346 352 353 356 355 354 353 355 358 357 359 358 354 355
345 348 352 354 356 355 354 351 351 350 354 355 358 361 362 363 362 363 359 361 361 360 358 360 356 356 347 354 344 344 345 347 348 352 354 354 352 355 358 359 358 355 355
343 348 352 355 357 357 354 354 354 354 354 356 358 362 361 362 364 362 362 359 362 356 362 362 359 351 349 352 344 343 337 340 343 346 350 350 352 354 355 355 357 360 359
342 347 352 356 357 357 358 358 360 361 361 356 356 357 360 362 362 364 362 361 362 360 352 360 358 357 344 354 354 346 338 333 341 344 348 348 352 351 354 355 355 358 362
344 346 352 356 357 357 361 359 359 352 348 351 354 355 359 363 362 362 363 363 364 359 360 358 358 359 357 345 350 351 354 350 337 336 343 345 347 346 350 353 352 353 359
347 347 351 356 359 358 361 361 356 356 352 353 353 362 364 365 361 361 363 364 364 359 363 362 361 361 355 349 348 349 354 350 352 343 335 337 343 347 350 354 352 355 358
348 349 351 355 359 361 361 361 360 358 357 352 354 354 355 357 359 363 361 363 364 362 363 361 361 362 360 358 352 350 346 343 343 344 342 343 342 347 352 353 354 355 357

GFSSE_sfc_thetae_081.txt.gz
Theta_e
352 355 362 361 361 363 362 361 361 360 360 360 361 362 363 362 362 364 364 365 366 367 366 366 366 364 362 362 362 361 359 360 361 359 359 357 357 357 359 357 361 348 357
353 355 364 362 361 362 360 360 361 360 360 359 358 359 362 363 362 362 363 363 363 364 363 365 364 363 362 362 361 361 360 361 359 358 360 359 359 358 356 356 357 352 358
351 354 359 363 360 362 363 361 362 359 358 358 359 359 359 361 362 362 362 363 363 363 362 362 362 362 362 362 361 361 359 361 359 358 363 343 346 352 352 354 354 356 357
352 352 355 363 361 361 363 361 363 362 361 360 360 361 360 358 362 362 361 362 363 363 362 361 361 363 362 362 362 360 358 357 354 355 352 353 353 358 358 357 355 356 356
352 351 358 364 361 361 362 361 361 362 361 361 361 360 361 360 361 360 361 362 362 362 363 361 361 362 362 360 360 359 356 352 354 356 346 348 354 356 356 353 355 357 357
350 356 363 363 361 362 362 362 361 362 361 361 361 361 361 361 361 361 362 362 361 362 362 359 359 361 362 360 359 358 356 355 364 352 346 346 351 357 353 356 357 356 356
350 356 361 365 363 362 362 362 362 362 360 361 361 361 362 360 361 361 361 361 362 361 361 361 361 362 361 360 359 358 356 360 354 353 346 346 349 355 357 357 356 356 355
350 351 357 362 363 362 361 362 362 360 360 360 361 360 360 360 360 360 361 361 361 361 361 361 362 362 361 360 359 356 355 358 352 350 348 355 357 357 357 356 355 355 356
352 352 356 359 363 362 362 362 361 361 360 361 360 359 360 360 358 359 360 361 361 361 361 362 363 362 360 359 357 353 354 356 350 350 347 352 358 356 353 354 356 356 357
349 350 355 356 355 358 359 361 361 361 360 360 359 360 360 359 359 359 362 361 360 360 361 361 361 362 360 358 356 354 357 359 349 348 352 354 360 357 355 354 352 355 356
348 350 354 353 355 360 359 360 361 359 361 360 358 359 360 356 356 356 363 361 361 361 361 361 361 362 361 360 358 357 358 349 347 348 351 357 359 356 355 357 355 353 353
345 346 349 353 354 356 352 360 358 356 357 358 358 360 359 356 354 353 360 361 360 361 361 361 361 362 362 356 354 358 348 346 347 351 353 360 356 354 355 354 354 354 352
346 348 352 356 360 355 355 356 355 353 355 357 361 357 354 353 352 352 356 356 359 360 356 358 356 355 352 351 346 345 346 347 347 346 356 359 356 355 354 352 353 355 354
345 348 352 355 356 353 353 354 350 351 351 352 353 356 355 350 352 360 354 353 354 357 356 355 354 357 356 354 348 345 344 345 347 346 355 356 354 356 355 351 352 351 352
344 347 352 355 357 356 363 351 351 349 350 352 354 355 357 355 357 358 357 354 357 357 353 355 359 357 355 352 351 349 344 346 347 348 347 356 355 352 352 352 351 352 353
346 348 352 353 356 356 363 361 356 354 351 352 352 355 358 357 360 357 359 360 358 363 358 362 355 365 356 352 354 351 349 350 353 354 354 353 359 356 354 354 353 351 351
346 350 352 353 354 358 358 356 356 353 354 351 353 359 359 359 363 371 357 355 359 359 361 358 359 362 353 350 353 351 350 352 351 352 353 355 355 357 356 354 353 352 352
347 350 353 350 352 356 358 363 360 356 355 361 353 356 359 361 360 364 357 356 356 364 357 359 363 360 351 351 349 352 348 350 351 351 350 353 351 354 357 357 356 356 355
348 351 352 352 351 355 360 358 358 364 358 365 359 358 362 362 361 363 359 357 361 357 353 352 354 353 351 350 348 347 348 347 352 348 351 352 350 351 352 359 358 357 356
348 352 353 352 353 358 358 359 356 354 360 359 363 358 362 362 363 363 357 358 359 356 353 353 362 354 348 350 342 343 347 347 349 348 349 350 351 353 352 355 357 356 358
347 350 353 354 358 355 354 351 349 348 353 355 358 361 361 362 363 363 359 359 358 355 355 357 355 354 351 348 349 343 342 345 347 346 349 349 349 351 350 353 356 354 356
345 348 353 355 357 357 354 357 352 361 349 358 358 361 361 362 364 361 364 361 362 354 360 358 357 354 342 352 345 344 339 339 341 343 345 345 347 349 348 351 351 356 357
342 346 352 356 358 359 361 355 358 359 358 352 356 356 360 361 361 363 362 364 362 362 354 359 357 350 349 346 358 345 339 335 340 344 346 344 347 346 348 349 350 355 358
342 347 353 356 358 358 361 362 365 352 346 350 355 358 361 362 361 361 362 363 364 358 360 358 353 362 360 348 348 349 354 352 343 338 340 342 344 345 348 348 349 351 355
343 346 352 357 361 363 362 366 357 357 354 354 354 364 362 366 362 359 363 363 363 360 366 362 360 362 355 350 348 346 349 345 348 343 333 336 341 344 347 350 349 351 354
345 345 350 357 362 362 361 361 363 360 359 357 355 354 356 357 358 362 361 363 364 363 363 361 362 361 361 363 356 350 346 340 343 345 339 343 340 346 348 350 351 353 354

GFSSE_sfc_thetae_084.txt.gz
Theta_e
350 355 363 363 362 363 362 362 362 362 361 361 363 363 363 364 365 366 366 367 367 367 367 367 365 363 363 362 360 361 359 361 360 360 360 360 359 360 359 360 359 353 360
351 356 363 363 364 362 362 362 361 360 360 359 360 363 362 362 363 365 365 366 365 366 366 363 363 363 362 362 360 360 360 361 364 360 359 358 357 355 358 356 359 355 357
350 354 358 364 364 362 362 362 360 359 358 360 359 359 363 362 363 364 364 362 362 364 362 363 362 363 362 361 360 360 359 360 359 363 355 343 347 356 355 357 359 358 355
348 349 353 362 364 363 363 361 363 362 361 361 360 361 360 362 361 363 362 363 362 363 363 363 363 362 362 361 359 358 359 357 359 354 351 349 352 357 357 357 356 357 355
348 351 356 363 364 364 364 363 363 362 361 362 361 361 363 362 362 362 362 362 362 363 361 362 363 361 360 360 357 358 358 358 361 350 346 352 351 354 355 358 356 357 357
348 353 361 363 363 362 363 362 362 362 362 363 362 362 363 363 362 362 362 362 363 361 361 360 362 362 360 358 358 358 360 360 357 343 343 353 351 355 358 357 355 356 357
349 352 358 365 364 363 363 361 361 361 361 361 361 363 361 362 362 362 362 363 362 361 362 361 362 360 359 358 357 357 359 357 352 345 344 347 352 358 357 357 356 357 354
350 352 356 363 363 362 363 362 362 360 361 363 363 362 362 362 362 363 362 362 361 361 361 363 362 360 359 358 356 355 357 363 349 351 352 352 357 358 355 356 356 357 354
351 352 354 357 361 363 362 362 361 362 362 361 360 362 362 362 361 362 363 361 361 362 362 363 361 360 359 357 356 355 355 363 348 349 350 351 358 355 355 356 357 356 354
348 350 354 357 356 356 358 361 361 360 361 360 361 360 362 361 360 362 363 364 362 362 362 362 361 359 358 357 355 355 358 361 348 350 352 354 359 356 354 352 353 355 354
348 349 352 353 355 360 359 359 360 359 360 360 359 359 360 357 356 356 363 363 361 363 361 362 361 359 357 358 360 359 357 355 347 349 352 359 358 356 358 355 354 353 351
346 350 353 354 354 356 351 360 360 359 359 360 357 358 356 359 355 354 360 363 361 364 363 363 363 355 361 353 355 359 354 348 350 350 355 358 357 355 354 355 355 353 351
346 351 352 354 357 355 356 357 357 358 357 358 361 360 360 352 353 354 358 357 360 359 357 358 361 357 355 354 351 345 345 346 347 349 354 359 358 357 352 353 353 354 351
346 351 349 353 351 360 356 356 352 353 354 354 359 353 355 360 351 359 357 355 356 353 349 351 357 360 357 352 346 346 343 344 346 351 355 359 359 357 353 352 352 350 351
348 349 349 352 349 365 356 355 352 350 352 350 353 359 357 352 361 354 346 355 349 356 350 351 353 349 354 354 351 347 344 349 346 345 350 358 359 358 354 352 351 352 352
348 346 351 355 360 362 369 366 361 351 354 355 353 352 360 362 363 350 353 353 356 363 353 344 357 361 350 353 351 351 349 351 354 348 348 354 359 358 357 356 354 351 350
347 350 352 351 356 363 365 356 366 355 352 354 356 366 362 362 359 353 348 354 356 367 366 352 360 355 355 351 354 349 352 352 352 354 352 351 356 361 359 358 354 353 353
349 351 353 347 354 358 362 364 351 350 353 360 357 362 367 366 367 364 353 353 360 354 358 348 360 357 353 354 350 351 353 350 353 353 353 354 353 352 358 360 359 357 356
351 353 354 352 354 355 361 367 350 353 351 356 363 356 365 366 367 369 361 356 364 352 360 354 355 355 352 348 342 352 352 352 350 349 352 354 349 354 354 359 360 360 358
350 354 357 352 360 361 361 358 359 353 354 356 359 361 368 367 367 361 366 365 348 363 358 346 360 352 355 341 342 345 350 348 352 352 351 351 352 353 354 357 356 356 360
348 352 357 355 362 360 360 356 352 354 354 355 360 368 360 359 369 370 366 363 351 360 347 365 361 358 355 357 357 350 348 346 347 350 351 347 351 352 352 354 358 355 354
347 352 357 357 359 362 357 362 364 355 358 356 357 366 364 363 369 366 359 361 353 355 364 362 346 357 353 357 350 350 338 343 345 344 348 347 347 350 350 353 354 354 356
347 351 356 358 358 361 364 365 370 362 358 358 356 360 365 365 367 359 366 364 363 363 356 362 364 357 351 355 357 346 341 336 347 346 346 345 346 350 348 348 353 356 357
346 351 356 360 358 359 366 363 368 361 358 355 356 362 365 366 365 366 369 364 358 354 351 359 360 354 360 352 356 354 354 343 343 339 345 342 348 345 347 353 350 354 355
344 347 355 360 359 361 366 364 362 363 350 351 356 362 365 372 369 363 369 369 364 359 355 358 365 366 360 353 351 352 353 354 349 345 337 339 346 348 348 351 350 351 355
345 347 353 358 360 363 362 365 363 363 348 345 352 353 358 365 364 367 367 368 366 352 351 367 367 366 363 366 362 357 352 342 344 345 343 344 342 347 351 350 351 354 355

GFSSE_sfc_thetae_087.txt.gz
Theta_e
346 355 362 363 362 363 363 362 362 361 361 364 365 364 365 365 366 367 367 367 367 366 364 364 365 363 361 360 359 360 359 361 363 361 359 358 359 361 361 358 358 354 359
351 356 363 363 362 361 360 360 359 359 359 360 364 363 364 364 364 366 366 367 365 365 364 364 363 362 360 361 360 359 359 362 363 360 357 356 355 357 359 359 356 353 358
353 356 358 364 361 360 360 359 359 358 359 359 361 363 363 363 365 365 363 363 363 365 363 363 363 361 361 361 360 359 358 360 362 356 355 351 351 358 358 358 358 354 356
353 354 357 364 363 361 361 361 362 361 361 361 361 361 362 362 364 363 363 362 362 365 363 363 362 362 361 360 359 358 357 359 359 359 349 349 348 358 358 358 357 355 357
346 351 356 364 365 363 363 362 361 363 362 361 360 360 362 362 362 363 363 362 362 363 364 363 360 360 358 356 358 361 363 363 359 355 348 347 347 356 358 357 357 357 354
348 352 362 363 363 363 363 362 362 362 361 361 362 362 362 361 363 362 362 362 361 360 361 362 361 359 359 360 360 360 361 358 351 347 346 350 348 357 355 355 358 358 356
350 353 358 365 365 363 362 362 362 362 361 361 363 362 362 362 362 362 362 362 362 361 362 361 360 359 360 360 359 359 360 355 341 343 347 350 352 358 357 357 357 354 355
350 353 356 362 363 363 362 361 361 361 361 361 362 361 362 362 362 362 361 362 362 359 363 361 360 358 358 359 358 359 361 359 351 350 349 351 357 356 356 358 357 353 353
352 352 355 356 360 363 362 361 361 361 361 361 361 361 362 362 362 362 361 361 362 362 362 360 358 358 358 357 357 358 362 359 347 348 349 350 357 356 356 358 355 354 353
350 352 353 355 355 354 355 361 362 361 360 360 360 360 363 362 362 361 363 365 362 362 362 359 357 356 354 354 356 359 360 359 348 350 350 353 358 353 353 353 354 353 351
347 349 352 352 352 352 353 356 359 361 360 360 359 360 360 351 352 356 361 364 361 361 360 360 358 356 355 355 357 357 354 349 348 349 352 357 358 358 354 353 353 350 349
344 348 349 351 351 352 354 352 351 353 351 352 351 352 349 349 349 355 359 363 362 360 358 360 362 359 359 350 350 359 351 348 349 350 349 356 359 355 355 355 353 351 350
346 348 348 349 349 347 350 351 348 350 351 352 348 350 350 349 351 352 352 353 352 354 351 352 354 351 350 351 350 350 349 346 347 349 353 358 359 352 354 353 356 352 351
343 346 348 350 349 349 350 349 347 348 350 346 352 347 346 346 347 348 352 350 346 347 344 348 350 353 354 353 352 340 344 346 347 349 354 360 360 353 353 352 352 351 351
345 346 346 346 346 348 351 348 347 349 345 347 346 347 350 348 347 345 345 350 348 345 345 339 343 347 344 347 337 336 341 342 345 349 348 358 361 360 353 352 353 354 352
343 346 343 343 347 351 352 349 348 345 342 345 345 349 352 350 348 348 347 348 345 349 346 339 343 348 343 343 342 338 341 342 342 345 347 351 360 360 357 355 354 352 351
343 346 345 346 351 352 346 349 348 349 348 347 350 348 350 350 345 346 340 343 346 351 347 348 347 351 345 346 342 341 342 342 342 343 345 349 354 359 358 358 359 357 353
344 342 341 350 348 347 348 346 346 350 348 346 350 351 354 350 349 346 344 346 349 344 349 344 345 342 341 343 339 340 343 342 341 345 347 347 350 351 358 361 360 359 356
345 343 341 346 345 349 350 349 346 345 345 350 349 351 351 352 353 352 348 346 352 346 347 347 344 345 342 340 341 344 343 340 342 347 344 348 347 348 348 356 360 360 358
345 345 346 347 345 345 350 349 347 346 349 352 351 354 356 354 354 350 354 348 348 347 347 342 343 342 344 338 338 339 340 342 343 342 342 344 346 348 348 348 353 354 360
343 344 345 348 350 348 349 342 345 341 345 351 353 354 350 350 356 353 352 346 348 347 343 350 347 346 346 346 342 338 339 334 335 342 343 343 342 347 348 349 349 349 350
342 343 349 349 348 348 348 349 348 347 347 349 354 355 353 354 353 355 351 350 348 346 349 346 340 344 342 341 337 334 328 333 338 336 339 341 340 343 345 346 348 349 347
343 345 348 347 348 348 349 351 354 352 351 349 352 351 356 357 356 353 353 352 345 346 343 345 349 341 338 343 342 335 331 327 335 336 333 335 333 339 341 342 346 345 346
343 348 350 348 346 346 351 345 346 342 343 344 346 351 351 357 357 356 354 353 353 345 342 345 352 346 339 338 339 343 341 335 331 328 334 332 335 338 338 339 343 345 347
344 346 351 349 347 345 350 350 348 346 343 344 350 348 353 353 358 355 354 352 350 349 347 348 349 348 347 347 346 343 341 341 343 333 329 327 334 336 337 339 343 343 345
343 346 351 349 348 347 351 349 348 346 342 343 343 349 347 350 351 351 356 353 353 346 341 342 350 349 350 348 351 345 342 334 332 337 333 333 329 336 337 342 337 344 346

GFSSE_sfc_thetae_090.txt.gz
Theta_e
346 355 362 362 363 363 363 363 362 363 363 363 364 363 364 364 364 366 366 364 364 365 364 362 361 359 360 356 360 361 361 360 360 359 358 358 359 358 359 358 358 353 357
351 355 364 364 363 362 360 359 359 360 363 363 363 363 363 363 363 364 365 363 363 364 363 362 360 361 360 359 358 360 360 359 360 358 356 356 359 358 355 355 358 354 357
352 354 358 364 361 359 359 359 358 358 360 363 364 363 362 362 362 362 363 363 363 364 362 361 361 361 360 359 359 358 357 358 356 356 356 348 352 358 357 354 355 357 358
353 354 357 362 362 360 358 359 361 361 360 360 362 363 362 364 362 362 362 363 363 364 363 362 361 361 361 359 357 357 358 360 358 355 348 347 352 358 357 356 356 358 357
352 354 356 362 361 362 362 362 361 362 361 360 361 361 361 362 363 363 362 362 363 362 362 361 360 360 358 358 358 359 359 361 357 351 346 347 350 356 357 357 355 353 353
350 352 361 362 362 363 362 362 362 361 362 361 362 362 362 363 363 362 361 361 362 363 361 359 358 359 359 357 360 362 361 359 354 345 347 352 347 354 356 358 356 354 353
349 355 357 365 363 362 362 362 362 361 362 363 363 363 362 362 363 362 361 361 361 362 362 359 359 360 359 360 360 361 355 353 344 347 348 349 351 356 358 354 355 353 353
351 355 356 363 363 362 361 362 362 361 361 362 362 361 361 362 362 362 362 362 361 362 360 359 360 360 359 359 358 362 358 356 351 349 349 350 356 356 358 356 352 353 353
353 353 354 355 359 362 361 361 361 361 361 361 361 361 362 362 361 361 363 361 361 361 359 358 358 357 358 358 358 366 360 356 345 346 346 347 358 357 357 354 353 353 354
350 353 352 353 353 352 354 361 361 360 360 359 360 361 362 362 361 362 364 365 361 360 359 357 357 356 355 355 356 363 359 356 347 348 349 351 355 355 355 354 352 351 352
349 350 351 352 350 350 351 357 360 360 360 360 358 360 359 351 352 355 362 364 361 360 359 358 355 355 354 356 357 358 356 347 347 349 349 356 359 353 352 352 350 349 349
344 347 350 349 349 350 355 351 350 352 350 350 350 351 348 346 349 354 359 363 359 358 359 359 359 356 355 349 348 355 349 347 348 348 348 357 360 353 354 353 351 349 348
345 348 347 348 348 347 349 348 348 348 348 348 347 348 347 348 351 351 351 352 348 350 348 350 351 347 350 349 351 347 349 347 348 347 350 358 357 354 355 356 353 351 350
344 345 347 347 347 345 349 346 345 347 348 347 345 347 343 345 345 348 349 346 345 347 345 344 347 349 351 351 349 348 345 343 344 346 350 358 359 352 352 351 352 351 350
343 344 346 347 347 347 347 345 344 346 346 346 347 344 346 344 345 346 345 346 344 339 343 338 341 344 343 342 338 344 341 344 345 348 349 357 359 355 352 352 353 352 352
345 345 344 346 346 349 347 344 344 345 340 342 344 346 346 346 345 340 344 345 344 345 343 341 340 343 344 338 335 340 340 342 345 346 346 350 358 359 355 353 353 353 353
344 344 341 343 350 349 349 346 344 343 343 344 347 350 349 345 344 344 342 343 345 349 346 344 344 346 344 341 340 339 339 339 340 342 344 346 351 358 356 356 358 356 354
344 340 342 350 348 346 346 345 345 347 345 346 345 348 347 346 345 343 340 342 346 346 345 342 343 341 339 339 337 338 340 340 339 340 342 345 347 349 354 359 361 359 356
343 341 342 345 345 344 343 344 344 345 345 346 346 350 349 349 350 348 344 345 345 344 344 344 343 341 340 337 338 341 341 339 339 344 344 344 344 347 346 352 360 360 358
341 339 342 342 344 347 344 346 342 346 347 348 345 349 349 351 353 349 347 347 347 345 344 343 340 341 339 334 336 338 337 340 339 341 343 346 345 346 344 345 347 353 360
342 341 341 339 342 345 344 341 340 340 345 349 350 353 353 352 353 351 350 343 344 340 341 345 344 342 343 342 335 336 335 333 337 339 340 340 341 346 345 346 345 348 348
340 341 343 341 343 344 345 342 344 344 345 348 349 350 349 349 353 351 349 345 345 345 347 344 339 340 339 339 335 329 327 329 334 335 339 340 338 342 345 346 346 348 347
339 343 344 345 343 344 346 346 349 347 347 347 348 350 351 354 353 353 350 348 343 342 341 342 345 338 336 339 340 332 327 324 331 333 331 336 335 336 340 343 344 346 346
340 346 346 346 343 344 347 346 346 344 340 343 346 347 351 355 352 352 352 350 348 343 340 341 349 343 337 339 338 343 337 331 329 325 330 332 330 333 336 338 339 343 343
341 346 346 346 343 343 347 348 344 341 341 344 346 348 347 349 355 354 351 348 347 344 340 344 346 345 346 344 343 341 339 335 334 330 326 326 329 333 334 336 337 339 342
342 346 344 343 340 341 345 348 345 342 340 343 344 344 345 346 347 350 352 349 347 346 343 342 348 347 346 345 346 343 339 335 335 334 330 330 326 330 335 337 337 340 340

GFSSE_sfc_thetae_093.txt.gz
Theta_e
345 353 361 361 362 361 361 361 360 360 361 362 363 363 363 364 363 363 362 362 361 362 361 359 361 356 356 358 359 360 360 359 358 356 359 358 358 358 358 358 357 352 357
350 353 361 361 361 361 361 360 361 362 360 362 363 362 362 362 362 363 362 362 362 363 359 359 359 358 359 360 360 358 359 358 358 356 356 358 356 355 358 358 357 353 357
350 354 355 361 361 359 358 358 358 361 361 361 361 362 361 361 362 362 362 361 363 363 360 360 358 359 358 358 357 357 357 356 355 355 357 350 352 354 354 356 357 357 357
351 353 356 361 359 359 358 357 357 358 360 362 361 362 361 361 362 362 362 362 362 363 360 361 360 359 358 357 357 356 357 357 356 355 346 350 352 357 355 357 357 357 357
351 353 353 360 359 359 360 361 360 359 359 362 361 362 362 362 362 362 362 362 362 362 361 361 360 358 357 356 356 357 357 356 354 350 347 348 349 355 357 353 353 353 354
351 352 358 361 362 361 361 361 361 361 359 360 361 361 362 362 361 361 362 363 362 360 360 360 359 358 356 358 358 359 359 357 354 348 349 349 345 356 357 357 353 353 352
349 354 356 364 362 362 362 362 361 362 361 361 361 361 362 362 362 361 361 361 361 359 358 359 359 357 358 361 360 360 357 355 346 348 348 348 348 358 353 356 353 352 352
352 354 355 362 362 362 362 361 361 361 362 362 362 361 362 362 362 362 361 361 360 360 359 359 358 358 358 358 359 354 352 354 350 348 349 347 355 358 355 352 352 352 352
353 352 354 355 358 360 360 361 361 360 360 361 361 361 362 362 362 362 360 360 360 358 358 359 358 357 357 358 359 358 357 355 345 346 347 347 357 358 355 353 353 354 355
350 352 350 351 353 352 353 360 360 360 359 360 361 361 361 361 361 362 363 363 359 358 356 356 356 356 356 357 360 359 356 353 344 345 346 349 358 358 355 351 351 351 350
349 347 348 349 349 349 352 355 357 359 358 358 359 361 355 350 354 355 360 362 359 357 356 356 355 355 355 356 361 359 356 346 346 347 347 355 355 350 350 350 348 348 348
344 346 348 347 347 348 354 350 347 350 349 350 350 348 347 347 349 355 357 361 359 359 358 358 356 356 355 347 347 356 345 345 347 347 347 357 357 351 351 350 348 347 347
344 347 347 346 347 348 348 347 347 346 346 346 348 346 345 347 350 349 348 349 343 351 348 348 348 345 347 347 349 345 347 346 346 346 348 357 356 352 354 354 351 350 350
343 345 346 347 346 344 347 346 345 345 346 345 345 345 344 345 346 346 347 345 344 344 341 343 345 345 347 350 349 347 345 345 345 345 346 355 355 351 351 351 352 351 351
342 344 345 346 345 344 346 344 343 345 346 345 344 344 344 343 343 344 344 344 341 339 342 339 340 342 343 339 344 347 342 342 344 345 345 355 357 353 352 351 352 352 352
343 343 344 345 345 345 345 343 342 344 343 344 344 343 344 344 343 340 342 343 343 343 343 340 338 343 343 335 338 339 339 342 343 344 346 347 357 357 356 353 353 353 353
343 344 343 344 345 345 345 343 343 343 340 341 343 345 346 345 342 341 342 342 343 347 345 342 343 343 339 339 336 337 338 340 340 342 343 343 347 357 357 356 356 357 356
343 342 343 348 346 345 345 343 343 342 342 344 345 347 346 345 344 340 338 340 345 345 345 340 340 340 338 338 336 336 337 338 338 339 339 342 343 346 350 358 359 359 357
342 340 340 345 344 345 344 343 343 343 343 344 345 346 346 346 346 343 340 343 343 343 341 342 341 338 338 336 336 339 338 338 337 341 339 341 341 345 345 349 356 360 358
340 340 342 343 342 342 342 341 342 343 344 344 345 347 347 348 349 348 345 343 344 343 342 343 340 339 337 334 336 338 335 338 338 338 341 344 343 343 343 343 342 346 356
339 338 340 340 343 342 340 338 338 340 342 345 344 348 348 348 351 348 348 343 342 338 340 344 341 339 340 340 334 334 331 333 336 338 339 339 341 344 344 344 343 344 346
338 339 338 339 341 342 341 340 342 341 345 346 347 349 350 350 351 350 345 341 343 343 343 344 342 336 336 338 334 327 325 326 333 334 336 338 337 338 342 345 344 345 345
337 339 338 339 341 344 343 343 345 345 345 345 345 347 347 348 351 351 348 345 342 342 340 341 344 340 334 337 338 332 325 322 327 330 329 334 336 335 336 339 342 343 345
338 341 339 341 340 343 345 343 342 341 339 340 343 346 348 350 351 349 349 347 344 340 339 340 348 340 337 338 338 341 335 330 329 324 328 331 331 331 332 336 339 340 341
339 341 342 341 339 342 343 344 342 339 340 342 343 345 344 348 352 350 349 347 345 341 338 341 345 343 344 342 340 338 336 332 333 328 325 325 328 330 333 334 335 336 337
341 343 343 341 339 342 344 345 343 341 339 340 342 343 344 344 347 349 350 346 345 344 342 341 346 344 344 343 343 340 337 335 335 333 329 329 328 330 333 335 337 337 340

GFSSE_sfc_thetae_096.txt.gz
Theta_e
344 352 361 360 361 361 360 360 360 361 363 363 364 362 362 362 361 361 363 361 361 362 360 355 358 357 357 360 361 360 359 357 359 359 359 359 358 358 358 358 357 354 357
349 354 360 359 360 360 361 361 359 361 362 363 362 361 361 362 362 361 360 360 360 361 360 356 360 360 359 359 359 360 358 359 359 359 359 356 356 358 358 358 357 354 356
350 353 358 362 360 360 359 359 361 360 361 362 361 361 361 361 362 362 361 361 360 362 357 357 357 358 357 358 358 358 357 356 357 358 358 353 351 355 357 358 357 357 358
352 353 356 361 358 358 357 357 359 360 359 361 361 360 360 361 361 360 360 361 361 360 360 359 359 359 358 358 355 355 356 356 356 356 352 353 352 356 358 357 356 357 357
351 353 353 358 357 356 357 358 357 359 359 360 359 360 361 361 362 362 361 361 361 360 360 359 358 357 357 358 357 359 356 355 356 353 352 353 354 355 353 353 354 355 354
350 350 356 359 359 360 360 360 359 358 360 361 361 361 361 362 361 362 362 361 361 361 360 359 358 357 357 357 356 356 357 356 356 352 350 352 352 357 356 352 352 352 355
347 351 355 360 360 359 359 360 360 359 359 360 360 360 361 361 361 361 362 360 359 359 360 358 358 357 359 359 359 359 356 355 350 351 351 351 355 354 356 353 352 352 353
351 353 356 359 360 359 359 360 360 359 360 360 360 361 362 361 361 361 361 361 360 359 358 356 357 357 357 357 357 355 353 354 351 351 350 351 357 356 352 352 352 352 351
353 352 354 355 356 359 360 360 360 360 359 360 361 361 361 360 360 362 361 361 359 359 358 356 358 357 357 358 356 355 355 354 349 349 349 352 358 356 353 352 353 354 355
350 352 351 352 352 352 354 360 359 360 359 358 360 360 361 361 361 360 362 361 359 358 357 357 357 357 357 358 358 357 354 353 346 347 350 352 358 357 352 350 350 351 350
349 348 349 349 349 351 353 356 357 358 358 358 358 359 355 353 356 357 362 360 358 357 356 356 355 355 357 359 358 358 355 348 348 349 350 354 355 349 349 349 348 348 348
344 346 348 348 348 349 354 349 349 351 350 351 350 349 349 351 355 357 360 361 360 359 356 354 353 354 353 349 350 356 348 349 349 349 350 355 354 350 350 350 348 348 348
344 347 348 346 347 349 348 348 348 346 347 349 348 348 348 351 352 352 352 348 349 353 349 349 349 350 350 351 352 349 349 348 349 350 350 354 356 351 353 354 352 351 351
343 346 347 347 346 345 348 347 346 345 346 346 348 348 347 348 348 349 349 348 348 344 344 345 347 348 350 351 352 351 349 348 348 348 347 352 355 352 352 351 351 352 352
341 344 345 346 345 345 347 345 345 346 347 347 346 348 347 347 347 349 347 347 346 347 346 344 345 346 348 342 346 350 348 347 348 348 347 352 355 356 352 352 352 353 353
342 343 345 345 346 345 345 344 343 346 348 346 347 346 347 346 347 346 346 347 347 348 349 345 344 348 346 340 344 346 346 346 346 347 348 349 356 356 357 355 354 354 354
342 344 344 345 346 344 345 345 343 346 343 344 347 346 348 348 346 346 346 346 348 352 350 347 347 346 344 343 344 343 344 345 345 345 346 347 348 353 357 356 356 357 358
342 342 344 348 345 345 345 344 344 344 342 346 347 348 349 348 347 347 344 346 347 349 348 348 346 346 344 344 343 344 344 344 344 344 344 344 346 346 348 352 356 359 359
342 342 342 345 345 345 346 344 345 345 345 346 348 348 349 348 348 348 345 348 351 348 348 347 346 344 344 342 341 344 344 344 344 343 345 345 345 348 348 349 352 354 356
342 341 342 344 345 345 344 343 345 344 345 347 348 348 350 351 351 351 348 349 349 348 347 350 348 347 346 345 343 343 344 343 345 344 345 346 348 349 348 349 350 349 352
340 340 342 342 342 342 341 340 341 342 345 347 348 351 351 352 353 352 351 350 348 346 348 347 345 347 344 343 343 341 339 340 340 344 344 345 346 347 349 350 350 351 351
338 340 341 342 341 342 342 342 343 343 346 349 348 351 352 353 354 353 349 347 348 349 350 349 345 343 343 344 341 334 334 336 341 342 341 343 345 345 345 347 349 352 352
337 338 340 340 342 341 342 345 345 347 347 347 348 350 350 349 353 351 348 348 348 348 346 348 350 346 342 344 343 340 334 332 333 338 340 340 343 344 345 344 345 349 351
338 340 341 340 342 343 343 344 344 341 340 343 346 350 352 352 354 354 353 349 348 347 348 348 351 345 347 344 345 344 341 339 336 335 339 339 339 340 342 342 343 346 348
340 339 340 340 341 344 344 345 343 343 343 345 346 347 349 350 353 351 353 351 351 347 348 348 352 351 352 350 345 344 344 340 340 336 335 338 343 338 340 342 343 344 347
340 340 340 340 339 343 344 344 344 343 342 343 345 346 348 350 352 354 353 351 351 350 347 349 352 352 350 349 348 347 344 343 342 340 337 337 338 342 344 347 345 347 349

GFSSE_sfc_thetae_099.txt.gz
Theta_e
349 353 360 357 359 361 360 360 362 361 363 363 362 363 362 362 362 362 362 362 361 360 360 360 360 360 359 360 360 359 359 359 360 359 359 359 359 359 358 358 360 355 358
351 356 360 360 360 360 360 359 361 361 362 362 362 362 362 362 362 361 360 361 362 359 359 360 360 361 360 360 358 358 358 359 359 357 355 360 359 359 359 358 356 356 356
351 357 358 361 360 361 361 360 359 360 360 362 361 362 361 362 361 361 361 361 361 361 359 359 359 359 359 359 358 356 356 359 358 358 353 349 356 359 359 358 359 358 358
353 356 357 360 359 358 358 360 359 359 360 361 360 361 361 361 360 360 361 361 362 362 360 360 359 358 358 356 357 357 356 357 358 357 355 353 351 358 357 358 358 358 358
355 357 358 358 358 357 356 357 359 359 360 359 360 361 361 361 360 361 361 361 360 360 358 359 358 357 358 359 359 357 355 357 357 355 355 356 353 352 354 354 355 355 357
355 353 357 357 357 359 359 359 359 359 360 359 360 360 360 361 362 361 361 361 360 360 359 358 358 358 357 357 357 358 356 357 354 354 352 357 356 356 353 353 354 357 357
350 354 357 360 360 360 359 359 359 360 360 361 360 360 361 362 360 360 361 360 360 360 359 358 359 359 360 361 360 357 356 356 352 352 355 355 352 356 353 353 353 353 353
349 354 359 361 360 359 358 359 360 360 360 360 361 360 359 360 362 361 361 359 360 359 357 358 358 358 357 358 357 354 354 354 352 351 354 356 357 354 354 353 356 355 356
356 356 356 358 360 359 359 359 360 360 360 361 362 359 361 360 361 361 361 360 360 358 358 358 357 358 358 357 355 355 356 355 352 350 350 355 358 355 353 354 354 355 355
354 356 357 358 357 358 357 359 360 359 359 360 360 360 360 361 360 361 362 361 359 358 357 358 357 357 358 358 358 356 355 350 345 346 351 356 359 355 352 351 351 351 351
353 355 356 355 357 360 358 359 359 358 360 360 360 360 362 361 358 357 361 359 358 358 357 356 354 356 358 357 358 357 352 351 348 349 352 352 353 351 351 350 349 349 349
349 352 354 355 355 355 356 360 361 358 359 360 359 360 359 361 361 360 361 362 361 358 357 356 356 357 352 356 357 359 355 353 352 350 352 354 355 352 353 352 350 350 350
349 351 353 355 357 355 357 356 356 355 357 357 358 358 360 358 359 357 355 354 355 355 353 353 353 354 354 356 356 355 356 356 353 351 349 352 357 353 353 354 354 353 351
347 350 352 354 356 357 358 353 353 352 354 353 356 359 357 355 355 356 354 356 354 354 354 355 356 356 357 357 357 358 357 356 353 351 348 350 354 353 352 352 351 352 353
346 349 351 354 356 356 355 353 353 354 353 354 355 357 355 354 355 356 356 355 357 357 354 354 357 356 354 349 355 358 357 356 353 351 350 349 354 355 355 353 353 354 354
347 349 351 352 355 355 354 355 355 355 355 355 355 355 357 355 358 355 356 355 357 359 359 358 357 356 352 352 353 354 356 356 354 352 351 353 352 356 356 357 356 356 357
347 349 350 351 353 354 354 354 354 356 354 354 355 358 357 358 357 358 356 356 359 362 360 360 359 356 352 352 352 354 354 355 354 353 354 354 354 350 353 355 357 357 358
348 349 351 348 351 352 354 355 354 356 354 355 355 356 357 358 359 358 355 356 357 360 358 357 354 354 353 353 354 354 354 354 354 354 355 354 355 354 353 350 353 355 356
350 351 351 353 353 354 357 355 355 355 355 355 354 357 358 358 356 358 355 357 361 357 357 357 353 355 354 354 352 353 355 354 355 352 354 356 356 356 356 360 353 354 356
351 352 353 353 355 357 356 356 356 354 356 357 358 357 358 358 359 363 358 359 360 358 356 358 357 358 355 353 348 350 355 356 357 357 355 354 358 357 357 359 358 357 356
350 351 352 353 356 355 353 351 352 350 353 355 357 358 359 361 362 364 359 360 359 358 359 358 357 355 352 355 351 350 350 351 351 354 356 356 354 354 354 355 357 356 356
349 350 352 353 356 355 355 355 356 354 353 357 358 360 360 361 362 363 362 358 359 358 360 360 359 354 353 354 349 348 340 343 349 349 352 352 352 354 354 354 355 357 358
347 349 351 354 356 356 357 355 355 356 355 355 356 357 361 360 360 362 360 360 361 360 356 360 359 356 350 354 356 348 342 337 346 350 349 350 353 353 354 354 352 356 358
347 350 352 355 355 355 356 356 357 351 354 352 356 364 364 361 360 360 362 360 361 359 359 359 361 359 357 351 355 353 354 352 343 339 350 349 352 347 350 350 351 353 358
348 348 351 354 355 355 355 358 356 354 353 355 357 360 364 363 363 360 362 362 361 358 359 359 363 362 358 353 350 354 356 354 354 347 339 344 350 351 355 354 352 354 358
348 347 349 352 353 356 354 356 357 357 355 353 354 353 355 357 360 362 362 362 361 361 358 358 364 361 360 357 354 353 348 347 348 348 346 347 347 351 356 359 358 357 363

GFSSE_sfc_thetae_102.txt.gz
Theta_e
348 352 353 355 356 359 360 360 362 363 363 363 363 363 362 362 362 362 363 359 360 362 362 361 360 360 360 360 360 360 360 360 360 360 360 360 360 359 359 358 361 356 358
350 353 358 358 358 361 360 360 361 362 363 363 363 364 362 362 361 362 362 358 360 360 361 361 361 360 360 359 359 359 360 359 356 358 360 361 359 359 358 359 360 357 358
350 354 358 360 360 362 361 359 361 361 362 362 362 362 362 362 362 363 360 360 361 360 361 360 359 360 360 356 356 360 359 359 357 352 351 355 357 360 359 358 359 358 357
351 353 356 360 359 359 360 359 360 361 362 361 362 361 362 361 361 362 360 360 360 360 359 360 360 358 359 359 358 357 358 358 357 356 352 348 351 357 358 358 358 358 358
353 355 360 359 358 357 359 360 359 361 360 361 361 361 359 360 362 362 362 361 360 360 359 359 358 359 360 360 357 356 358 357 354 357 354 357 348 353 356 356 359 359 359
354 354 356 357 357 358 357 359 360 361 359 360 361 360 361 361 362 362 361 361 361 360 359 360 359 359 359 359 358 357 358 353 354 353 351 357 353 354 354 355 358 357 356
349 350 355 360 360 360 359 359 360 360 361 361 360 360 361 361 361 361 361 360 361 360 360 360 360 361 361 361 357 356 355 354 351 355 351 349 352 355 354 353 353 354 354
346 353 357 360 360 360 360 360 360 361 360 360 361 360 361 362 361 360 361 361 359 359 360 359 359 358 358 356 354 354 356 353 350 354 354 353 356 355 355 358 358 358 356
350 354 356 358 360 360 359 361 360 360 360 361 360 360 361 361 361 360 361 361 359 359 359 358 359 359 358 357 356 356 355 353 347 351 351 355 357 353 353 353 352 352 351
352 352 355 355 357 356 358 361 360 361 360 361 360 361 360 361 361 360 363 362 358 358 358 358 358 359 359 359 356 355 352 351 346 347 349 356 358 353 352 351 350 350 350
350 352 352 354 357 359 359 360 360 360 361 360 360 359 361 356 355 358 360 359 359 357 356 355 356 358 358 359 358 356 356 345 343 348 347 355 353 353 352 350 349 349 350
347 349 351 353 353 355 353 359 360 357 359 359 361 357 353 356 358 356 360 361 359 357 357 355 357 356 355 354 357 359 350 351 347 346 349 355 355 353 354 354 352 352 352
348 348 350 353 353 352 354 353 353 355 356 359 359 355 356 355 355 353 355 355 355 355 355 356 356 355 356 357 354 353 354 351 347 345 348 355 355 353 352 351 352 352 352
347 348 349 351 354 353 352 349 350 353 354 353 355 360 358 354 354 355 354 356 359 355 358 358 355 358 356 358 356 355 353 351 348 346 346 351 352 352 351 352 352 352 353
345 346 348 352 356 358 355 350 351 352 353 353 354 358 357 354 356 356 358 358 359 358 355 357 358 355 355 353 354 354 352 353 351 348 345 351 353 354 354 353 354 354 355
346 346 349 351 356 357 356 357 354 354 355 353 353 357 359 356 360 356 357 356 358 358 358 359 359 354 352 351 353 353 353 352 354 353 350 352 353 355 355 356 356 356 356
346 348 350 352 356 357 357 357 354 354 353 352 354 359 360 360 362 363 357 357 358 362 365 362 359 357 350 351 354 353 353 353 351 353 353 353 353 352 353 354 355 356 357
346 349 351 350 353 354 356 357 354 354 353 353 355 358 360 362 362 362 357 356 360 361 361 355 355 350 352 352 352 353 353 353 354 354 354 356 356 355 354 355 353 356 357
349 350 350 352 351 355 359 357 357 359 356 356 356 358 362 361 360 362 359 359 363 359 357 356 353 354 352 352 349 351 351 352 353 349 353 357 355 358 358 356 356 357 358
351 352 352 352 356 358 358 358 355 356 357 357 356 357 362 359 360 362 358 362 361 357 356 356 360 356 352 351 346 346 349 351 353 353 352 352 354 356 356 361 362 359 360
350 352 354 354 359 357 354 351 351 350 354 355 357 361 362 362 361 363 361 361 361 358 360 362 359 356 349 354 347 345 345 349 349 351 352 353 351 354 357 358 360 358 358
350 352 355 356 360 359 357 358 356 353 353 354 357 361 361 361 360 361 365 361 363 357 363 362 361 352 352 356 345 346 339 341 345 347 351 350 352 354 355 357 359 360 361
349 352 354 358 360 361 361 361 360 360 359 355 356 355 359 361 361 361 362 363 363 360 355 363 360 361 347 355 359 348 338 338 341 345 347 348 352 353 356 357 357 359 361
350 352 355 358 359 361 364 359 362 353 354 353 356 356 357 359 360 360 362 362 365 362 363 362 360 361 360 350 354 355 360 358 341 336 343 346 348 347 353 354 356 356 363
351 352 354 359 360 359 363 362 361 355 352 354 356 359 360 360 361 360 362 365 365 359 362 363 364 361 359 353 351 356 357 356 357 344 339 343 344 352 357 358 356 356 361
351 352 353 358 361 361 361 361 360 357 356 353 354 353 352 357 356 358 359 361 364 364 363 359 363 358 364 360 355 354 349 347 347 346 345 347 345 351 357 361 362 359 362

GFSSE_sfc_thetae_105.txt.gz
Theta_e
347 353 357 357 356 357 358 361 362 363 364 363 363 362 363 362 362 362 361 361 363 362 360 360 361 361 361 361 361 360 360 360 361 360 360 360 358 359 358 358 362 355 358
350 353 358 359 358 359 361 361 362 363 363 363 361 362 362 362 362 361 362 360 361 361 361 361 360 359 360 359 360 360 357 355 360 360 361 361 361 361 360 359 361 357 358
350 353 359 360 361 360 359 360 361 363 362 363 362 362 362 362 361 360 360 360 361 360 360 360 359 357 355 358 360 359 358 358 356 352 356 354 357 360 360 359 358 358 358
348 352 356 361 361 361 360 361 361 362 362 362 362 362 362 362 361 362 360 360 359 360 360 359 359 360 360 358 358 358 357 356 358 364 348 347 354 358 358 359 358 358 358
354 356 359 359 358 360 360 359 361 360 361 362 361 361 362 362 361 361 360 360 359 359 359 360 360 360 359 358 358 358 357 357 357 357 354 349 348 355 358 358 360 359 359
352 353 357 357 357 356 361 361 361 360 361 362 360 362 361 361 362 362 361 361 361 361 360 360 360 360 361 358 358 356 353 352 356 351 352 350 350 354 356 356 355 355 356
349 347 354 361 361 360 359 360 360 362 362 361 361 360 362 362 362 362 361 361 361 361 361 360 361 361 360 357 355 355 353 354 352 350 346 348 351 356 356 356 357 356 354
345 352 357 361 361 360 359 360 361 361 360 361 361 361 362 362 363 362 362 360 361 360 360 360 359 359 356 355 356 354 354 357 352 350 350 348 356 356 356 356 357 357 355
350 352 354 358 360 360 362 361 361 361 360 362 362 362 361 361 361 362 361 360 361 360 359 360 359 359 358 358 355 352 350 352 350 352 351 349 355 352 352 351 351 350 350
348 351 353 354 354 358 357 361 361 362 362 361 361 361 362 362 362 362 362 359 359 359 359 358 359 359 360 358 356 354 353 355 346 346 348 350 356 351 350 349 349 350 350
347 350 350 350 355 360 358 359 360 362 363 361 360 361 363 357 356 358 361 359 358 358 356 356 356 359 360 360 359 358 357 345 344 344 344 355 354 353 352 350 350 351 351
343 346 349 351 351 355 349 360 358 357 358 359 358 360 360 357 354 352 358 358 356 356 356 356 358 359 361 358 358 361 348 346 345 345 348 356 353 352 353 353 352 352 352
343 346 347 352 353 351 352 351 352 356 356 356 356 354 355 353 354 351 355 355 355 359 354 357 357 355 351 352 347 346 348 346 343 342 350 356 352 351 351 351 351 352 353
342 344 347 348 354 351 349 349 350 351 353 350 353 359 359 355 354 364 352 352 362 352 355 359 351 355 354 353 349 348 347 345 343 339 346 353 352 351 351 351 352 353 354
342 344 346 350 359 358 353 348 352 352 354 351 356 357 361 358 355 356 360 356 357 361 351 353 352 351 353 351 350 350 348 348 346 340 341 353 353 352 353 353 354 355 356
344 345 348 352 356 357 353 356 352 351 352 353 354 356 360 356 361 354 358 353 355 357 353 355 356 350 349 348 350 351 349 348 351 348 346 351 354 354 354 355 355 356 357
345 347 349 351 352 353 354 355 355 352 351 353 354 359 359 361 362 360 353 354 356 357 361 357 354 353 347 347 351 351 349 350 350 352 351 351 353 356 357 356 355 355 356
346 348 349 349 350 351 354 356 356 356 353 355 353 356 360 362 361 363 355 353 355 357 355 352 351 347 348 348 349 349 348 349 352 353 353 355 355 353 356 359 357 358 359
348 349 349 350 350 353 357 359 359 360 357 354 354 357 362 361 361 366 360 357 365 356 353 358 346 356 346 348 347 348 349 348 352 350 354 354 354 355 354 359 363 362 360
349 350 351 350 354 361 359 360 356 357 356 354 356 357 361 359 360 362 359 359 364 357 353 353 362 352 350 348 344 345 348 348 350 351 351 350 353 355 353 360 361 359 364
349 349 351 352 357 356 351 350 353 355 359 361 358 361 361 360 361 363 360 359 361 362 361 359 356 355 347 350 348 343 344 348 349 348 349 349 350 351 353 357 358 358 359
347 349 351 355 357 359 353 367 364 354 354 355 357 360 363 360 361 360 367 361 358 357 360 362 362 353 346 348 346 344 336 341 345 345 347 347 349 350 352 356 357 361 362
347 349 352 356 358 360 362 363 359 359 359 351 354 356 358 360 360 362 362 364 361 363 357 363 358 360 345 348 359 353 340 340 339 343 346 346 350 350 352 353 354 358 362
348 350 355 357 359 360 363 365 358 354 348 356 356 358 357 360 360 361 362 362 364 364 366 361 360 365 364 345 348 349 359 356 347 337 341 345 346 347 351 351 351 356 359
349 349 353 358 361 362 364 360 357 358 352 349 355 362 366 363 360 359 362 363 363 359 363 364 361 365 358 356 351 347 354 349 351 343 340 341 343 346 352 352 352 353 360
348 348 352 357 361 360 362 361 362 359 359 352 356 355 355 355 357 360 360 362 363 364 361 359 363 362 364 365 357 354 346 345 347 349 342 345 345 349 351 355 355 354 357

GFSSE_sfc_thetae_108.txt.gz
Theta_e
347 351 360 356 356 357 360 361 362 363 363 363 365 362 362 362 361 364 364 364 361 362 361 362 362 361 361 361 361 361 361 361 360 360 360 360 358 358 360 360 362 354 358
348 353 361 357 356 360 361 362 363 362 363 363 363 363 362 362 362 364 364 361 361 361 361 361 361 360 361 361 359 357 358 358 360 359 361 361 361 361 360 360 359 356 360
348 354 357 362 359 361 361 361 362 362 363 362 362 364 363 363 360 360 361 361 361 361 360 358 357 357 360 359 359 359 358 357 356 356 360 353 355 360 359 358 359 359 359
348 352 355 363 363 360 362 361 361 361 362 362 362 361 361 364 364 363 361 361 362 363 360 361 360 358 357 358 357 357 358 359 359 361 349 351 351 359 360 359 359 357 358
350 353 358 362 362 361 360 361 361 361 362 361 360 362 362 362 360 360 360 359 359 360 360 361 360 358 358 358 356 357 357 360 363 352 348 348 351 356 359 360 359 358 358
354 354 358 359 359 362 360 361 360 361 361 361 363 363 364 363 362 362 361 361 361 361 360 360 361 359 357 356 353 356 357 360 361 347 346 350 349 355 355 355 355 356 355
347 347 354 362 360 361 361 361 361 362 361 364 364 364 364 362 362 361 361 361 361 361 361 360 361 357 356 354 353 355 357 362 346 345 346 348 353 359 358 359 357 354 352
345 351 356 361 361 361 361 362 361 361 363 366 363 362 362 364 363 363 361 362 361 361 360 359 359 357 355 354 352 353 354 357 351 346 347 349 357 356 355 354 354 353 351
349 351 354 356 360 362 361 362 362 364 363 362 365 364 366 364 363 362 363 362 360 360 360 360 359 358 358 355 350 351 354 360 350 349 345 347 356 353 351 350 350 350 351
349 352 351 355 355 355 357 362 361 364 362 362 365 364 365 364 363 361 363 363 360 360 359 360 360 361 360 358 355 353 355 357 348 345 346 350 356 350 349 349 349 351 351
348 350 351 352 355 360 359 359 362 362 363 363 361 365 361 357 356 357 362 361 359 358 358 360 361 361 360 359 359 359 358 353 341 342 346 356 357 353 351 350 351 352 352
345 347 350 352 351 353 352 359 361 360 357 358 359 357 364 358 357 351 359 361 359 357 360 363 363 362 360 357 357 361 356 345 343 344 349 357 355 353 352 352 352 352 352
342 345 346 354 354 353 356 356 356 357 358 356 363 353 361 354 353 353 357 354 356 360 353 357 357 356 356 356 355 356 346 346 341 343 354 358 353 351 351 350 351 352 354
343 345 346 345 355 346 355 350 354 355 354 354 359 367 366 353 359 352 352 350 361 356 344 350 355 357 354 349 348 349 345 343 337 340 352 356 353 350 350 351 352 354 356
342 345 348 355 358 363 353 350 353 353 356 353 351 356 364 353 355 353 336 350 359 355 355 357 358 354 355 354 352 350 346 349 338 339 344 355 356 352 352 352 355 356 357
343 347 351 352 359 358 365 361 352 357 358 354 352 351 349 363 360 356 355 356 349 361 361 352 355 353 354 349 352 351 349 349 352 343 345 350 358 357 355 355 357 357 359
344 350 350 352 351 358 363 359 350 354 355 358 357 349 350 366 370 356 354 359 361 362 362 363 361 353 353 351 353 355 350 351 352 353 348 348 352 360 360 361 361 361 361
345 350 351 347 350 353 359 359 359 351 354 350 356 362 364 369 367 363 361 352 362 366 364 360 360 354 346 354 352 353 353 351 354 355 355 353 352 350 360 363 362 362 363
348 350 348 353 348 354 363 362 354 364 356 360 360 362 366 366 368 356 360 364 368 358 350 353 352 355 351 347 349 352 353 351 354 351 355 357 355 354 354 359 362 362 364
349 351 346 352 354 362 358 367 366 355 361 359 361 356 369 366 367 368 362 366 358 356 352 357 360 355 360 345 344 348 352 353 354 353 353 351 354 356 357 360 358 359 363
348 350 350 353 358 354 357 346 360 346 358 357 356 365 369 368 369 367 366 361 351 349 365 364 363 360 358 358 358 350 348 351 352 352 351 349 351 353 356 358 363 362 357
348 351 356 353 358 360 357 354 359 358 358 358 362 366 361 365 369 365 368 358 356 362 366 367 367 361 355 354 350 347 342 345 346 346 351 348 348 350 353 356 360 359 362
347 351 354 356 360 362 364 357 365 355 365 356 355 361 360 362 365 355 369 358 366 364 362 369 367 362 355 353 361 356 343 340 343 346 347 350 347 353 353 353 357 360 360
347 350 357 359 360 361 359 359 351 358 351 357 362 359 364 365 363 366 369 369 366 352 354 367 364 365 361 355 356 353 359 342 331 336 345 345 348 350 351 352 350 358 360
345 349 355 360 360 363 356 366 361 362 348 350 351 353 370 370 368 361 368 368 369 366 365 367 363 365 363 361 354 356 349 357 344 343 331 334 346 349 353 354 350 353 348
345 349 355 359 359 361 360 360 361 352 348 350 346 348 359 359 362 367 363 368 370 368 359 364 368 365 364 366 361 359 347 339 337 339 334 335 335 346 345 346 344 343 349

GFSSE_sfc_thetae_111.txt.gz
Theta_e
341 348 360 358 359 359 361 362 362 362 362 362 362 363 360 362 364 364 363 363 361 362 363 361 361 361 361 361 361 361 360 360 361 361 360 359 359 358 360 359 358 354 358
347 354 361 360 361 362 362 361 361 362 361 361 363 364 361 363 363 361 361 361 361 361 362 360 362 361 359 358 359 358 358 360 362 363 360 360 360 360 361 359 359 356 359
349 353 355 363 362 362 362 363 362 362 362 361 364 364 361 361 362 362 361 361 360 361 355 357 360 360 359 360 359 358 357 358 359 360 360 354 354 358 359 360 360 359 359
351 352 357 362 363 362 362 362 362 362 362 361 362 364 362 362 363 362 361 360 360 361 361 360 357 358 359 359 359 359 358 360 360 360 349 351 352 360 359 358 358 359 359
349 353 356 364 363 362 361 361 362 362 362 362 362 363 362 360 360 360 360 361 361 361 360 360 357 357 357 358 356 357 362 362 360 350 345 348 351 358 359 359 358 358 357
351 354 360 362 361 360 361 361 361 361 361 362 362 362 361 361 361 361 361 361 360 360 360 361 357 356 355 354 355 358 360 361 352 344 344 351 346 355 355 355 355 354 354
347 350 353 362 362 361 361 362 362 361 362 362 362 362 362 361 361 362 361 362 362 360 360 361 356 355 353 352 355 356 361 357 343 342 345 349 353 359 359 355 354 351 352
347 353 353 361 362 363 361 361 362 362 363 363 363 363 363 362 362 364 361 360 360 360 359 357 355 354 353 352 351 352 359 359 346 344 347 348 356 356 355 354 353 351 351
351 352 354 353 357 361 364 361 362 362 362 362 363 363 362 362 361 362 360 360 361 360 359 358 356 355 354 352 350 350 355 359 342 343 346 347 356 352 351 350 350 350 350
349 351 351 352 354 354 355 362 362 362 362 363 363 363 365 363 361 361 363 363 360 360 360 358 357 356 356 355 355 355 355 358 343 343 346 349 354 350 349 348 349 350 350
347 348 350 351 351 351 354 357 360 361 361 362 362 362 362 354 353 355 359 362 359 359 359 359 358 358 359 360 359 358 355 350 338 343 346 354 356 351 350 349 350 351 351
341 347 348 350 351 351 353 353 354 355 352 351 343 348 351 350 348 353 358 361 358 358 358 358 357 358 361 354 354 360 353 339 340 343 348 356 357 353 352 351 351 351 352
341 345 345 346 349 345 349 351 352 352 352 346 338 340 349 349 346 341 348 352 351 356 337 349 340 348 351 354 354 352 351 337 338 342 352 357 356 353 351 351 351 352 354
341 342 344 347 344 346 351 350 348 350 349 347 347 349 349 343 336 336 343 349 348 341 333 345 346 346 350 351 350 350 343 335 336 344 353 357 356 353 352 352 353 355 356
340 341 342 347 345 342 346 349 348 347 347 345 348 347 347 345 344 340 337 345 338 348 346 344 346 346 345 344 342 339 338 332 334 340 344 355 356 356 354 354 356 357 358
342 344 346 346 348 351 348 348 346 347 347 344 344 345 345 345 346 343 335 346 343 347 347 343 344 346 346 341 344 340 340 335 334 337 341 347 358 358 358 357 358 360 359
343 345 344 343 346 349 345 344 341 345 349 344 337 333 336 343 351 345 347 345 347 350 349 350 348 349 341 346 341 344 340 342 337 338 340 342 350 360 360 362 362 363 363
342 341 344 345 344 343 345 349 346 347 348 349 343 340 340 351 354 350 351 347 348 348 347 350 348 346 342 341 341 339 341 343 343 342 343 343 345 347 356 363 363 363 364
342 342 343 343 341 343 346 349 346 344 343 347 350 354 352 351 357 347 348 352 352 351 347 344 345 342 340 339 343 342 340 341 343 347 345 346 344 347 346 355 361 361 364
344 344 342 343 340 347 347 354 350 349 349 354 352 353 353 350 356 354 354 342 337 343 351 352 348 348 349 341 342 341 341 342 343 344 343 349 345 347 347 347 350 355 362
342 343 345 343 349 344 346 342 343 342 348 349 351 353 352 352 353 353 352 333 335 342 344 352 350 349 348 345 342 341 336 339 342 342 345 345 344 347 349 349 352 350 354
340 339 345 346 347 342 348 346 348 346 349 351 352 352 352 355 353 355 352 344 344 346 350 351 352 351 347 342 337 340 329 334 338 341 342 344 340 343 347 348 351 350 353
341 344 344 348 345 349 351 350 349 346 352 349 348 350 353 355 353 352 354 349 347 347 345 352 353 350 347 347 344 343 335 334 336 335 337 339 340 345 345 345 345 352 351
342 346 346 347 346 350 350 350 344 343 340 345 345 351 351 354 355 353 353 353 350 349 347 351 352 352 351 347 347 348 341 336 326 330 340 335 341 343 342 343 340 341 346
344 344 348 349 348 349 347 350 346 342 344 345 346 345 346 353 355 355 352 351 353 352 350 351 353 351 352 350 347 348 342 340 340 329 326 329 336 342 346 342 341 340 343
343 345 348 348 347 349 345 350 346 343 340 342 342 345 344 347 350 352 354 354 352 352 351 351 351 349 351 350 352 344 337 334 333 332 328 329 328 339 342 339 335 340 338

GFSSE_sfc_thetae_114.txt.gz
Theta_e
342 349 357 356 357 360 362 363 363 363 362 361 360 361 361 360 359 360 361 362 361 362 361 361 361 360 359 360 360 360 360 361 360 360 359 359 359 359 359 358 357 352 357
343 351 360 360 360 361 362 363 362 361 361 361 360 361 361 360 361 361 361 361 361 362 362 361 359 359 360 359 359 358 361 362 363 360 361 361 360 359 359 359 359 355 357
348 351 356 363 362 362 362 362 361 361 361 362 360 360 361 361 361 360 361 361 358 358 360 360 359 360 360 359 358 358 359 360 360 359 358 351 352 360 360 360 359 358 358
350 351 355 362 362 362 362 362 361 361 361 362 360 361 361 362 361 361 360 358 359 359 358 358 359 359 359 359 358 357 356 356 360 358 351 352 354 359 358 358 359 358 358
351 353 354 362 363 361 362 362 362 360 361 362 362 361 360 361 361 361 361 361 360 358 356 357 358 358 359 357 358 363 364 362 358 353 348 349 351 357 359 359 358 357 356
352 353 360 361 362 361 361 361 361 361 362 362 362 361 361 360 359 359 360 360 359 359 359 355 356 356 356 356 359 361 359 356 353 346 347 349 346 356 357 356 354 354 355
350 353 357 363 362 361 361 362 361 361 362 362 361 361 361 361 361 361 360 360 360 360 360 354 354 353 354 355 357 363 357 353 342 344 347 348 351 359 355 353 352 352 352
347 350 354 361 361 361 362 362 362 362 362 362 361 361 360 361 361 361 360 359 358 358 357 354 353 351 352 352 354 363 358 353 346 346 348 349 356 358 353 353 351 350 350
351 350 351 353 357 362 361 362 362 363 363 361 362 362 362 361 361 360 359 359 358 357 355 354 352 351 351 351 351 355 364 353 341 344 347 346 355 351 350 349 349 350 350
351 352 349 350 353 353 355 362 362 361 362 363 362 362 361 361 361 360 362 362 358 356 355 355 355 355 357 355 353 353 360 353 341 341 344 346 355 350 349 349 349 349 349
348 349 349 350 350 351 352 357 360 363 362 364 362 363 360 350 352 354 357 359 357 357 356 357 358 358 357 358 358 358 355 344 340 342 344 353 355 350 349 350 350 351 351
343 346 347 348 348 350 356 352 352 354 352 352 352 351 349 347 349 353 355 357 357 356 356 358 359 358 360 353 351 356 353 348 339 341 345 356 355 353 352 352 352 352 353
343 346 346 348 347 345 351 350 351 349 347 338 338 345 348 347 341 339 346 347 347 353 336 345 345 345 348 350 352 350 350 336 339 343 350 357 356 353 351 351 352 352 354
341 344 346 346 345 344 349 349 348 349 346 344 344 347 346 335 334 337 344 341 342 343 333 338 342 340 344 348 348 347 345 335 338 342 349 357 357 354 353 353 354 355 356
340 342 344 344 342 346 347 347 346 346 345 346 346 346 343 336 333 337 340 340 342 337 342 338 342 344 346 348 348 343 342 333 336 341 344 355 357 355 354 354 355 357 359
339 339 342 342 344 344 343 346 345 344 342 343 344 346 345 343 340 341 337 337 337 342 346 345 343 344 343 339 340 336 332 331 334 335 338 344 357 358 357 357 358 360 360
339 342 341 343 346 344 345 345 344 345 343 340 336 341 340 345 346 343 338 337 344 345 348 347 348 345 345 342 339 339 334 331 333 334 335 338 344 358 360 361 362 363 364
341 340 341 345 344 343 343 341 342 346 344 343 333 336 340 351 349 345 345 343 346 349 348 345 342 342 340 340 338 339 338 337 333 336 338 339 341 344 349 360 363 364 365
340 339 338 340 340 342 344 345 342 344 344 345 342 343 345 349 351 347 348 343 345 344 347 344 343 340 337 339 341 340 341 340 339 342 340 340 340 343 343 350 357 361 363
340 339 339 339 337 341 344 349 343 345 347 347 347 350 350 349 354 352 351 342 338 343 345 349 345 348 343 339 343 341 340 340 340 340 341 344 344 344 346 347 347 350 359
340 339 339 336 339 343 342 342 340 340 344 346 348 350 351 349 351 349 348 331 342 347 347 347 349 350 343 340 336 340 334 338 339 340 343 342 345 346 344 346 350 353 354
339 339 341 339 342 340 342 343 342 344 345 346 349 350 351 351 351 353 348 344 345 347 346 349 349 347 347 343 338 336 328 332 338 339 343 343 342 344 344 341 342 350 348
337 340 340 343 339 342 346 347 344 345 347 344 345 346 350 351 351 351 350 348 346 343 342 348 349 348 344 346 341 339 331 328 330 333 336 341 342 342 343 344 342 342 344
338 342 342 342 342 347 348 345 341 339 338 341 342 345 348 352 350 351 351 351 347 347 345 348 352 349 347 343 344 343 338 335 325 326 333 334 342 342 342 342 341 342 342
341 342 343 342 345 345 345 345 342 340 340 343 343 343 344 346 351 351 349 351 350 348 346 347 347 349 348 346 343 339 337 336 332 326 322 327 335 341 342 344 341 339 340
343 342 344 341 344 344 344 346 344 341 341 341 341 341 342 341 345 348 351 350 349 348 347 348 348 348 348 347 346 341 337 334 332 327 324 325 326 335 340 341 337 338 338

GFSSE_sfc_thetae_117.txt.gz
Theta_e
339 345 354 354 357 359 361 361 361 361 360 361 360 358 358 360 360 360 360 360 360 360 360 360 360 360 359 360 360 360 359 360 360 359 359 359 358 357 357 357 357 353 356
343 351 356 358 359 360 362 361 361 360 360 360 360 360 359 360 360 360 360 360 361 361 360 359 360 359 359 359 359 359 360 359 360 360 360 360 359 358 358 358 358 353 354
343 350 356 360 360 361 361 361 361 360 358 360 359 359 360 360 360 361 360 360 360 359 358 359 359 359 359 358 359 359 360 359 359 359 359 352 354 359 359 358 358 358 356
347 349 354 362 361 360 361 362 361 361 359 360 359 359 360 360 359 360 357 355 355 358 358 359 359 359 359 358 357 356 358 359 359 358 351 352 352 358 358 358 358 357 357
348 350 353 360 361 361 362 361 361 360 360 360 360 359 358 359 357 357 361 359 357 356 357 358 358 358 357 358 359 359 357 358 358 353 349 349 351 354 357 356 356 356 357
350 352 356 360 360 360 361 361 361 361 361 361 360 359 359 359 359 359 360 359 359 358 355 356 357 356 356 358 359 362 359 358 355 348 346 350 348 358 357 356 354 355 356
350 353 354 360 360 361 360 361 361 361 361 360 360 360 360 359 359 358 358 358 358 359 355 354 355 354 356 358 360 356 355 354 343 344 345 347 350 355 353 352 351 351 350
350 352 354 359 359 360 361 361 361 361 361 361 361 360 361 360 361 360 359 357 357 358 354 353 352 352 354 355 360 358 353 350 347 347 348 349 357 357 353 352 349 349 349
348 349 352 354 358 361 361 361 361 361 361 361 361 360 360 360 359 359 358 357 357 356 355 353 352 353 354 354 355 357 355 351 343 345 347 346 355 351 349 348 348 349 349
347 349 348 350 353 352 354 361 361 361 361 361 361 360 360 359 359 359 360 359 357 356 356 355 355 355 357 356 355 355 354 352 341 340 343 344 355 347 347 347 348 349 350
348 346 347 349 348 349 352 357 360 362 362 361 360 359 359 350 351 353 356 358 358 358 358 358 357 356 357 358 357 357 356 343 339 342 342 351 352 347 347 348 350 351 352
342 345 346 347 347 350 355 351 350 356 353 353 352 350 347 346 349 353 355 359 359 359 358 359 358 358 357 353 351 355 351 348 339 339 342 354 353 350 350 351 352 353 353
343 345 346 345 346 348 348 348 349 347 346 342 344 346 346 345 340 342 344 346 345 353 342 336 341 340 343 345 348 348 349 339 337 340 345 356 355 354 352 352 353 354 355
342 343 345 346 346 343 349 347 347 346 339 338 339 342 342 334 335 336 341 340 338 343 342 336 340 341 342 344 346 345 344 336 337 339 343 355 356 355 354 354 354 355 357
341 342 344 344 344 344 347 346 345 346 342 344 344 345 340 330 331 334 337 337 339 335 341 342 342 343 343 343 346 346 344 334 336 339 341 355 357 355 354 354 355 357 359
339 341 343 342 342 344 344 345 344 344 344 345 344 344 342 338 335 339 336 333 336 340 344 343 344 342 342 340 339 335 337 333 333 335 338 340 357 357 355 355 357 359 360
338 340 341 341 342 342 342 344 343 342 342 341 343 343 343 344 342 341 338 337 341 345 346 345 345 345 342 341 337 336 330 330 331 331 333 336 339 354 358 360 362 364 364
338 339 340 345 344 342 343 343 343 342 340 337 335 337 340 347 346 342 341 343 345 346 346 343 341 340 339 338 336 338 334 332 331 331 332 334 336 341 345 352 356 358 362
339 338 339 341 340 342 341 340 341 343 344 340 334 339 343 350 349 344 345 342 341 342 346 347 343 338 336 337 338 339 338 339 335 339 337 339 338 342 345 350 355 355 358
338 337 338 338 339 342 343 341 341 342 342 344 343 345 347 348 351 349 346 337 338 343 347 347 345 346 338 336 340 340 339 338 338 339 340 344 344 346 347 351 352 353 357
338 336 336 334 337 341 342 340 339 339 343 343 347 348 348 348 350 349 339 334 344 345 347 349 348 346 342 339 335 336 333 336 336 340 341 341 342 343 342 343 351 349 350
337 337 336 334 339 340 340 341 339 341 342 344 347 347 348 349 351 350 346 342 343 342 346 347 347 344 344 343 339 331 325 331 333 337 341 341 340 342 342 341 342 346 341
336 336 337 336 340 340 342 345 342 344 344 343 343 343 346 348 350 351 348 345 344 341 344 346 347 345 340 339 338 337 329 325 328 333 334 339 341 341 342 343 342 341 339
337 339 337 339 337 342 344 342 339 338 337 339 340 344 346 349 348 350 349 348 345 345 344 348 349 346 344 339 340 342 335 331 324 325 332 332 338 340 340 341 342 341 338
339 339 340 339 341 344 344 342 339 338 339 339 341 341 343 345 348 351 348 348 346 345 346 346 346 345 346 341 337 335 333 332 328 324 320 326 332 337 340 341 341 340 338
338 340 340 339 340 342 343 342 341 339 339 339 339 340 341 341 344 347 350 348 347 345 346 346 345 346 345 346 342 338 335 331 328 323 321 322 324 332 339 340 340 338 337

GFSSE_sfc_thetae_120.txt.gz
Theta_e
338 344 352 355 355 356 358 361 360 361 360 360 361 358 360 359 360 360 360 360 360 360 360 361 361 361 359 360 359 360 359 360 360 359 359 358 357 358 358 359 357 351 355
341 348 354 356 357 359 361 360 360 361 360 361 359 360 360 360 360 360 360 360 359 359 359 359 360 360 360 360 358 358 360 359 359 359 360 359 359 358 359 359 355 353 355
343 350 355 358 359 360 360 361 360 359 361 361 360 360 360 360 360 361 360 358 359 359 359 360 359 360 359 359 360 360 360 360 360 361 360 356 357 358 359 359 359 357 356
345 350 353 358 359 360 361 360 360 359 360 359 360 360 360 360 360 358 355 358 359 358 359 358 358 358 358 357 357 359 360 359 359 358 354 354 354 359 359 358 358 358 356
347 350 353 359 361 360 360 360 359 360 360 360 360 360 360 360 357 359 360 358 357 358 359 359 359 358 359 359 358 358 358 358 358 355 354 355 354 356 357 356 356 357 358
348 352 356 359 360 360 360 360 360 360 360 360 360 360 360 358 359 359 359 359 357 356 357 357 357 358 359 360 360 359 359 357 355 349 349 353 354 358 356 355 355 356 356
348 350 354 359 359 360 360 360 360 361 360 359 359 359 358 359 359 358 358 359 359 356 356 356 356 357 358 360 358 357 355 355 347 348 350 352 354 355 353 352 352 351 351
349 351 353 358 359 359 360 360 360 360 360 360 360 358 358 358 359 359 358 358 359 355 354 354 354 355 356 359 356 355 352 351 350 351 352 353 358 355 354 351 350 351 351
350 351 351 354 355 360 361 361 360 360 360 360 359 359 359 359 358 359 358 357 357 355 354 353 354 355 355 355 357 356 353 352 348 349 349 349 354 350 349 349 349 350 350
346 349 349 351 353 353 353 360 360 360 360 360 360 359 360 359 359 360 359 359 357 356 355 354 354 355 357 357 357 358 355 351 345 344 346 347 352 347 347 347 349 350 351
346 347 347 349 349 349 351 357 359 360 361 360 358 359 355 352 353 354 359 359 359 359 358 357 358 359 359 357 357 356 355 345 343 344 345 348 350 347 347 348 350 352 353
342 344 346 348 349 350 356 352 351 357 355 354 352 349 349 350 354 354 357 358 357 357 354 350 356 351 347 349 353 355 353 351 343 343 344 349 351 350 350 351 353 353 354
342 345 346 346 348 348 348 349 349 348 348 347 349 348 348 346 342 345 346 346 343 350 346 340 342 343 344 347 348 350 352 348 343 342 345 350 354 354 353 352 353 354 356
341 344 346 346 347 346 349 348 347 344 340 342 344 347 345 339 338 339 343 343 343 340 343 344 343 346 347 347 346 348 348 342 341 342 343 351 355 355 355 354 355 356 357
340 343 344 345 345 345 348 347 347 346 340 342 343 346 342 337 335 338 340 341 342 341 345 346 347 347 347 347 345 349 348 340 340 341 343 349 356 355 354 355 357 359 360
341 342 344 344 345 346 346 346 346 347 346 347 347 348 343 339 335 342 341 340 342 346 348 347 348 348 346 346 345 341 343 342 340 340 341 343 352 358 354 354 357 359 361
340 342 342 343 344 344 345 346 346 344 346 346 345 346 346 347 344 345 344 345 347 350 351 351 349 348 347 345 344 342 339 339 336 336 338 338 341 345 352 355 358 362 362
339 340 342 346 343 343 343 344 345 343 344 344 342 345 344 348 348 347 347 349 351 351 352 351 347 345 344 346 344 345 340 337 337 338 339 339 341 343 346 351 356 358 359
338 339 340 342 343 343 344 344 344 343 342 340 337 341 345 352 351 350 350 347 346 350 352 352 349 344 343 344 344 345 344 345 344 343 346 345 345 348 350 351 356 358 358
339 339 340 341 341 342 341 341 343 344 346 343 341 345 348 352 352 352 347 344 348 352 353 353 351 347 345 345 342 341 342 342 344 345 345 348 349 350 352 355 358 357 360
338 337 338 337 340 342 342 340 341 341 344 345 347 350 351 352 353 348 337 345 351 352 352 354 352 350 348 346 345 339 340 341 343 345 346 345 346 347 347 351 355 351 352
336 337 337 337 339 342 343 342 342 343 345 346 349 351 353 350 353 351 346 348 350 350 352 352 351 348 345 343 346 336 335 339 340 341 344 345 345 344 346 346 346 346 346
335 336 336 335 339 342 344 343 344 346 346 346 348 349 351 353 353 354 350 348 349 349 351 353 352 350 344 343 343 345 336 333 335 341 339 341 344 345 347 347 347 347 347
336 338 337 336 339 341 345 343 343 341 340 343 344 347 350 353 353 353 353 351 352 351 353 355 353 352 349 343 344 342 341 340 336 336 339 341 342 341 346 347 347 346 345
337 338 338 337 338 342 344 344 342 341 342 344 344 346 349 350 353 354 353 352 352 352 353 353 353 353 351 347 345 342 339 337 335 334 330 332 338 342 344 345 346 346 345
338 339 339 338 338 343 344 343 342 341 341 342 343 343 345 347 349 352 353 352 353 351 353 352 352 352 352 351 348 345 343 341 338 332 330 331 331 339 344 347 347 347 345